GEFSMA_500_meanwind_000.txt.gz
Wind_Speed
43 42 41 40 40 40 40 39 39 38 39 39 38 38 38 37 37 37 37 37 36 36 37 37 36 36 35 35 36 36 36 35 34 32 31 30 29 28 28 27 27 27 26
44 44 44 44 44 44 43 42 41 41 40 40 40 39 40 40 41 42 42 44 43 42 42 42 42 41 41 41 41 41 41 41 39 37 36 35 33 32 31 30 29 29 28
47 47 47 47 47 47 46 45 45 45 44 44 44 43 43 43 42 41 41 42 43 44 45 45 45 45 45 45 45 45 44 43 42 41 41 39 37 35 34 33 32 31 30
53 53 53 53 53 52 51 50 49 49 48 48 48 47 47 46 46 45 44 44 43 43 44 44 44 43 42 42 43 43 43 45 46 45 44 43 42 39 37 36 34 33 31
60 59 59 59 59 59 58 57 55 54 54 53 52 52 51 51 50 49 48 48 47 47 47 48 48 47 46 45 44 43 43 43 45 46 46 45 44 43 40 38 36 35 33
63 64 65 65 64 64 63 63 62 61 61 60 59 58 57 56 55 54 54 53 52 52 52 52 52 51 51 50 50 49 48 47 46 46 45 45 45 45 44 42 39 38 37
62 63 65 68 68 67 67 67 66 66 66 66 65 63 63 61 59 59 59 58 57 56 55 55 55 55 54 54 53 52 51 50 48 47 46 46 46 45 44 44 43 41 40
66 65 65 66 67 67 67 67 67 66 66 66 67 67 66 66 65 64 63 61 60 59 58 58 57 57 57 55 53 53 52 51 50 48 46 46 46 46 45 45 44 43 42
73 72 71 70 71 70 70 69 68 67 65 63 64 65 66 67 66 66 65 64 63 62 60 60 60 60 59 57 55 54 54 54 52 51 49 48 48 48 48 48 48 47 47
77 79 78 77 76 76 76 75 74 72 71 67 65 65 65 64 64 64 64 64 62 62 62 61 60 59 58 54 53 53 54 54 52 51 50 50 51 51 52 51 50 52 53
78 80 82 82 81 80 80 80 78 77 77 74 72 70 67 66 64 63 62 62 62 63 63 63 62 62 60 56 54 51 51 53 54 54 54 54 53 53 54 54 55 56 57
74 77 80 82 82 83 81 81 81 80 80 77 75 75 73 72 71 69 67 66 65 64 64 64 64 64 64 62 61 59 58 57 55 56 57 58 59 58 59 59 58 57 58
65 71 75 77 77 76 73 75 78 78 79 78 76 75 76 74 73 73 72 72 71 69 68 67 67 66 66 66 64 63 64 62 60 59 59 59 60 61 61 61 60 59 58
65 67 68 68 69 66 58 59 63 70 75 77 74 72 73 72 71 72 73 74 74 73 71 69 68 68 67 66 67 67 66 64 63 62 61 60 59 59 59 60 60 60 60
57 61 67 68 63 60 64 59 54 56 62 70 67 64 67 70 73 72 72 71 71 71 71 69 68 66 65 65 65 64 65 64 63 60 59 59 59 59 58 57 57 59 60
47 46 49 65 68 62 57 57 54 51 52 57 56 53 56 60 65 63 63 65 67 66 66 66 67 65 62 63 63 64 63 63 62 61 59 58 58 58 57 56 56 57 55
39 39 39 46 63 66 56 48 46 40 39 47 52 49 52 50 53 56 56 58 61 62 64 64 62 62 61 61 62 63 62 61 61 61 61 59 58 57 55 55 57 58 56
32 29 30 32 41 56 60 56 56 54 48 48 51 50 52 53 57 56 56 58 59 60 62 64 63 64 62 61 62 63 64 63 61 60 60 59 59 58 56 56 58 59 59
27 25 24 24 30 44 49 52 54 57 59 52 50 49 51 55 61 62 61 59 59 59 56 57 56 55 56 56 57 59 59 61 60 59 58 57 57 57 58 58 58 59 61
24 24 21 19 23 31 38 43 45 48 50 51 51 49 44 45 51 52 52 54 53 52 53 54 55 53 53 54 55 55 56 59 60 60 59 59 59 59 58 58 59 59 59
22 21 15 16 24 30 32 35 39 41 43 48 48 45 40 37 42 45 48 51 51 48 48 51 55 55 56 56 57 56 56 58 60 59 60 63 63 62 62 62 59 57 55
21 20 15 15 20 29 35 34 36 35 36 41 40 36 34 36 39 41 44 46 45 45 47 49 50 53 55 56 58 59 57 57 60 59 60 60 57 58 58 58 57 57 56
21 20 16 18 18 22 32 37 38 35 34 35 34 34 33 37 41 42 43 43 44 45 46 47 47 49 52 55 58 59 56 57 58 56 51 49 50 56 58 58 56 56 54
25 22 19 21 22 19 21 30 35 34 33 32 31 33 36 38 40 41 42 43 43 45 47 49 49 47 47 50 56 58 56 54 51 50 46 46 46 47 50 50 49 49 49
29 27 25 25 26 25 23 25 29 30 31 30 32 33 37 40 39 41 43 44 44 46 48 50 51 50 48 47 48 53 55 54 49 46 46 45 44 44 44 45 46 46 48
32 32 31 30 31 31 30 30 31 33 34 35 36 37 38 40 40 39 40 42 41 42 43 46 48 49 49 49 49 47 48 51 49 46 43 42 42 43 44 45 44 43 45

GEFSMA_500_meanwind_006.txt.gz
Wind_Speed
52 51 50 49 48 47 46 45 46 47 46 45 45 45 43 42 41 40 39 38 36 36 35 33 30 30 31 32 32 30 29 27 26 25 24 22 21 19 19 18 19 19 19
54 54 54 54 53 51 50 49 48 49 50 51 50 49 48 46 44 42 41 40 39 39 38 37 35 33 33 34 34 34 33 32 30 30 29 28 27 26 24 23 22 21 22
57 56 56 56 55 54 54 53 52 51 51 51 52 52 52 50 49 47 46 44 43 42 42 41 39 38 36 36 36 37 37 36 35 34 33 33 32 31 30 28 27 25 23
62 62 61 59 59 58 56 56 56 55 54 54 54 53 53 53 52 51 50 49 47 47 46 46 45 44 43 41 41 40 39 39 39 38 38 37 36 35 34 33 31 30 28
63 64 65 64 63 62 61 59 58 57 57 57 57 57 57 55 55 54 53 51 50 49 48 48 48 47 46 45 44 44 44 43 42 41 40 40 39 38 36 35 34 33 32
66 66 66 66 66 65 64 63 62 61 60 60 60 60 60 59 58 57 56 54 53 51 50 49 48 47 45 44 43 42 43 42 42 41 41 40 38 37 36 35 34 33 33
74 74 73 71 71 70 69 67 67 66 64 63 64 64 63 63 62 61 60 59 57 56 54 53 51 49 48 47 46 45 44 42 42 42 42 42 41 40 39 38 37 36 35
80 80 79 77 76 76 75 73 71 70 68 66 66 67 68 67 65 64 64 63 62 61 59 58 56 54 53 52 51 50 48 47 45 45 45 45 44 43 43 42 41 39 38
84 84 84 83 82 81 80 78 76 75 73 70 67 66 67 67 68 69 68 67 67 65 64 62 60 59 58 57 56 54 53 52 50 49 48 48 47 46 45 44 43 42 41
88 88 89 89 88 86 85 84 82 80 78 75 72 69 67 67 67 67 69 70 70 70 69 67 66 63 62 61 60 59 58 57 55 54 53 51 50 48 47 45 44 44 43
77 80 84 87 88 88 88 87 87 84 83 81 79 76 73 71 70 69 68 68 70 71 71 71 70 69 67 65 64 63 62 61 59 57 57 55 53 52 50 48 47 46 46
56 61 67 72 76 79 82 84 86 86 85 84 83 81 78 76 75 74 72 69 68 68 69 70 71 71 71 70 68 67 65 64 63 61 61 59 57 56 54 52 51 50 48
35 39 44 48 53 59 65 71 76 80 82 84 84 83 80 78 77 77 77 75 72 70 69 69 68 70 70 70 69 68 67 66 64 63 62 60 59 57 56 55 54 53 52
26 30 33 36 39 43 49 56 63 69 74 78 82 83 82 79 77 77 79 79 78 76 73 70 68 68 69 70 69 66 64 64 63 62 62 62 61 60 58 57 55 54 52
22 24 27 29 32 35 40 45 51 58 65 71 74 75 76 76 73 75 77 79 80 79 77 74 72 71 70 70 69 67 65 65 65 64 63 62 61 61 60 59 59 57 55
25 27 28 29 31 33 35 38 43 50 57 63 67 68 68 69 69 71 74 75 77 78 78 76 74 72 72 72 72 71 71 70 69 67 66 65 64 65 64 64 63 62 61
29 30 31 32 33 34 36 38 39 43 50 56 58 59 59 58 61 65 67 68 70 73 76 77 76 75 74 74 74 74 73 72 71 70 69 68 67 68 68 69 69 68 68
33 34 35 35 35 35 36 37 39 39 40 44 46 49 51 51 53 58 63 64 62 63 67 71 74 75 75 74 74 74 74 73 72 72 71 71 70 69 70 70 71 70 70
37 36 37 37 36 36 35 34 34 31 29 32 38 46 51 53 54 53 54 56 55 56 60 63 66 68 69 70 70 71 72 73 72 71 70 69 69 69 69 68 69 70 70
40 39 38 38 37 35 32 30 27 22 24 32 39 42 48 52 55 55 53 51 49 49 51 55 57 60 61 62 63 65 67 68 68 67 66 66 66 67 67 69 70 71 71
42 40 38 37 36 34 30 26 22 21 25 33 38 39 41 45 48 50 50 50 49 49 50 53 56 57 57 58 59 60 61 61 62 63 63 64 64 65 67 68 69 68 67
44 42 40 38 36 34 30 25 24 27 29 34 38 41 42 41 42 44 46 48 48 48 50 52 55 58 59 59 59 59 57 57 58 60 62 64 65 64 64 64 63 63 64
44 42 40 38 36 34 31 29 27 33 36 36 39 41 42 43 43 44 46 47 48 47 48 50 53 57 59 61 60 60 59 57 57 57 59 59 61 62 61 60 60 61 62
42 41 40 39 37 36 34 32 32 33 38 40 41 41 42 41 41 43 45 47 48 49 49 49 50 53 56 58 58 57 54 53 53 53 53 53 54 54 55 56 56 56 57
37 39 40 40 39 38 38 36 36 36 37 40 43 43 43 41 41 42 45 46 48 49 49 49 50 51 52 52 51 51 51 50 49 50 51 51 52 53 53 54 54 54 55
29 33 38 41 41 41 41 41 39 39 38 38 41 44 46 44 43 44 45 47 49 50 50 50 50 49 49 49 49 50 49 48 47 47 48 50 51 52 53 54 55 56 55

GEFSMA_500_meanwind_012.txt.gz
Wind_Speed
64 63 61 60 60 59 58 57 56 55 55 54 53 53 53 53 54 55 54 53 52 50 49 46 44 41 39 40 41 40 39 36 33 31 29 28 26 25 24 23 23 22 22
70 67 66 66 64 63 62 62 61 60 59 57 55 54 54 54 54 55 55 55 55 53 51 49 47 43 41 41 43 42 41 39 36 34 32 30 28 26 24 23 22 22 21
76 74 71 70 69 68 67 66 65 65 63 61 58 56 55 56 56 56 56 56 56 55 53 52 50 47 44 43 44 44 42 42 41 38 36 34 31 29 27 25 23 22 21
80 79 77 75 73 72 71 70 69 68 67 66 63 61 59 58 58 58 57 56 56 56 55 54 52 50 48 47 46 46 43 44 45 42 39 37 35 33 31 29 27 25 24
82 82 81 80 78 77 75 74 73 71 70 69 68 66 63 62 60 60 60 59 57 56 56 56 55 54 52 50 49 48 47 44 47 46 43 41 39 37 35 33 31 29 28
82 86 85 83 82 81 80 79 77 75 73 71 71 69 67 65 64 63 62 62 61 59 58 57 57 56 55 53 51 51 49 47 45 47 47 45 43 40 39 37 35 33 31
65 78 89 89 87 85 84 82 81 79 76 74 73 71 69 67 67 66 65 64 63 63 62 60 60 59 58 56 55 54 53 50 48 45 46 47 45 43 41 40 38 37 35
52 59 73 87 92 90 88 86 85 83 80 78 76 74 72 70 68 68 68 67 67 66 65 64 63 63 62 60 58 57 56 54 51 48 46 45 46 45 44 42 41 40 38
50 50 54 69 85 94 94 91 89 87 84 81 79 77 75 73 71 70 69 69 69 68 67 67 66 66 65 64 63 61 60 58 56 53 51 49 48 47 46 45 44 42 41
46 47 47 51 65 82 93 96 94 92 89 85 83 81 79 77 75 73 72 70 70 70 69 68 68 68 68 67 65 64 63 63 62 59 56 54 52 49 47 45 44 42 41
43 43 43 43 47 59 75 90 96 95 93 90 86 84 82 80 78 76 74 73 72 71 71 70 69 69 69 69 68 66 65 64 64 62 59 57 55 52 50 48 45 43 41
40 39 39 38 38 42 51 65 81 91 94 92 90 87 85 84 82 80 77 75 74 73 72 72 71 70 69 69 68 68 67 66 65 63 60 58 57 55 53 51 49 47 44
39 37 36 35 35 34 37 43 55 69 83 90 91 89 87 86 85 84 83 80 77 76 74 73 73 73 72 70 69 68 67 67 66 64 62 60 59 58 56 54 53 51 49
39 36 34 33 33 32 32 33 38 48 61 74 83 86 87 87 87 87 86 84 83 81 78 74 74 74 74 73 72 71 69 68 66 65 64 62 61 61 60 58 57 55 53
42 38 34 32 31 31 31 31 32 36 43 53 64 73 79 83 87 88 88 88 87 86 83 79 75 74 74 73 73 73 73 71 69 67 66 64 62 61 61 61 60 58 56
43 41 37 33 32 31 31 31 31 32 34 38 45 53 61 69 76 83 87 88 89 88 87 84 80 76 75 74 73 73 73 73 73 72 69 68 66 64 64 63 62 61 59
41 41 40 37 34 32 32 32 32 32 33 34 37 40 46 52 60 69 77 83 87 88 88 87 85 80 78 77 75 73 72 71 72 72 71 70 69 68 68 67 65 63 62
39 39 41 41 39 36 34 34 34 35 35 35 36 37 39 43 47 54 63 71 78 82 86 86 86 84 81 79 78 77 75 73 71 70 70 69 69 68 67 67 67 67 66
36 36 38 41 42 41 38 37 37 37 38 38 38 38 38 40 43 46 51 58 66 72 77 81 82 83 82 79 77 76 76 76 74 72 70 69 69 69 69 70 69 68 67
33 32 34 38 42 44 42 40 39 40 40 40 40 40 39 40 41 44 48 52 57 62 67 70 73 76 78 77 76 74 74 76 75 74 72 70 70 69 70 71 70 70 70
33 30 30 33 39 44 45 44 42 42 42 42 41 40 39 38 38 38 41 46 50 55 58 61 64 67 70 71 72 70 71 73 74 74 73 72 70 69 70 71 72 74 74
34 30 28 29 33 40 45 46 44 43 43 42 41 40 37 36 34 33 35 41 48 51 53 56 60 63 65 66 67 68 68 70 72 73 73 72 72 72 71 71 72 73 75
36 31 27 26 28 34 40 44 44 43 43 43 41 40 37 35 32 32 34 38 48 50 51 55 56 59 62 64 64 65 66 67 68 68 69 71 72 73 74 75 76 76 76
38 31 27 25 25 29 35 40 43 43 44 44 43 41 39 37 35 36 37 39 47 50 52 55 55 58 60 61 63 64 64 63 64 66 68 69 71 72 74 76 77 76 76
41 32 26 23 23 25 30 36 40 43 45 46 46 44 43 41 41 41 39 41 46 50 52 55 55 54 54 55 57 58 59 59 59 60 63 65 67 68 71 73 74 75 76
40 30 24 21 21 23 27 33 38 42 45 47 48 48 47 46 46 45 43 42 43 46 50 51 52 51 50 50 50 52 52 52 52 53 55 57 58 60 61 64 66 68 69

GEFSMA_500_meanwind_018.txt.gz
Wind_Speed
86 82 79 77 75 74 74 74 74 72 71 69 67 66 64 64 65 66 66 64 62 60 58 56 53 51 50 48 46 45 44 42 40 38 36 36 35 34 34 35 36 37 36
87 85 82 79 77 76 76 76 76 76 75 73 72 70 68 66 65 65 67 67 66 64 62 60 57 55 54 51 49 48 47 45 43 40 38 38 38 36 35 34 34 36 37
75 74 73 72 71 72 73 76 78 79 78 77 76 74 72 71 69 66 66 67 66 66 66 63 60 58 57 55 53 51 50 48 45 43 41 41 41 40 38 36 35 34 34
60 60 59 60 62 64 67 71 76 80 81 81 80 78 77 75 73 70 68 66 65 64 66 66 64 61 59 58 56 54 52 50 48 46 44 44 45 44 40 38 37 35 34
56 55 54 54 55 57 60 64 71 77 82 84 84 83 81 79 77 75 72 69 66 64 64 67 66 64 62 60 58 57 54 51 49 48 48 45 47 46 43 40 38 37 36
59 58 56 54 54 54 56 58 63 71 80 86 87 86 84 83 81 79 76 73 69 66 64 64 67 66 64 62 61 59 56 53 51 50 49 48 45 47 45 42 40 38 36
62 61 60 57 55 55 54 55 56 61 72 83 88 89 87 86 84 82 81 77 73 70 67 64 65 66 66 65 63 61 59 56 53 52 50 49 46 46 48 45 43 40 38
59 60 60 59 58 56 55 55 54 54 60 72 84 90 90 89 88 85 83 81 78 74 70 67 65 66 67 66 65 63 61 58 56 54 53 50 47 45 49 48 46 43 41
51 52 53 55 56 57 56 55 54 53 53 58 71 85 92 92 90 88 86 84 82 79 75 71 68 67 68 68 66 65 63 61 59 56 55 53 49 45 49 51 49 47 44
49 48 47 48 51 54 55 55 55 53 52 52 58 72 86 94 94 90 88 86 84 82 79 77 73 69 69 69 68 67 65 63 61 59 57 55 52 47 46 51 52 50 48
48 47 46 45 45 48 51 54 54 54 52 51 52 59 74 89 95 94 90 87 85 82 80 79 78 74 71 70 70 69 67 65 63 62 60 58 54 51 47 48 54 54 51
46 45 44 43 42 43 46 50 52 53 52 50 50 52 61 78 92 96 93 89 87 84 81 79 78 77 74 71 72 71 69 67 66 64 62 60 57 53 51 48 49 54 54
44 42 41 40 40 40 42 45 49 51 51 49 48 48 53 65 83 95 96 92 89 86 83 81 79 78 76 74 72 73 72 69 68 67 64 61 59 55 52 51 49 50 52
44 42 40 38 37 37 39 42 46 49 49 48 46 45 47 54 70 87 95 95 92 89 86 82 80 78 76 76 74 73 73 71 70 68 66 63 60 57 55 53 51 49 48
45 44 41 37 35 35 36 38 42 46 47 46 43 42 43 46 57 74 89 96 95 92 89 85 82 79 75 74 75 74 73 72 71 70 68 65 62 60 58 56 54 51 49
46 44 42 39 35 33 33 35 39 42 44 43 41 40 40 40 46 59 77 90 95 94 91 88 85 83 78 73 72 73 72 71 71 71 69 67 64 62 60 59 56 54 52
47 45 42 40 36 33 32 33 36 39 41 41 39 38 37 37 39 47 61 79 91 94 93 89 87 85 82 77 72 69 68 69 70 70 70 69 67 65 63 62 60 58 56
49 47 45 41 37 33 31 31 33 36 39 39 38 37 35 34 35 39 48 64 79 90 92 91 88 86 84 81 76 72 68 67 68 68 68 68 67 65 64 64 63 61 59
53 50 47 42 37 33 30 30 30 33 36 37 37 36 35 34 34 36 41 52 65 78 87 89 88 87 85 83 80 76 73 69 68 67 66 66 66 65 64 64 63 61 60
57 53 48 43 37 33 29 28 28 30 34 37 37 37 36 34 34 35 38 44 53 64 75 83 85 85 85 84 82 78 75 72 69 68 66 65 64 64 64 63 63 62 61
60 54 47 40 34 29 27 26 27 27 33 36 37 37 37 36 35 35 36 39 44 52 62 71 77 80 82 82 81 78 76 73 71 68 66 66 64 63 63 63 63 63 62
58 49 39 29 24 22 22 23 24 26 32 36 37 38 38 37 36 35 35 36 39 44 51 59 65 71 76 78 79 77 76 74 72 70 67 66 64 63 61 61 61 61 63
54 40 27 17 13 14 18 20 22 24 30 36 38 38 38 38 37 36 35 36 37 40 44 50 56 62 67 73 74 74 74 73 71 70 67 65 64 63 62 61 60 60 61
50 34 21 9 4 9 13 16 20 23 28 35 39 39 39 39 38 36 36 36 36 37 39 43 47 52 57 62 66 69 69 69 68 68 67 65 65 63 62 62 62 61 60
47 33 19 9 1 5 9 12 16 20 26 33 38 40 40 39 39 37 37 36 36 35 37 38 41 45 50 54 58 62 64 63 63 64 64 64 64 64 63 62 62 62 61
48 34 21 11 3 2 6 9 13 17 23 30 36 40 41 41 40 39 37 36 34 34 34 34 36 39 45 50 55 59 61 60 60 61 62 63 64 64 64 64 64 64 64

GEFSMA_500_meanwind_024.txt.gz
Wind_Speed
95 93 92 90 90 90 89 87 87 85 84 82 81 80 80 78 76 74 71 69 69 69 67 65 63 63 62 60 58 57 55 53 50 47 45 43 41 40 39 38 37 37 38
82 80 79 79 79 80 81 81 82 82 82 83 83 84 84 83 81 78 76 73 71 71 71 69 67 65 63 62 60 59 58 55 54 51 48 46 44 42 40 40 39 38 39
71 69 68 68 69 70 71 73 75 77 78 80 82 85 86 86 85 83 80 78 75 73 73 73 71 69 66 64 62 60 58 57 56 54 51 49 47 44 42 41 40 40 39
69 68 66 64 64 64 66 67 69 71 73 77 80 84 86 88 89 87 85 83 80 77 76 75 75 74 71 68 65 63 60 57 56 54 52 51 49 47 44 42 41 40 40
67 65 63 62 61 61 62 64 67 68 70 72 76 81 85 89 91 92 90 87 84 81 79 78 78 78 76 73 69 66 64 60 56 55 52 50 50 49 47 44 42 41 41
62 60 59 58 57 57 59 61 63 66 69 70 72 76 82 88 92 94 94 92 89 86 82 79 79 79 79 77 73 70 68 65 60 57 54 51 49 49 48 47 45 43 42
57 55 54 52 52 52 54 56 59 63 67 69 70 71 76 83 89 94 96 95 93 90 86 82 80 80 79 79 77 75 73 70 65 60 58 54 52 50 49 47 47 45 43
52 50 48 47 47 47 49 52 55 57 62 67 70 70 71 76 83 89 95 98 96 94 90 85 82 81 79 78 78 77 76 75 71 66 61 59 55 54 51 49 48 46 44
50 49 48 46 44 44 44 46 49 52 56 62 68 71 71 72 76 82 90 96 98 97 94 90 85 84 81 77 77 77 78 78 75 71 65 62 59 55 54 52 49 46 42
51 50 49 48 46 44 42 42 43 47 51 56 63 69 72 71 72 76 83 91 97 99 97 93 89 85 82 78 77 76 78 80 79 75 70 66 62 59 56 54 50 46 43
54 53 52 50 49 46 43 41 41 42 46 51 57 64 71 72 72 72 76 84 93 98 100 97 93 87 83 81 76 73 74 78 80 78 74 69 65 62 59 55 51 46 42
56 56 54 52 51 48 45 42 40 40 41 46 52 58 66 72 73 71 71 76 86 94 100 100 98 93 89 85 81 75 71 73 78 79 77 72 68 64 61 58 54 49 45
58 58 56 54 51 48 45 42 40 39 39 41 47 53 60 68 73 71 69 71 78 88 97 101 100 99 95 88 84 79 73 71 74 77 78 74 70 66 62 60 56 52 48
62 61 59 56 52 49 45 42 40 38 37 38 42 48 54 63 70 72 70 69 71 78 90 98 102 101 99 92 85 81 77 71 72 75 78 76 72 67 63 60 57 54 52
67 65 62 57 53 49 46 42 39 37 35 35 38 43 49 56 65 71 71 69 68 71 81 92 100 102 101 96 89 84 80 74 72 74 76 76 73 69 65 61 59 56 54
71 68 62 56 50 47 44 41 38 35 33 33 34 39 45 51 59 67 70 68 66 67 73 84 95 101 101 98 93 87 83 79 74 73 74 75 74 71 67 64 61 57 54
72 66 58 49 41 38 37 37 36 34 31 30 31 35 40 46 53 62 67 67 65 63 66 74 86 96 100 96 93 90 87 82 78 75 74 74 74 72 69 67 64 61 58
70 60 49 37 27 22 24 28 30 30 29 28 29 32 36 41 48 56 62 64 63 61 61 66 76 86 94 93 90 90 89 85 81 77 75 74 73 72 70 68 66 64 62
64 52 40 29 19 9 7 16 21 24 25 26 27 29 33 38 43 50 56 59 60 58 57 61 68 78 86 90 88 88 89 86 84 80 76 74 73 72 70 69 67 66 64
59 46 35 27 20 13 6 3 12 17 21 23 25 27 31 35 40 45 51 54 55 55 54 57 64 72 79 84 85 86 87 87 85 82 79 76 73 72 70 69 67 66 65
56 41 31 26 21 17 12 4 3 11 17 20 23 26 30 33 37 42 46 48 50 50 50 53 60 69 77 80 81 82 84 85 85 84 82 79 74 71 69 69 68 67 65
56 41 28 21 17 15 11 6 2 7 13 18 22 26 29 32 35 38 41 43 44 44 44 48 55 67 78 82 81 82 82 83 84 83 82 80 76 73 70 68 68 67 66
58 44 29 19 13 10 8 5 2 5 10 16 21 25 29 32 34 36 38 38 39 38 39 41 48 62 77 87 84 82 83 83 83 83 81 79 77 74 72 68 67 68 68
62 49 35 24 16 11 9 7 5 3 7 14 20 25 29 31 33 34 35 35 34 34 34 36 41 54 73 87 90 86 82 84 84 82 80 77 76 74 72 69 66 66 67
67 57 43 31 22 16 13 10 7 3 4 11 18 25 29 31 32 33 33 32 32 31 31 32 35 43 61 79 91 90 85 84 84 82 79 75 73 72 70 67 65 64 64
69 64 53 40 29 21 16 12 8 4 3 9 17 24 29 31 33 33 32 31 30 29 29 30 33 38 48 65 83 91 90 85 83 81 79 74 71 70 69 67 64 61 61

GEFSMA_500_meanwind_030.txt.gz
Wind_Speed
93 91 89 87 85 84 83 82 83 84 86 89 93 95 95 95 93 91 89 89 87 85 82 79 76 73 71 70 69 66 63 61 59 57 54 51 47 45 44 42 40 38 37
89 86 84 82 80 78 77 75 75 75 77 79 82 86 90 91 92 93 93 93 92 90 88 84 81 77 75 73 71 69 67 64 61 60 58 55 51 48 46 45 42 41 39
84 82 80 77 74 71 69 67 66 67 68 71 74 78 82 85 88 91 93 95 96 95 93 90 86 82 78 75 73 71 69 67 64 62 61 59 55 52 49 47 45 43 41
81 78 74 70 66 62 59 57 55 56 58 62 67 71 76 80 84 89 93 96 98 99 97 95 91 87 82 79 76 74 71 69 67 65 63 62 60 56 53 50 48 46 44
77 73 68 63 58 54 52 50 49 49 49 53 58 64 70 75 80 86 92 97 100 102 101 99 96 92 87 83 79 77 74 71 68 67 66 64 63 61 58 54 52 49 47
73 68 62 58 54 52 51 51 50 49 48 48 50 54 62 70 77 83 90 97 102 105 104 103 100 96 92 87 83 80 77 73 70 68 67 66 65 64 62 58 56 54 51
69 64 60 57 56 55 55 55 54 52 51 50 48 48 52 62 72 79 86 95 102 106 107 106 104 100 96 91 87 83 79 76 72 68 67 67 66 65 63 62 60 58 56
65 62 60 60 60 60 60 60 60 57 54 53 51 48 48 53 64 74 82 90 98 105 108 109 107 104 100 95 91 87 83 79 75 70 67 66 66 65 64 64 63 61 60
64 63 63 64 65 66 66 66 65 62 58 56 55 51 48 49 55 66 77 85 93 100 106 110 109 107 103 99 95 91 87 83 79 73 69 66 65 65 64 63 63 62 62
65 66 67 69 70 71 71 70 68 66 62 58 56 54 51 48 51 58 69 79 87 93 101 107 109 109 106 102 98 94 91 87 84 80 72 67 67 65 63 62 61 63 64
67 69 71 73 73 72 71 69 67 65 63 59 56 53 52 49 48 53 61 72 81 88 93 101 107 109 108 105 102 97 94 91 87 84 80 71 68 67 65 62 60 58 61
69 72 73 72 68 64 61 60 59 58 58 56 53 51 50 49 49 49 55 64 75 82 87 93 101 106 108 107 104 101 96 93 91 87 84 80 72 67 65 62 57 57 57
73 75 72 67 60 54 47 43 42 45 47 48 48 48 47 47 47 47 51 58 69 77 83 86 91 100 107 108 106 103 99 96 93 90 87 86 80 72 65 62 57 55 56
77 75 69 63 56 48 40 32 27 28 32 37 40 42 43 43 44 45 48 54 63 72 79 82 85 92 102 107 106 103 101 97 94 91 88 88 85 79 70 65 60 56 53
78 72 65 58 50 45 37 28 18 13 18 26 32 35 37 39 40 42 44 49 58 67 75 79 81 85 94 103 105 103 101 99 96 93 89 86 85 82 77 70 67 60 51
77 69 61 54 47 42 36 28 18 6 7 16 23 28 32 34 35 37 40 45 53 63 70 76 77 79 86 97 103 103 101 99 97 94 89 85 83 82 80 77 70 65 57
75 67 59 51 44 39 34 29 21 10 1 8 16 22 26 28 30 33 36 41 48 58 65 72 75 76 80 89 99 102 100 97 96 93 89 85 81 79 79 79 74 68 62
75 67 57 49 41 35 31 26 20 13 4 3 10 16 20 23 25 28 32 37 44 53 61 67 72 73 75 82 92 100 101 97 95 92 88 84 81 78 78 78 75 71 66
74 68 57 48 40 34 29 24 19 12 6 2 7 12 16 19 21 24 28 33 40 49 57 63 68 70 71 76 86 96 101 98 95 91 88 85 81 78 76 75 74 73 69
73 70 60 49 40 34 29 24 19 12 6 3 6 10 14 16 18 21 24 30 37 45 53 60 65 67 68 70 79 90 99 101 96 89 86 84 81 78 76 74 73 72 70
72 71 65 54 43 35 30 24 19 13 7 5 7 9 12 14 16 18 22 27 34 41 49 57 62 64 64 66 72 84 94 99 97 90 85 83 79 76 74 72 71 71 70
70 71 68 60 49 38 31 26 20 15 9 6 7 9 11 12 14 17 20 25 32 39 46 54 59 61 61 62 65 74 87 96 95 91 86 81 77 75 73 70 69 69 70
68 69 69 65 56 45 35 28 21 16 11 6 5 7 10 12 15 17 21 25 30 36 43 50 56 58 57 57 59 66 77 89 94 90 86 79 76 73 73 70 68 67 67
66 67 68 67 62 53 41 31 25 19 13 7 3 5 9 12 15 18 21 25 29 34 40 46 52 54 54 53 55 60 69 79 88 90 88 81 73 70 70 70 69 67 66
64 65 66 66 64 59 49 37 29 23 16 9 4 3 8 12 16 19 22 25 28 32 38 44 48 51 51 50 51 55 62 71 79 84 85 81 74 69 69 69 69 68 66
62 63 64 65 65 63 56 45 34 27 20 13 6 1 7 12 16 20 22 25 28 32 36 41 46 49 49 48 48 50 57 64 70 76 80 79 76 72 71 70 69 68 67

GEFSMA_500_meanwind_036.txt.gz
Wind_Speed
99 102 102 101 100 97 95 93 91 89 88 88 88 89 91 93 96 99 101 103 104 104 102 99 97 95 92 88 84 80 78 75 72 68 65 62 59 56 54 52 50 49 47
100 100 98 95 92 89 87 86 85 84 83 83 83 83 84 86 89 93 98 101 105 106 106 104 102 100 98 94 90 85 82 79 76 72 69 66 63 60 57 54 52 50 49
97 94 90 87 85 84 83 82 81 80 78 77 77 77 78 79 82 85 90 96 101 106 108 108 107 105 103 100 96 91 86 83 80 77 73 70 67 64 61 57 54 52 50
90 87 84 82 82 81 80 78 75 73 71 70 69 69 70 72 74 78 83 89 95 101 106 109 110 109 107 105 101 97 92 87 83 80 77 73 71 68 65 61 57 55 52
84 81 80 80 80 77 75 73 72 70 69 67 66 65 65 66 67 70 75 82 89 96 102 108 111 112 111 109 107 102 97 92 87 84 81 77 74 71 68 65 61 58 55
80 78 79 78 76 74 74 74 75 74 73 71 68 66 64 64 64 66 69 74 82 90 98 104 109 112 114 114 111 107 102 96 91 87 84 81 77 74 71 69 65 61 58
77 77 76 75 73 75 77 78 76 74 73 73 72 70 67 65 66 66 65 67 74 83 92 100 106 112 115 116 115 112 107 101 96 91 87 84 81 77 74 72 68 65 61
76 75 74 73 75 78 76 71 68 65 63 65 68 70 70 69 71 68 66 66 68 75 84 95 103 110 115 117 118 116 112 106 100 95 91 87 84 80 77 74 72 68 65
75 74 74 74 77 77 71 65 61 58 55 53 57 62 67 72 72 68 68 67 66 68 75 86 98 107 114 118 119 118 115 111 105 99 94 90 87 83 79 75 73 72 68
73 73 73 75 77 73 66 61 58 54 49 43 42 48 57 66 72 70 69 68 66 64 67 76 90 102 111 117 120 119 118 114 109 103 98 93 89 86 82 77 74 73 71
72 72 73 75 74 68 61 57 53 48 43 36 30 32 41 52 64 69 68 68 66 64 63 68 79 94 106 114 119 120 119 117 112 107 102 96 92 88 84 79 74 72 71
70 71 72 73 70 63 57 52 48 44 39 32 23 19 25 37 51 62 65 65 65 64 62 62 70 84 99 109 116 119 119 117 114 110 105 99 94 90 87 83 77 73 70
68 69 71 71 67 60 52 47 42 39 35 30 22 13 12 23 37 50 58 61 62 62 61 60 64 75 90 102 111 116 118 117 115 112 107 102 97 92 88 85 80 76 71
68 68 70 70 65 57 48 42 36 33 30 26 21 13 6 13 25 38 48 54 57 59 59 59 61 68 81 95 104 111 116 117 116 113 109 104 99 94 89 86 82 77 73
67 68 70 70 65 55 46 39 32 28 24 21 17 13 7 6 16 27 38 46 52 55 56 57 58 63 74 87 97 105 112 115 115 114 111 106 102 96 91 87 82 78 75
66 67 69 69 66 56 45 37 30 25 21 17 13 10 6 5 11 20 29 38 45 50 52 55 56 59 67 79 89 98 106 112 114 113 111 108 104 99 93 88 83 79 75
65 66 68 69 67 58 47 37 30 25 20 16 12 9 6 5 9 16 23 31 38 44 47 50 53 55 62 72 83 91 100 108 113 113 111 109 106 101 95 90 85 80 75
65 66 67 68 68 60 49 39 32 26 21 16 12 9 7 6 9 13 18 25 31 38 42 45 50 52 57 66 76 85 94 103 110 112 112 110 107 103 98 92 86 82 77
64 65 66 67 68 63 53 43 35 28 22 17 13 10 8 8 9 12 15 20 26 32 37 41 46 49 53 61 70 79 88 98 106 111 111 110 108 105 100 95 89 84 80
63 63 65 66 67 65 57 47 39 31 24 18 13 10 8 7 8 10 13 17 21 26 32 37 42 46 50 58 66 75 83 93 102 108 110 110 108 106 103 99 93 87 80
62 63 64 65 66 66 61 52 42 34 26 19 14 9 7 7 7 9 11 14 18 22 28 33 37 42 48 55 63 71 79 88 97 104 108 109 108 106 104 101 95 90 84
61 62 63 63 65 65 62 55 46 37 28 21 15 10 5 5 6 8 10 12 15 19 24 29 34 40 46 53 60 67 75 83 91 101 105 107 107 106 104 102 98 93 85
60 60 61 62 63 63 62 57 49 40 31 23 16 10 4 3 4 6 9 11 14 17 21 26 31 38 44 51 58 64 72 79 87 96 102 105 105 103 102 100 99 94 88
60 59 59 60 61 62 62 58 51 43 33 25 18 12 6 1 3 5 7 10 13 16 19 24 29 36 43 49 56 62 68 74 82 90 96 100 101 99 99 97 96 92 87
59 58 58 59 59 60 61 58 53 45 37 28 20 13 8 5 4 5 7 9 11 14 18 23 28 35 42 49 54 59 64 70 77 85 91 94 95 93 93 93 90 88 86
58 58 58 57 57 58 58 58 54 47 39 30 22 15 10 7 6 7 7 9 10 12 17 22 27 34 41 48 52 56 60 66 73 80 87 89 89 88 86 86 85 84 82

GEFSMA_500_meanwind_042.txt.gz
Wind_Speed
78 83 89 95 101 106 108 106 102 97 93 90 89 89 89 91 94 98 103 106 109 110 109 107 104 100 98 95 92 88 85 82 79 75 72 68 66 63 60 57 55 53 53
82 88 94 100 103 103 99 93 88 85 83 82 82 83 84 85 86 88 92 96 101 105 108 109 108 106 104 101 98 95 91 88 85 81 77 73 70 67 64 61 58 56 54
86 93 98 100 99 93 87 84 81 80 80 81 81 82 83 84 85 86 87 90 93 98 103 106 109 109 108 107 104 101 97 94 90 87 83 79 75 71 68 65 62 59 56
90 96 98 96 91 85 82 80 79 79 79 80 81 82 82 83 84 85 86 87 90 92 96 101 106 108 110 110 109 106 103 100 96 92 88 84 80 76 72 69 66 62 59
93 96 95 90 84 81 78 77 77 77 78 79 78 75 72 72 74 78 82 85 87 90 93 96 102 107 110 111 112 111 109 106 102 98 94 89 85 80 77 73 70 66 63
94 94 90 84 80 77 76 75 74 75 77 76 71 66 63 63 65 67 72 78 84 87 90 94 99 105 109 113 114 114 113 111 107 103 99 95 90 85 81 78 74 71 67
93 90 85 80 77 75 74 73 74 75 73 70 66 60 56 56 58 59 62 67 74 82 88 92 97 102 107 112 116 117 116 115 112 108 104 100 95 91 86 82 78 75 71
90 86 81 77 75 73 72 72 74 74 69 65 62 59 55 49 47 48 51 57 64 74 83 90 94 99 104 110 115 118 119 118 116 113 109 105 101 95 90 86 82 79 75
87 83 78 75 73 71 71 72 74 72 66 59 57 56 55 50 41 36 37 44 55 66 76 85 90 94 100 106 113 118 121 122 121 118 114 110 106 100 95 90 86 83 79
84 80 75 73 72 71 71 72 73 69 64 57 51 49 48 46 41 31 25 30 42 57 70 79 85 90 94 101 108 115 121 124 124 122 119 115 110 105 100 95 90 86 82
81 77 73 72 71 70 70 71 71 66 60 55 49 44 40 37 35 30 21 19 30 46 62 71 78 83 87 93 101 110 118 124 126 125 123 119 115 110 104 99 94 90 86
78 74 72 71 70 70 70 70 70 65 58 51 46 42 38 34 30 26 20 16 21 35 51 63 71 77 80 85 93 101 111 120 125 127 125 122 119 114 109 103 98 93 89
76 72 70 70 69 69 69 69 69 63 57 50 44 39 34 31 27 23 19 15 17 27 42 55 65 73 76 79 84 92 102 112 120 125 126 125 122 117 112 107 101 96 92
75 71 69 69 69 69 68 69 68 62 56 48 42 37 32 28 25 22 19 15 15 22 34 47 59 69 73 74 77 83 91 101 112 120 125 126 124 120 115 110 105 100 95
74 70 69 68 68 68 68 68 67 62 55 48 41 35 31 26 23 21 18 15 14 19 29 42 54 63 68 69 70 74 81 91 102 113 121 124 124 121 118 113 108 103 98
73 70 68 68 68 68 67 68 67 61 54 47 41 35 30 25 22 20 18 16 15 17 26 37 48 58 63 64 65 66 71 80 92 104 114 121 123 122 119 115 111 106 100
73 69 68 67 67 67 67 67 66 60 53 47 41 35 29 24 20 18 16 15 15 16 22 33 43 53 59 60 60 60 62 69 81 94 107 116 121 122 120 117 113 108 103
72 69 67 67 66 66 66 66 64 59 53 47 40 35 28 23 19 17 15 13 13 14 18 27 37 47 54 57 57 57 58 62 72 85 99 110 118 121 120 118 115 111 106
71 68 67 66 65 65 65 65 64 58 52 47 40 34 28 23 18 15 13 12 11 12 15 23 32 42 49 53 54 54 54 57 64 77 92 104 114 119 119 118 116 113 108
70 67 66 65 65 64 64 64 63 57 52 47 41 34 28 23 18 15 12 11 9 10 13 19 27 36 43 49 50 51 51 53 59 70 84 98 108 116 118 117 115 113 109
70 66 65 64 64 63 63 62 62 58 52 47 41 34 28 23 18 15 12 10 9 8 11 15 23 30 38 44 47 48 49 50 54 64 78 92 103 112 116 116 115 113 110
69 65 64 63 63 62 62 61 62 58 52 47 41 35 29 23 20 16 13 11 9 6 8 12 18 25 32 39 43 45 45 47 50 59 72 86 98 108 113 114 114 112 110
69 65 63 62 62 61 60 60 60 57 51 45 40 34 29 25 21 18 15 12 9 6 6 9 15 22 28 34 39 41 43 43 47 55 67 79 93 103 110 112 112 111 109
69 65 62 61 60 60 59 58 58 56 50 44 39 34 29 25 22 19 16 14 11 8 5 6 12 18 25 30 35 38 40 42 46 54 64 74 88 97 106 109 110 110 108
69 65 62 60 59 59 58 56 56 55 50 44 38 34 29 25 22 20 18 15 13 10 6 4 8 14 21 27 32 36 38 41 46 53 62 71 82 93 101 104 107 108 107
69 65 61 59 58 57 57 55 54 54 50 44 38 33 29 25 22 20 19 17 15 12 8 4 4 10 17 23 29 33 36 40 47 53 61 69 78 89 96 100 102 105 105

GEFSMA_500_meanwind_048.txt.gz
Wind_Speed
54 57 59 63 66 70 74 79 85 91 96 101 104 103 101 98 95 92 89 88 87 89 93 101 112 120 122 120 115 109 105 102 99 95 91 87 83 79 76 73 68 64 60
54 57 60 64 67 71 76 82 88 94 98 99 98 95 92 90 87 86 86 85 86 87 88 91 98 108 118 124 123 118 113 109 105 101 97 93 89 85 81 77 74 69 64
55 58 61 65 69 74 79 85 91 94 95 94 91 88 84 83 82 83 83 83 83 84 87 90 94 99 107 116 123 124 120 115 111 107 103 99 95 90 86 82 78 74 69
56 59 63 67 71 76 82 88 92 93 91 88 85 81 78 78 79 79 77 76 74 75 79 85 92 96 100 107 115 121 123 121 117 113 109 105 100 96 91 87 83 79 74
58 61 64 68 73 79 85 89 91 90 87 84 80 76 75 75 75 74 72 69 67 66 67 73 82 92 98 102 107 114 120 122 121 118 114 110 106 101 97 92 88 83 79
60 62 66 70 75 81 86 89 88 86 83 80 77 74 73 72 71 68 66 64 62 61 61 64 70 80 91 100 104 108 115 120 123 122 119 115 111 107 102 97 93 88 84
62 64 68 72 78 83 86 87 86 83 79 78 76 73 70 68 65 63 61 59 58 57 57 59 62 71 81 93 101 106 111 117 122 124 122 119 115 111 107 103 98 93 88
64 66 70 74 79 84 86 85 83 80 77 76 76 75 70 62 57 56 55 54 54 53 52 52 56 63 72 83 95 103 108 114 120 124 125 122 119 115 111 107 102 97 92
67 69 72 76 81 84 84 83 80 78 75 73 74 75 72 65 57 49 47 48 48 47 46 44 46 53 65 76 87 98 106 112 118 123 126 125 123 119 115 111 107 102 96
69 70 74 77 81 83 83 80 78 76 75 73 71 71 69 66 61 51 42 41 42 42 40 39 37 43 55 70 81 92 103 110 117 122 126 127 126 123 119 115 111 106 100
71 72 75 78 81 82 80 78 75 74 74 73 71 68 64 61 58 55 46 37 34 36 36 35 33 33 43 60 76 87 98 108 116 122 126 128 128 126 122 118 114 109 104
73 74 76 78 80 80 78 75 73 72 72 72 70 67 63 58 54 51 46 38 31 29 31 31 30 28 33 48 66 82 94 105 114 121 127 129 130 129 125 122 117 113 108
74 75 76 78 79 78 76 74 71 71 70 70 68 65 61 57 53 50 45 38 31 27 27 28 28 27 29 38 55 73 89 101 110 119 126 130 131 131 128 124 120 116 111
74 75 76 78 78 77 75 72 70 69 69 69 66 63 59 54 51 48 44 39 32 25 24 25 27 27 27 33 45 63 81 95 106 115 123 129 132 132 130 126 122 118 114
75 75 76 77 77 75 73 70 69 68 68 67 64 60 57 52 48 46 43 40 35 27 20 23 25 26 27 30 40 54 72 87 99 109 118 126 131 133 131 128 124 120 115
75 76 76 76 76 74 72 69 67 66 66 65 62 58 54 51 47 44 41 38 35 30 22 20 23 24 26 28 35 46 62 78 91 102 111 120 127 131 132 130 126 121 117
75 75 75 75 75 73 71 68 66 65 64 63 60 56 52 48 45 43 40 36 34 31 25 19 21 22 23 25 31 40 54 68 82 94 103 113 122 128 131 131 128 123 119
75 75 75 75 74 72 70 67 65 64 63 61 58 54 50 46 44 41 38 35 33 31 27 21 20 20 19 21 27 36 47 60 72 84 95 104 115 124 129 130 129 125 121
75 75 75 74 73 71 69 66 64 62 61 60 56 52 48 45 42 40 37 35 32 30 27 23 19 18 17 17 22 31 41 53 63 75 86 96 105 116 125 129 129 127 123
74 74 74 73 72 70 68 65 63 61 60 58 55 51 47 43 41 38 36 33 31 29 26 23 19 17 15 15 19 27 37 47 57 66 76 87 96 107 118 126 128 126 123
73 73 73 72 71 69 67 64 61 60 59 57 54 50 46 42 40 37 35 33 30 28 25 22 19 17 14 13 18 25 34 43 51 59 68 78 87 98 110 120 126 127 125
72 73 72 71 70 68 65 63 61 60 58 56 53 49 45 41 38 36 35 33 31 28 25 22 19 16 13 12 16 24 32 40 46 54 61 69 79 88 100 113 121 125 125
71 71 71 70 69 67 64 61 59 58 57 55 52 48 44 40 36 34 33 32 31 28 25 22 18 15 12 11 16 24 31 38 44 50 55 61 70 79 91 104 115 122 124
70 70 69 68 67 66 63 60 58 57 56 54 52 48 44 40 36 33 31 30 29 27 25 22 18 13 11 11 15 23 31 36 41 46 50 54 63 72 83 95 107 117 123
68 68 68 66 65 64 62 59 57 55 54 53 51 48 45 40 36 32 30 29 28 26 25 22 18 13 10 10 15 22 30 36 39 43 46 50 56 65 76 87 99 111 118
66 66 66 65 63 62 61 59 57 54 53 51 50 48 45 41 36 32 29 27 26 25 24 22 17 12 9 9 13 21 29 35 38 40 43 47 52 59 68 80 91 104 113

GEFSMA_500_meanwind_054.txt.gz
Wind_Speed
38 39 40 42 43 45 47 49 50 52 53 56 58 60 63 67 70 74 79 84 89 95 99 101 103 105 106 108 109 112 114 115 115 114 113 110 106 103 99 95 91 87 82
40 42 43 44 45 47 49 51 53 54 56 57 60 63 66 70 74 78 83 88 94 98 100 102 102 100 99 99 99 101 104 108 113 117 118 118 115 110 106 103 98 93 88
42 44 45 46 47 49 51 54 55 57 58 60 62 65 69 73 78 82 87 92 96 98 100 100 99 96 92 90 90 92 95 99 105 112 119 122 122 118 113 109 104 99 94
43 45 46 48 49 51 53 56 58 60 61 62 65 68 71 76 81 85 89 93 95 97 97 96 93 89 85 83 82 84 88 93 98 105 113 121 126 125 120 115 111 106 100
45 47 48 49 51 53 55 58 60 62 64 65 67 70 74 78 83 87 90 92 94 94 93 91 87 83 79 76 75 76 80 85 91 98 106 115 124 128 127 122 117 112 106
47 48 50 51 53 55 57 60 62 64 66 68 69 72 76 80 84 87 89 90 91 90 89 86 81 76 72 70 68 69 72 78 84 92 100 109 118 126 130 127 123 118 112
49 50 51 53 55 57 59 61 64 66 69 70 72 74 76 80 83 84 85 86 86 85 83 81 76 71 67 64 62 62 66 71 78 85 94 103 113 121 128 130 127 123 117
51 52 53 55 56 58 61 63 66 68 71 73 75 77 78 79 81 82 82 82 82 80 79 76 72 68 64 60 57 57 59 64 71 79 88 97 107 116 124 130 130 126 122
53 54 55 56 58 60 63 65 67 70 72 75 78 80 82 82 83 80 77 77 76 74 74 71 68 65 61 56 52 50 51 56 63 71 81 91 101 111 119 126 130 129 125
55 56 57 58 60 62 65 67 70 72 74 77 79 82 83 85 86 83 76 72 71 69 68 67 65 61 57 52 48 45 44 48 56 64 74 85 96 106 114 121 127 129 127
57 57 58 60 62 64 66 69 72 74 76 78 80 81 82 83 84 84 78 70 65 64 63 63 62 59 54 49 45 41 39 41 48 58 68 79 90 102 110 117 124 128 129
58 59 60 62 64 66 68 71 73 75 77 79 80 81 81 81 81 81 79 72 65 59 58 58 58 57 53 47 43 38 34 34 40 51 63 74 85 96 107 114 121 127 129
59 60 62 63 65 67 70 72 74 76 78 79 79 79 79 79 79 78 77 72 65 58 54 53 54 55 52 47 42 37 33 31 35 44 56 70 81 91 103 112 119 125 129
61 62 63 64 66 68 71 73 75 77 78 79 78 78 77 77 76 75 75 72 66 58 52 50 51 52 51 47 42 37 32 30 33 40 51 65 77 87 98 108 116 123 128
62 64 65 66 67 70 72 74 75 77 78 78 77 76 75 75 73 73 71 69 67 62 52 48 48 49 49 46 42 38 32 29 31 38 48 61 74 84 94 104 113 121 127
64 65 67 68 69 71 73 74 75 75 77 77 76 74 73 73 71 70 68 66 64 61 54 48 47 47 47 44 41 39 33 30 29 35 45 59 71 82 91 100 110 119 125
65 66 67 69 69 71 73 74 74 74 75 75 74 73 71 71 69 68 66 63 61 59 55 48 46 46 45 43 41 39 35 30 28 32 43 57 70 80 90 99 108 117 123
67 68 68 69 70 70 72 73 73 73 74 73 72 71 69 69 67 66 64 61 59 56 54 49 45 45 44 42 40 38 35 31 28 30 40 55 69 80 89 97 106 115 122
67 68 69 69 69 69 71 72 72 72 72 72 71 69 68 67 66 64 62 60 57 55 52 49 45 44 43 41 39 37 35 31 28 29 37 51 67 79 88 96 105 114 121
68 68 68 68 68 68 69 70 71 70 71 70 69 68 66 65 64 62 61 58 56 53 50 47 45 43 42 40 38 36 33 31 27 27 34 47 64 78 88 96 104 112 120
67 67 67 67 66 66 68 68 68 68 69 68 67 66 64 64 63 61 60 58 56 53 49 46 44 43 42 40 38 35 32 29 26 26 31 43 59 74 86 95 103 110 118
66 65 65 64 64 64 66 66 66 66 66 67 65 64 62 62 61 59 58 57 55 53 49 46 44 43 41 40 38 34 31 27 24 23 27 37 53 68 82 92 101 108 115
63 62 62 62 61 62 64 64 65 64 65 65 64 62 60 60 60 58 56 55 53 51 48 45 43 42 41 39 36 33 30 26 22 21 22 31 47 61 75 88 97 105 113
60 60 60 59 59 60 62 62 62 62 63 63 62 61 59 58 58 56 54 53 52 49 46 44 42 41 39 37 34 31 27 23 20 18 19 26 39 53 68 82 92 100 109
58 58 57 56 57 58 60 60 60 60 60 60 60 59 58 57 56 55 54 52 50 46 43 42 41 40 38 35 32 29 25 21 17 15 17 23 34 47 60 74 86 94 104
56 56 54 54 56 57 58 59 58 58 58 58 58 57 56 55 54 53 53 51 48 44 40 38 37 37 35 32 30 26 22 18 14 13 16 23 32 42 53 66 79 89 98

GEFSMA_500_meanwind_060.txt.gz
Wind_Speed
28 30 31 33 35 36 37 38 39 40 41 42 43 44 45 45 46 47 48 49 50 52 53 54 56 58 60 62 64 66 68 70 73 75 77 80 82 84 86 87 87 87 87
31 32 34 36 37 38 39 40 41 42 43 44 45 46 47 48 49 50 51 52 54 55 57 58 59 61 62 64 66 69 71 73 75 78 80 83 86 88 90 92 94 94 94
35 36 37 39 40 41 42 43 44 45 45 46 47 48 49 51 52 53 54 56 57 59 60 62 63 65 66 67 69 72 74 77 79 82 85 87 90 93 95 97 100 101 102
38 39 40 41 43 44 46 47 47 48 48 48 49 50 51 53 54 56 58 59 61 62 64 65 66 68 69 70 72 74 77 80 83 86 89 92 95 97 100 102 104 107 109
40 41 43 44 45 47 49 50 51 51 51 51 51 52 54 55 56 58 60 62 64 65 66 68 68 70 71 73 75 77 80 83 87 90 93 96 98 100 102 104 107 110 114
43 44 46 47 48 50 52 53 53 53 53 53 53 54 55 57 59 60 62 64 66 67 68 69 70 71 73 74 77 79 82 86 89 92 95 97 98 99 101 103 106 110 115
46 47 48 49 51 52 54 55 55 55 56 56 56 56 57 58 60 62 63 65 67 68 69 71 72 73 74 76 78 81 84 87 89 92 94 95 96 96 97 98 101 106 112
49 49 51 52 53 55 57 57 57 57 57 58 58 58 59 60 60 61 64 66 68 69 71 72 73 75 76 78 79 82 85 87 89 91 91 91 90 90 90 91 93 98 105
52 53 53 55 55 57 58 59 59 59 59 59 59 60 61 62 63 63 64 67 69 70 72 73 75 77 79 80 81 83 85 86 86 86 85 83 82 80 80 81 84 88 96
55 55 56 57 58 58 60 60 60 60 60 60 60 61 63 64 65 65 66 68 69 71 72 74 76 78 81 82 83 84 84 84 82 80 77 75 72 70 69 70 73 78 86
58 58 59 60 60 60 61 62 62 62 61 61 62 63 64 66 67 67 66 68 70 71 73 75 77 79 81 82 83 83 82 79 76 73 70 67 64 62 61 61 64 69 77
59 60 62 62 62 61 62 63 63 63 62 62 63 65 66 67 68 68 68 68 69 70 73 75 78 80 81 82 82 81 78 74 70 67 64 61 58 57 55 56 59 64 70
60 61 63 63 62 62 63 64 65 64 64 64 65 66 67 68 69 70 70 69 68 68 71 75 78 80 80 81 80 78 74 69 65 62 59 57 54 52 51 51 54 59 65
61 62 62 63 64 64 65 65 65 65 65 65 66 67 68 69 69 70 70 70 69 67 70 73 76 78 79 79 78 75 70 65 61 58 56 54 51 49 47 46 49 54 61
63 63 63 63 65 65 66 66 66 66 66 66 66 67 68 69 70 70 70 71 70 68 69 70 73 75 77 76 74 72 67 62 57 54 53 51 49 46 42 42 46 50 56
63 64 64 65 66 66 66 67 67 66 66 65 65 66 68 69 70 70 70 70 70 70 70 70 72 72 73 73 71 69 65 59 55 52 51 49 47 43 40 40 43 48 54
64 65 65 66 66 66 66 67 66 65 64 64 65 66 68 69 69 69 69 69 70 71 72 70 70 70 70 69 67 65 61 57 53 52 50 48 46 42 38 40 43 48 52
64 65 66 66 65 65 65 66 65 64 64 64 65 66 67 68 68 68 69 68 69 70 72 72 69 68 67 66 64 61 58 55 52 51 50 48 45 41 37 39 42 47 52
63 64 65 65 64 64 64 64 64 63 63 63 64 65 66 68 67 68 67 67 68 69 71 71 69 67 65 63 61 58 55 52 51 50 49 47 44 40 37 38 42 48 54
62 63 63 62 63 63 62 62 61 61 61 62 62 64 66 67 66 66 66 66 67 68 69 69 68 66 63 62 60 56 53 50 49 49 48 45 42 39 36 37 41 51 57
60 60 60 61 61 61 60 59 59 60 60 60 61 64 65 66 65 65 65 64 65 66 67 67 66 64 62 61 58 55 52 49 47 48 47 44 42 38 35 36 40 51 59
57 57 58 58 58 57 56 57 57 58 58 59 61 63 64 64 64 64 63 63 64 65 65 65 64 62 61 59 56 53 52 49 46 46 47 43 40 36 33 34 40 51 60
54 54 54 55 54 54 55 55 56 56 56 57 59 60 61 61 62 62 61 61 61 62 63 63 62 60 60 58 55 51 50 48 46 45 45 40 38 34 30 31 40 50 62
52 53 53 53 53 53 54 55 55 55 56 57 58 59 59 59 60 60 59 59 59 59 59 60 60 58 57 55 52 50 48 45 43 43 43 38 34 31 27 29 38 50 63
52 53 53 53 53 52 53 53 54 55 56 56 57 58 58 58 58 58 57 57 57 56 56 57 57 56 55 53 50 48 46 44 41 40 39 36 31 27 23 26 36 50 62
53 54 54 53 53 53 53 54 54 55 55 55 56 56 57 56 56 56 56 56 55 54 54 54 53 53 52 50 47 46 44 41 39 36 34 32 28 24 20 24 34 49 61

GEFSMA_500_meanwind_066.txt.gz
Wind_Speed
27 28 29 30 31 32 33 34 35 35 36 37 37 38 38 39 39 40 41 42 43 44 46 47 48 49 49 50 50 51 51 52 53 54 55 56 57 58 59 61 62 64 66
31 32 33 34 35 36 37 37 38 39 39 40 41 42 42 43 43 43 44 44 45 46 47 48 49 50 51 51 52 53 53 54 55 56 57 58 59 60 61 63 64 66 67
35 36 36 38 39 39 40 41 42 42 43 44 44 45 46 47 47 47 47 47 48 48 49 50 51 52 52 53 54 55 55 56 57 58 59 60 61 62 63 65 66 68 69
39 40 40 41 42 43 44 45 45 46 47 47 48 49 50 50 51 51 51 51 51 51 51 52 52 53 54 54 55 56 57 58 59 60 61 62 63 64 65 67 68 69 71
43 43 44 45 45 46 47 48 49 50 50 51 51 52 53 53 54 54 54 54 54 54 54 54 54 54 55 56 56 57 58 59 61 62 63 64 65 66 67 69 70 71 73
47 47 47 48 49 49 50 51 52 53 54 54 54 55 55 56 56 57 57 57 57 57 56 56 56 56 57 57 58 59 60 61 62 63 65 66 67 68 69 70 72 73 75
49 51 51 51 52 53 53 54 56 56 57 57 58 58 58 58 58 59 59 59 59 59 59 58 58 58 59 59 60 61 61 63 64 65 67 68 69 69 70 72 73 74 75
52 53 54 54 55 56 56 57 58 59 59 60 60 61 61 60 60 60 59 59 59 60 60 60 60 60 60 60 61 62 64 65 66 67 68 69 70 71 71 72 74 75 76
54 55 56 58 58 59 59 59 60 61 62 62 62 63 63 63 62 60 58 58 59 60 61 61 61 61 61 61 62 64 65 66 67 68 68 69 70 70 72 73 74 76 77
56 57 58 59 60 61 61 62 63 63 64 65 65 64 65 64 63 62 60 59 59 60 61 60 60 61 62 62 63 64 65 66 67 68 68 69 69 70 72 73 75 76 78
58 59 60 61 62 63 64 64 65 66 66 66 66 66 64 63 62 62 61 60 60 60 61 60 60 61 62 62 63 64 65 66 67 67 68 69 69 71 72 74 76 77 79
59 60 61 63 64 65 65 66 67 67 67 67 66 65 64 63 63 62 61 60 61 61 61 60 61 62 62 63 64 64 65 66 66 67 68 69 70 71 73 75 77 79 81
60 61 63 64 65 66 66 67 67 67 67 66 66 66 65 64 63 63 63 62 62 62 61 61 62 63 63 64 64 65 65 66 67 67 68 69 71 73 75 76 78 80 82
62 63 64 65 65 65 66 66 66 66 66 66 65 65 65 64 64 64 64 64 64 63 61 61 63 64 65 65 66 66 66 66 67 68 69 71 72 74 76 77 79 81 82
63 64 64 65 65 64 64 64 64 65 66 65 65 65 65 65 65 64 65 65 65 64 62 62 64 65 66 66 67 67 67 67 68 69 71 72 74 75 77 78 79 80 81
64 64 64 64 63 63 63 64 65 65 65 65 65 66 66 66 66 66 66 66 66 65 63 62 64 65 67 68 68 68 68 68 69 70 71 73 74 76 77 78 78 77 76
62 62 63 64 64 64 64 64 64 64 65 65 66 66 66 66 66 66 66 66 65 66 64 63 64 66 67 68 68 68 69 69 69 70 71 73 74 75 76 76 75 73 72
60 61 61 62 63 63 63 64 63 63 64 65 65 65 65 66 66 66 66 65 65 65 65 64 64 66 67 68 68 68 69 69 70 70 71 72 73 74 74 73 71 70 69
59 59 60 61 61 61 61 61 61 62 63 63 64 64 64 65 64 65 64 64 65 65 65 64 64 65 66 67 67 68 69 69 69 68 69 70 71 71 70 69 67 66 65
58 58 59 59 59 59 59 60 61 62 63 63 63 63 63 63 63 64 64 64 64 64 64 64 64 64 64 65 67 68 68 67 67 67 68 69 69 68 67 65 64 63 62
58 58 57 57 57 58 59 60 61 62 62 62 62 61 61 62 62 62 62 62 63 63 63 63 63 63 63 65 66 67 66 66 65 65 67 67 67 66 63 61 60 59 59
57 56 56 57 57 58 59 61 61 61 61 61 61 61 62 62 61 62 62 62 62 63 63 63 63 63 63 64 65 65 65 65 64 62 65 64 63 61 58 57 56 56 56
56 56 56 57 58 59 61 62 63 62 61 60 61 61 61 61 61 61 61 61 62 62 62 63 62 62 62 63 64 64 64 64 63 62 64 61 59 57 55 54 54 54 54
57 57 57 58 59 59 61 61 62 62 61 60 60 60 60 59 59 59 60 61 61 61 61 62 62 61 61 61 62 62 62 62 60 59 60 59 55 54 53 51 52 53 52
57 58 58 59 59 59 61 61 61 61 60 60 59 59 58 58 58 59 60 60 60 60 61 61 61 60 59 59 60 61 61 61 59 55 55 57 54 52 50 48 49 50 49
57 57 58 59 60 60 60 60 60 59 59 58 58 58 58 58 58 59 59 58 58 58 59 59 58 58 57 57 58 59 59 59 57 52 51 53 52 52 47 45 47 47 44

GEFSMA_500_meanwind_072.txt.gz
Wind_Speed
29 29 29 30 31 31 32 32 33 34 34 35 35 36 37 37 38 39 39 40 41 41 42 43 43 44 44 45 45 46 47 48 49 50 50 51 51 51 52 52 52 52 51
33 33 34 34 35 36 36 36 37 38 39 39 39 40 40 41 41 42 43 44 44 45 46 46 47 47 47 48 48 49 49 50 51 52 53 53 54 54 54 55 55 55 55
36 37 38 39 40 40 40 40 41 42 42 43 43 44 44 45 45 46 46 47 48 48 49 50 50 51 51 51 52 52 52 52 53 54 54 55 56 56 57 57 57 57 57
40 41 42 43 44 44 44 44 45 45 46 46 47 48 48 48 49 49 49 50 51 52 52 53 53 54 54 55 55 55 55 55 55 55 56 57 57 58 58 59 59 59 60
44 45 45 46 47 48 48 48 49 50 50 50 51 51 51 51 52 52 52 53 54 54 55 55 56 56 57 58 58 58 58 58 57 57 57 57 58 58 59 60 60 61 61
46 47 48 49 50 51 51 52 53 53 54 54 55 55 55 55 55 55 55 56 56 56 57 57 58 59 59 60 60 60 60 59 59 58 58 58 58 59 59 60 61 61 62
47 49 50 52 53 54 55 55 56 56 57 58 59 58 58 58 57 57 58 58 58 59 59 60 61 61 61 61 61 62 61 61 60 60 59 59 59 59 60 60 61 62 62
50 52 53 54 56 57 57 58 59 60 60 62 62 62 61 60 59 59 60 59 60 61 61 62 62 62 62 62 62 62 62 61 60 60 60 60 60 60 61 61 61 62 62
52 53 55 56 58 59 60 61 62 62 63 64 65 65 65 63 62 61 60 60 61 61 62 62 62 61 62 61 62 62 62 61 61 61 61 61 61 61 60 60 61 61 62
54 56 57 59 60 61 62 63 64 65 66 66 67 67 67 67 67 64 61 61 61 61 61 62 62 62 61 61 61 62 62 62 62 61 61 61 60 60 60 60 61 61 62
56 57 59 61 62 64 65 66 67 68 69 69 69 69 69 68 68 67 65 63 62 61 62 62 62 61 61 61 61 61 62 61 61 61 61 61 61 61 61 61 62 62 62
57 59 61 63 64 65 66 67 68 69 69 70 70 70 69 69 68 68 68 65 64 63 63 62 61 61 60 61 61 61 61 61 61 61 61 61 61 61 62 62 63 63 63
56 58 61 63 64 66 67 69 69 70 70 70 70 70 70 70 69 69 68 67 65 64 63 61 60 60 60 61 62 62 61 61 61 62 62 61 62 62 63 63 63 64 64
56 58 60 62 63 65 67 68 69 70 70 71 71 71 71 70 69 69 68 68 66 64 62 59 59 60 61 63 63 63 63 62 62 62 62 62 63 63 63 64 64 64 65
58 59 61 62 64 65 67 68 69 69 70 71 71 71 71 70 69 68 68 67 67 65 61 59 60 60 62 63 64 64 63 63 62 62 63 63 63 63 64 64 65 66 66
61 62 63 64 65 66 67 68 68 69 69 69 70 70 69 69 68 68 68 67 67 66 62 59 61 61 63 63 64 64 64 64 63 63 63 63 63 64 65 65 66 66 67
64 65 65 65 66 66 67 68 68 68 68 68 69 69 68 69 68 68 68 68 67 67 64 61 63 63 64 64 65 66 65 64 64 64 64 65 65 65 65 66 67 68 68
68 68 67 67 67 67 68 68 68 68 68 68 68 68 68 69 68 68 68 67 66 66 65 62 63 64 64 65 66 66 65 65 65 65 65 65 65 65 66 66 67 68 69
70 70 70 69 68 68 68 68 68 68 67 67 67 67 67 67 66 66 66 65 65 65 65 64 64 65 65 65 66 66 65 65 66 66 66 65 66 66 67 67 68 69 69
72 72 71 70 69 69 69 69 68 67 67 66 66 65 65 65 64 64 65 65 65 65 66 65 65 65 64 65 66 65 66 66 66 66 66 66 66 66 66 67 68 69 70
74 73 71 70 69 69 68 68 68 67 66 65 64 63 62 62 63 63 63 63 64 65 65 65 65 64 64 65 65 65 65 65 64 64 64 65 65 65 66 67 68 69 69
72 71 70 69 68 68 67 67 66 65 64 63 62 61 61 61 61 62 63 63 64 64 64 64 64 64 63 64 64 65 64 64 63 63 65 64 65 65 65 67 68 69 70
70 69 68 67 66 65 65 64 63 63 61 60 59 59 59 59 60 61 62 63 63 63 63 63 63 62 62 63 64 64 64 64 62 63 65 64 64 64 65 67 68 68 69
67 66 65 64 62 61 61 60 59 58 57 56 56 57 58 59 60 61 61 61 61 61 62 62 62 61 61 62 63 63 64 63 62 63 64 64 63 64 65 65 66 67 68
64 63 61 60 59 58 58 57 56 55 55 54 55 56 57 58 59 61 60 60 60 60 61 62 62 61 60 61 61 62 62 62 61 61 63 63 62 64 64 63 63 64 65
60 59 58 57 57 56 55 54 54 53 53 53 53 54 56 56 57 58 59 59 59 59 60 60 60 60 59 59 59 60 60 61 61 60 60 62 62 64 63 60 60 60 60

GEFSMA_500_meanwind_078.txt.gz
Wind_Speed
32 32 33 34 34 35 36 36 36 37 37 38 38 39 39 39 40 40 40 40 40 41 41 41 42 42 43 43 43 44 44 44 44 44 44 45 45 45 46 46 47 48 48
35 36 37 37 39 40 40 41 41 41 42 42 43 44 44 44 44 44 44 44 44 45 45 45 46 46 46 46 47 47 47 47 47 47 47 47 48 48 48 49 49 50 50
38 39 40 41 42 44 44 45 45 46 46 47 48 48 48 48 48 48 48 48 48 49 49 49 49 50 50 50 50 50 50 50 50 50 50 50 50 50 51 51 51 52 52
40 41 42 44 46 46 47 47 48 49 50 51 51 52 52 52 51 52 52 51 52 52 52 53 53 53 53 53 53 53 52 52 52 52 52 53 53 53 53 53 53 53 54
42 43 44 45 47 48 49 50 50 51 52 53 54 55 55 54 54 55 54 54 55 55 55 56 56 56 56 56 56 55 55 55 55 54 54 55 55 54 54 54 54 54 55
43 44 45 46 48 49 50 52 52 53 54 55 56 56 56 57 57 57 56 57 57 58 58 58 59 58 58 58 58 58 58 57 57 56 56 56 56 55 55 54 54 55 55
43 45 46 47 49 50 52 53 54 55 56 57 58 58 58 59 59 58 59 59 59 60 60 61 61 61 61 61 61 61 60 60 59 58 58 57 57 56 56 55 55 55 55
44 45 47 48 50 51 53 54 56 57 58 59 61 62 61 60 60 61 62 62 62 62 63 63 63 64 64 64 64 63 62 61 60 60 59 59 58 57 56 55 55 55 55
44 45 47 49 50 52 53 55 57 59 60 61 63 64 65 63 62 63 64 64 65 65 65 65 66 66 67 67 66 65 64 63 62 61 60 59 58 57 56 55 55 55 55
44 46 47 49 51 52 54 56 58 60 62 63 64 66 67 67 67 65 64 65 66 67 67 67 68 69 69 69 68 67 66 65 63 63 62 61 59 58 57 56 55 55 55
45 47 49 51 53 55 56 58 60 62 64 65 67 68 69 70 71 71 68 67 68 68 69 70 70 71 71 71 70 70 69 68 66 65 64 63 61 60 59 58 57 56 56
47 49 51 53 55 57 59 61 63 65 67 68 69 71 71 72 73 74 73 71 71 70 71 71 72 72 72 72 72 71 71 70 69 68 66 64 63 61 60 59 58 57 57
50 53 55 57 60 62 64 66 67 68 70 71 72 73 74 75 76 76 77 75 74 73 73 72 72 72 73 73 73 73 72 72 71 70 68 66 65 63 62 60 59 58 58
56 58 61 63 65 67 69 71 72 73 74 75 75 76 77 77 78 79 79 79 78 76 75 73 73 73 74 74 74 75 74 73 73 72 70 68 66 64 63 61 60 60 59
63 65 67 69 71 73 75 76 77 78 79 79 80 80 80 80 81 81 81 81 81 79 75 74 75 74 75 75 75 76 75 74 73 72 70 68 66 65 64 63 62 61 60
69 71 74 76 78 79 80 81 82 82 82 82 83 83 82 82 82 82 82 82 82 82 78 73 75 75 75 75 75 75 74 74 74 72 70 69 67 66 65 64 64 63 62
75 77 79 81 82 83 84 84 85 85 85 85 85 85 84 83 83 82 82 82 82 81 79 74 75 75 75 74 74 74 73 73 72 72 71 70 68 67 66 66 65 65 64
80 82 83 84 85 85 85 85 85 85 85 85 84 84 84 83 83 82 81 81 80 79 78 74 73 74 73 73 73 73 72 72 71 71 71 70 69 68 67 67 66 66 66
83 84 85 86 86 85 85 85 84 84 83 82 82 81 80 80 79 78 78 77 76 76 75 73 70 71 71 71 71 71 71 70 70 69 69 69 69 68 68 67 66 66 66
86 86 86 86 85 85 83 82 82 81 79 78 76 75 75 74 74 73 73 72 72 71 71 70 68 68 68 68 69 69 69 69 69 69 69 68 67 67 67 67 67 67 67
87 87 86 85 83 81 79 78 76 74 72 71 69 68 68 68 67 67 67 66 66 66 66 66 64 64 65 65 66 67 68 68 68 68 68 68 68 68 68 67 67 68 68
86 85 83 81 78 75 73 71 69 67 65 64 62 62 61 61 61 61 61 61 61 61 61 61 61 60 60 61 63 64 64 65 64 65 67 67 67 66 66 67 68 68 68
84 81 77 74 71 68 66 64 62 61 59 58 57 57 56 56 56 56 57 57 57 58 58 58 58 57 58 59 60 61 62 62 63 64 65 64 65 65 66 66 67 68 68
79 75 71 68 65 62 60 59 59 58 56 55 54 53 52 52 52 53 53 53 53 54 54 55 55 54 56 58 59 60 61 61 61 62 62 62 63 64 64 64 65 65 66
72 68 64 62 60 57 57 56 55 53 52 50 50 49 49 48 49 49 49 49 49 50 51 52 53 53 54 55 57 58 59 60 60 60 61 61 61 62 62 62 63 64 64
66 62 59 57 56 54 53 52 51 50 48 47 46 45 45 45 45 46 46 46 46 47 48 50 51 52 52 53 54 55 56 57 57 57 58 59 59 60 61 61 61 62 63

GEFSMA_500_meanwind_084.txt.gz
Wind_Speed
32 32 33 34 35 35 36 36 37 37 38 39 39 40 41 41 41 41 41 41 41 41 41 42 42 42 42 42 42 42 42 43 43 43 43 43 44 43 43 44 44 44 45
33 34 35 35 37 38 39 39 40 41 41 42 43 44 45 45 46 46 46 46 46 45 46 46 46 46 46 46 46 46 46 46 46 46 46 46 46 46 46 46 46 46 46
34 35 35 36 38 39 39 40 41 42 43 45 46 47 48 48 49 49 49 49 49 50 50 50 50 50 50 50 50 50 50 50 49 49 49 49 49 49 48 48 48 47 47
34 35 36 37 38 39 40 41 42 43 44 46 47 48 49 50 51 51 52 52 52 53 53 53 54 54 54 54 54 54 53 53 53 53 52 52 51 51 51 50 50 49 49
35 36 36 38 39 40 41 42 43 44 45 47 48 49 50 51 52 53 53 54 54 55 55 56 57 57 57 57 57 57 57 56 56 55 55 54 54 53 53 52 52 51 51
35 36 36 38 39 40 41 43 44 45 46 48 49 50 51 52 53 53 54 55 56 56 57 58 59 59 60 60 60 60 60 60 59 58 58 57 56 56 55 54 54 54 53
36 37 37 39 40 41 42 44 45 46 47 49 50 51 52 52 53 54 55 57 58 59 60 61 62 62 62 63 63 63 63 63 62 61 61 60 59 58 58 57 56 55 55
36 37 38 40 41 42 43 45 46 48 48 50 52 53 53 53 54 55 57 59 60 62 63 64 65 65 66 66 66 66 66 66 66 65 64 64 63 62 61 60 59 57 57
36 37 39 40 42 43 44 46 48 49 50 52 54 56 58 58 58 58 59 61 63 65 66 67 68 69 69 70 69 69 69 69 69 68 68 67 66 65 64 63 61 60 59
37 39 40 42 43 45 47 49 51 53 55 56 58 60 63 65 66 65 64 65 66 67 69 71 72 73 73 73 73 73 73 73 72 71 71 70 69 68 67 66 64 63 62
39 41 43 45 47 49 51 53 56 58 60 62 64 66 68 70 72 74 73 72 72 72 73 74 75 76 77 77 77 77 77 77 77 76 75 74 73 72 70 69 68 66 65
43 45 47 49 52 54 56 59 61 63 66 68 70 72 74 76 77 80 81 80 80 80 80 80 79 80 80 81 81 81 81 81 80 80 78 77 76 75 74 72 71 69 68
47 50 52 54 57 59 62 64 66 69 71 73 76 78 80 81 83 84 86 86 86 85 86 86 85 84 84 84 84 84 84 84 84 83 82 81 79 78 77 76 74 73 71
52 54 57 59 62 64 67 69 71 74 76 78 80 82 84 85 86 87 88 90 90 89 89 88 89 89 89 88 88 88 88 87 87 86 85 84 82 81 80 78 77 75 74
56 59 61 64 66 69 72 74 76 78 80 82 83 84 86 86 87 88 90 91 92 92 90 88 90 91 92 91 90 90 90 89 88 87 87 85 84 83 82 81 79 77 76
61 64 66 69 71 74 76 78 80 82 83 85 86 87 88 88 89 89 90 90 91 92 91 87 88 89 91 90 89 89 89 88 88 87 87 86 85 84 83 82 81 80 78
66 68 71 73 75 78 80 82 83 85 86 87 88 88 88 88 88 88 87 87 87 87 87 82 81 83 84 84 83 83 83 84 84 83 83 83 83 83 82 81 81 80 79
70 73 75 78 80 82 84 85 87 88 88 88 87 87 86 84 83 81 80 79 78 77 77 74 71 72 74 74 75 74 74 75 76 76 76 77 78 78 79 79 79 78 78
74 77 79 81 83 85 87 88 88 88 88 86 84 82 80 77 75 73 71 70 69 69 69 67 64 64 65 66 67 67 66 67 67 68 69 70 72 73 74 75 75 76 75
78 80 83 85 86 88 88 88 87 86 83 81 78 75 71 69 67 65 64 63 63 63 63 62 59 58 58 59 61 61 61 62 62 63 64 65 66 67 68 69 70 71 71
81 83 85 87 88 88 87 86 83 80 77 73 69 66 64 62 61 60 59 58 58 58 58 57 55 54 53 54 55 56 57 58 59 59 60 61 62 63 64 65 65 66 67
83 86 87 88 87 85 83 80 77 73 69 66 63 61 59 58 56 56 56 55 55 54 54 53 52 50 49 50 51 52 53 54 55 56 58 58 59 59 61 62 62 63 64
86 87 87 87 84 80 76 72 69 66 62 60 58 56 54 53 52 52 51 50 50 50 51 51 49 47 47 47 49 50 50 50 50 52 54 54 55 55 56 58 59 60 61
87 87 85 82 78 73 69 66 62 59 56 55 53 52 50 48 48 47 47 46 46 47 48 48 47 46 45 45 46 47 47 48 47 48 49 49 50 50 51 53 55 57 59
86 84 80 76 71 66 63 60 57 54 52 51 50 48 47 46 45 45 45 44 44 44 45 45 45 44 43 43 43 43 43 44 44 44 46 46 48 50 51 51 51 54 56
83 79 73 68 64 60 57 55 53 51 50 48 46 45 45 44 44 44 44 44 43 43 43 42 42 42 41 41 41 41 41 42 42 42 43 45 47 49 49 50 52 53 54

GEFSMA_500_meanwind_090.txt.gz
Wind_Speed
29 29 29 30 31 32 32 33 34 34 35 36 37 38 39 39 40 40 41 42 43 43 44 44 45 45 45 46 46 46 46 46 46 45 45 45 45 45 45 44 44 44 44
29 30 30 31 32 33 34 34 35 36 37 38 39 40 41 42 43 43 44 45 46 47 47 48 49 50 50 50 50 51 50 50 50 50 50 49 49 49 49 48 48 48 48
30 30 31 32 33 33 34 35 36 37 38 39 39 41 42 43 43 44 46 46 48 49 50 51 52 53 54 54 54 55 55 55 55 55 54 54 54 53 53 52 52 51 51
31 31 32 32 33 34 34 35 36 37 38 39 40 41 42 43 44 45 46 47 48 49 50 52 53 54 55 56 57 57 58 58 58 58 58 57 57 57 56 56 55 55 54
32 32 32 33 34 34 34 35 36 37 38 39 40 41 42 43 44 45 46 48 49 50 51 52 53 55 56 57 57 58 59 59 60 60 60 60 60 60 60 59 59 58 57
33 33 34 34 34 35 35 36 37 38 39 40 41 41 42 43 44 45 47 48 49 50 51 52 53 55 56 58 59 60 60 61 61 62 62 62 62 62 62 62 62 61 60
33 33 33 33 34 34 35 36 37 38 40 41 42 42 42 43 45 46 47 48 49 51 52 53 55 56 58 59 61 62 63 64 64 65 65 65 65 65 65 65 65 64 64
32 32 33 34 35 36 37 38 39 40 41 43 44 45 44 44 46 48 49 50 52 53 55 56 58 60 61 62 63 65 66 68 68 69 69 69 69 69 69 69 68 68 67
33 34 35 36 37 38 39 40 42 43 44 45 48 50 51 51 51 51 53 55 57 58 59 60 62 64 66 67 68 69 70 72 73 73 74 74 74 74 73 73 73 72 71
36 36 37 38 39 40 42 44 46 47 49 50 52 54 57 58 59 58 57 59 61 63 64 66 67 68 70 71 73 75 76 77 78 79 79 79 79 79 78 77 77 76 75
38 39 40 41 43 45 47 48 50 52 54 55 57 59 60 62 64 66 65 64 65 66 69 71 72 74 75 76 77 79 80 81 82 83 84 84 84 84 83 83 82 81 80
41 42 44 45 47 49 51 52 54 56 58 60 61 63 65 66 68 70 72 71 72 71 73 74 76 78 79 80 81 82 83 84 85 87 88 88 89 89 88 88 87 86 84
44 45 47 49 50 52 54 56 58 59 61 63 65 67 68 70 72 74 76 77 78 77 78 79 80 82 83 85 85 85 86 86 87 88 89 90 91 92 92 92 91 90 89
46 48 50 52 54 55 57 59 61 62 64 66 68 70 72 74 76 78 80 82 83 83 82 82 83 84 86 87 88 88 88 88 88 88 89 90 90 92 92 93 93 93 92
49 51 53 55 56 58 60 62 63 65 67 69 71 73 75 77 79 81 83 85 87 88 86 83 84 84 86 86 86 87 86 86 85 84 84 84 85 87 89 90 91 92 93
52 54 56 57 59 61 63 65 67 69 71 73 75 76 78 80 82 84 85 86 87 89 88 83 83 82 82 81 80 80 79 79 78 76 75 75 76 77 79 81 83 85 87
55 57 58 60 62 64 66 68 70 72 74 76 78 80 81 83 84 85 85 85 85 84 85 80 77 75 75 74 72 71 69 68 67 67 67 67 68 69 70 71 73 75 78
57 60 61 63 65 67 69 71 73 75 77 79 81 82 83 84 84 83 82 81 79 78 77 74 70 68 67 67 65 64 62 61 61 61 61 61 62 63 64 65 65 67 69
60 62 64 66 68 70 72 75 77 78 80 82 83 84 83 83 82 79 77 75 72 71 69 68 64 61 59 58 57 56 56 56 55 56 56 56 56 57 58 59 59 60 61
63 64 67 69 71 73 75 77 79 81 82 83 83 83 81 79 77 74 71 68 66 64 62 61 58 54 52 52 52 51 50 50 50 51 52 52 52 52 53 54 55 55 56
65 67 69 71 74 76 78 80 82 83 83 82 81 79 76 73 70 67 64 61 59 58 56 55 52 50 48 48 48 48 47 47 47 48 49 49 49 49 49 50 51 51 52
68 69 72 74 76 78 80 82 84 84 83 80 77 73 69 65 62 60 57 56 54 54 52 50 49 47 46 45 45 46 46 45 44 44 46 46 47 46 46 47 48 48 49
70 72 74 76 78 80 82 83 83 82 79 75 71 67 62 59 57 55 53 51 51 50 49 48 47 46 45 44 45 44 44 44 43 42 43 42 42 42 43 44 45 46 46
72 74 77 79 80 82 82 82 80 77 72 68 64 61 58 55 53 52 49 48 47 46 46 47 46 45 45 44 44 43 43 42 40 39 40 38 37 38 39 40 41 42 43
75 77 79 81 82 81 80 78 75 71 66 62 58 56 55 52 50 49 47 46 45 44 45 45 45 44 43 43 43 42 41 41 38 36 37 36 35 35 36 36 37 38 39
78 80 81 82 81 79 76 73 69 66 61 58 55 52 51 49 47 46 45 45 44 43 43 42 42 42 42 41 41 41 41 40 39 36 35 35 34 35 34 34 35 36 37

GEFSMA_500_meanwind_096.txt.gz
Wind_Speed
27 28 29 30 31 32 32 33 34 34 35 36 37 37 38 38 39 39 40 41 42 43 44 45 46 46 47 47 48 48 48 48 48 48 48 48 48 48 47 47 47 46 45
28 29 30 31 32 33 33 34 35 35 36 36 37 37 38 39 39 40 41 42 43 44 45 46 47 48 49 49 50 51 51 51 51 52 52 52 51 51 51 51 51 50 50
30 31 32 33 33 34 34 35 35 36 36 37 37 38 38 39 40 41 41 42 44 45 46 47 48 49 49 50 51 51 52 52 53 53 54 54 54 54 54 54 54 54 54
31 32 33 34 34 35 35 35 36 36 37 37 37 38 39 40 40 41 42 43 44 45 46 47 48 49 50 51 52 53 53 54 54 55 55 56 56 56 57 57 57 57 56
33 33 34 34 34 35 35 36 36 36 37 38 38 38 39 39 40 41 42 43 44 45 46 48 49 50 51 52 53 54 55 55 56 56 57 57 57 58 58 59 59 59 59
33 34 34 34 34 35 35 36 36 37 37 38 38 38 39 40 41 42 43 44 45 46 47 48 50 51 52 53 54 55 56 57 57 58 59 59 60 60 60 61 61 61 61
34 34 34 35 35 36 36 37 37 38 39 40 40 40 40 41 42 44 44 45 47 48 49 50 51 52 54 55 56 58 59 60 61 61 62 62 62 63 63 63 64 64 64
35 35 35 36 36 37 38 38 39 40 41 43 43 43 42 42 44 45 47 48 49 51 53 54 56 57 58 59 61 62 63 64 65 66 66 67 67 67 67 67 67 67 67
36 37 37 38 38 39 40 41 42 43 43 45 47 48 48 47 47 47 49 51 53 55 57 58 60 61 62 63 64 65 67 68 69 70 71 71 71 71 71 71 71 71 71
39 39 40 40 41 42 43 43 45 46 46 47 49 52 53 54 54 53 52 53 56 57 59 61 63 65 66 67 68 69 70 71 72 74 75 76 76 77 77 77 76 76 76
40 41 42 43 43 44 45 46 47 49 50 51 53 54 56 58 60 61 59 58 59 60 62 64 66 67 69 71 72 73 74 75 76 77 78 79 80 81 81 82 82 82 81
42 43 44 44 45 46 48 49 50 52 53 55 56 57 59 60 62 64 65 65 64 64 65 66 68 70 72 74 76 77 78 79 80 81 82 83 84 85 86 86 86 87 86
43 44 45 46 47 49 50 51 53 54 55 57 58 59 61 63 65 67 68 69 69 69 69 70 71 73 75 76 78 79 81 82 83 84 84 85 86 87 88 89 90 90 90
45 46 47 49 50 51 53 54 55 56 57 59 60 61 63 65 67 69 71 73 74 73 73 73 75 76 78 79 81 82 83 84 85 85 86 86 86 87 88 89 90 90 91
48 49 50 51 52 53 55 56 57 58 59 60 62 64 65 67 69 71 73 75 77 77 76 76 78 79 81 82 83 84 84 85 85 86 85 85 84 84 84 85 86 87 88
50 50 52 53 54 55 56 57 58 60 61 63 65 66 68 69 71 73 75 76 79 81 81 80 81 82 83 84 84 84 84 83 82 82 81 80 79 79 78 78 79 80 81
51 52 53 54 55 57 58 59 61 62 64 65 66 68 70 72 73 75 77 78 80 82 84 82 83 84 84 84 83 82 80 77 75 74 72 71 71 70 70 70 70 71 71
53 54 55 56 57 59 60 61 62 64 65 66 68 70 71 74 75 77 79 80 82 83 85 84 82 82 81 80 78 75 72 69 67 65 64 62 62 61 61 61 60 61 62
55 56 57 58 59 60 61 63 64 65 67 68 70 72 74 76 77 79 81 82 83 84 84 84 80 78 75 72 69 66 64 61 60 58 56 55 55 54 54 53 53 54 54
56 57 58 59 60 61 62 64 65 67 68 70 72 74 76 78 80 81 82 82 82 82 80 78 75 71 67 64 62 59 57 55 53 52 51 50 49 49 48 48 49 48 49
58 58 59 60 61 62 64 66 67 68 70 72 75 77 79 80 82 82 81 80 79 77 74 71 67 63 59 57 55 54 52 50 48 47 47 46 46 46 46 46 45 45 45
58 60 61 62 62 64 66 68 70 72 74 76 77 79 80 81 81 79 78 76 74 71 67 64 60 56 53 52 50 49 47 46 44 44 44 43 44 43 44 44 44 44 44
59 61 61 63 64 66 68 70 73 75 77 78 80 81 80 79 77 75 72 69 66 63 60 58 54 51 49 47 46 45 45 44 42 42 42 41 42 41 42 42 42 42 42
61 61 63 64 66 68 71 74 76 78 79 81 81 80 78 75 72 69 66 62 58 56 54 53 50 47 45 43 43 43 42 41 40 40 40 39 39 39 40 40 40 40 40
62 63 65 67 69 71 74 77 80 81 81 81 79 76 74 70 66 64 61 57 53 51 50 48 46 44 42 41 42 41 41 40 39 38 38 38 37 37 36 36 37 37 37
63 65 67 69 72 75 78 81 83 83 82 78 75 71 68 65 61 58 56 52 49 47 45 43 42 41 40 40 40 40 39 38 37 35 35 36 35 35 34 34 36 36 36

GEFSMA_500_meanwind_102.txt.gz
Wind_Speed
28 29 29 30 30 31 32 33 33 34 35 35 36 36 37 37 38 39 39 40 40 41 42 42 43 44 44 45 46 46 47 47 48 48 48 48 49 49 48 48 48 48 47
28 29 30 31 32 32 33 34 35 35 36 36 37 37 38 38 39 39 40 40 41 41 42 43 43 44 45 45 46 47 47 48 49 49 50 50 50 51 51 51 51 51 50
29 30 31 32 32 33 34 35 36 36 37 37 38 38 38 39 40 40 41 42 42 43 43 43 44 45 45 46 46 47 48 48 49 50 50 50 51 51 52 52 52 52 52
30 31 32 33 34 35 36 36 37 37 38 38 38 38 38 39 40 40 41 42 42 43 44 44 44 45 45 46 47 47 48 48 49 50 50 51 51 52 52 52 53 53 53
31 32 33 34 35 36 37 37 38 38 38 38 38 38 39 40 41 41 42 43 43 44 45 46 46 46 47 48 48 49 49 50 50 51 51 51 52 52 53 54 54 54 55
33 34 35 36 37 37 37 38 38 38 38 38 38 39 40 40 42 42 43 44 45 46 47 48 48 49 49 50 50 51 51 52 52 53 53 53 54 54 55 55 55 56 56
35 35 36 37 38 38 38 39 39 40 40 40 40 40 41 42 43 44 45 46 47 48 48 49 49 50 51 52 53 53 54 54 55 56 56 56 57 57 58 58 58 59 59
36 36 38 39 39 40 40 40 41 41 42 43 43 43 42 43 44 45 46 47 49 50 51 52 52 53 54 55 56 57 57 58 58 59 60 60 61 61 62 62 62 63 63
38 38 39 40 41 41 42 42 43 43 44 45 46 46 46 45 45 45 47 49 51 52 53 54 55 56 57 58 59 60 61 61 62 63 63 64 65 65 65 65 66 66 66
39 40 41 42 43 43 43 44 44 45 46 46 48 49 50 51 50 48 47 49 51 53 54 56 57 58 60 61 62 63 63 64 65 66 66 67 67 68 68 68 68 68 68
41 42 43 43 44 45 45 45 46 47 48 49 50 51 52 53 55 55 52 51 52 53 55 57 59 60 62 63 64 66 67 67 68 68 69 69 69 70 70 71 71 71 71
43 43 44 45 46 46 47 47 48 49 51 52 53 54 54 55 56 58 58 57 56 55 57 58 60 62 63 64 66 67 68 69 70 70 71 72 72 73 73 73 74 74 74
44 45 46 46 47 47 48 49 50 51 53 53 54 55 56 58 59 60 61 61 61 60 60 61 62 63 65 66 67 68 69 70 71 72 73 74 74 75 75 76 76 77 77
45 46 47 47 48 49 50 51 52 53 54 55 55 56 58 59 60 62 63 65 65 64 64 64 64 65 66 67 68 69 70 71 72 74 75 75 76 77 77 78 78 79 80
47 47 48 49 50 51 51 52 53 54 55 56 57 58 60 61 62 63 64 66 67 67 66 66 67 67 68 69 70 71 72 73 74 75 76 77 78 79 79 80 81 81 81
48 49 50 50 51 52 53 54 55 55 56 58 59 60 61 62 62 63 65 66 68 70 70 70 71 72 72 73 74 75 76 76 77 78 78 79 80 80 81 81 81 81 80
49 50 51 51 52 53 54 55 56 57 58 59 60 61 62 63 63 64 66 67 69 71 72 71 73 75 77 78 78 79 79 79 79 79 79 79 79 78 78 77 76 76 75
51 51 52 53 54 55 56 56 57 58 59 60 61 62 62 63 64 66 67 69 71 73 75 75 76 78 79 80 81 80 80 80 79 78 77 75 74 72 71 69 68 67 66
52 53 54 54 55 56 57 58 59 59 60 61 62 63 64 65 66 68 69 71 74 76 78 79 79 79 80 80 80 79 78 77 75 73 71 68 66 64 62 61 59 58 57
54 54 55 56 56 57 58 59 59 60 61 62 63 64 66 67 69 70 72 75 77 79 81 82 81 80 79 78 78 76 74 72 69 66 63 61 58 56 54 53 51 50 50
54 55 56 56 57 58 59 60 61 61 62 63 64 66 68 70 72 74 77 79 81 82 82 82 81 79 76 75 73 71 68 64 60 57 55 53 51 48 47 46 45 45 45
55 56 56 57 58 59 61 62 62 63 64 65 67 69 71 73 75 78 80 82 83 83 83 81 79 75 72 69 67 63 60 56 51 49 48 45 44 42 42 42 42 41 41
55 56 57 58 59 61 62 63 64 66 67 69 71 73 75 77 79 81 82 83 82 81 80 77 73 70 66 62 59 55 52 49 45 43 41 38 39 38 39 39 38 38 38
56 56 58 59 61 63 64 65 67 69 70 72 74 76 78 80 82 84 84 82 79 76 73 70 67 63 59 55 52 49 46 43 39 38 37 34 34 35 35 36 36 36 35
56 58 59 61 63 64 66 68 70 72 73 74 77 80 82 83 84 84 82 78 73 69 66 64 60 56 52 49 47 45 41 39 35 34 34 33 32 32 32 33 34 33 32
58 60 61 63 65 67 69 71 73 75 77 78 80 82 83 83 82 79 76 72 68 63 59 56 53 49 47 44 43 41 38 36 33 30 31 31 30 30 29 30 31 31 30

GEFSMA_500_meanwind_108.txt.gz
Wind_Speed
27 28 28 28 28 28 29 29 29 30 30 31 32 33 33 34 34 35 35 35 36 36 37 37 38 39 39 40 40 41 42 43 44 45 45 46 46 46 47 47 47 48 48
28 28 28 28 28 29 29 30 30 31 32 33 33 34 35 35 36 36 36 37 37 37 37 38 39 39 40 41 41 42 43 43 44 45 46 46 47 48 48 48 48 49 49
29 29 29 29 29 30 30 31 32 32 33 34 35 35 36 36 37 37 37 37 38 38 38 39 39 40 41 42 42 43 44 44 45 45 46 46 47 48 48 49 49 50 50
29 29 30 30 31 31 31 32 33 34 34 35 36 36 37 37 37 38 38 38 39 39 40 40 41 41 42 43 44 44 45 45 46 47 47 48 48 49 49 50 50 51 51
31 31 31 31 32 32 33 34 34 35 36 37 37 38 38 38 39 39 40 40 41 41 42 42 43 43 44 44 45 46 46 47 47 48 48 49 50 50 51 51 52 52 53
31 31 32 32 33 34 35 35 36 37 37 38 38 39 39 40 41 41 42 42 43 43 44 44 45 46 46 47 47 47 48 49 49 50 51 51 52 52 53 53 53 54 54
32 33 33 34 35 35 36 37 38 38 38 39 40 40 41 41 42 43 43 44 45 45 46 47 47 48 49 49 50 50 51 51 52 53 53 54 54 55 55 56 56 56 56
34 34 35 36 37 37 38 39 39 40 40 41 41 41 41 41 43 44 45 46 47 48 48 49 50 51 51 52 52 53 54 54 55 55 56 56 57 57 58 58 58 59 59
35 36 37 37 38 39 40 40 41 42 42 43 43 43 43 42 42 43 45 47 48 50 51 51 52 53 54 54 55 55 56 57 57 58 58 59 60 60 61 61 62 62 62
36 37 38 39 40 40 41 42 43 43 44 44 44 45 45 45 45 44 44 47 48 50 51 53 54 55 56 56 57 58 58 59 60 61 61 62 63 63 64 64 65 65 65
37 38 39 40 41 42 43 43 44 44 45 46 46 47 47 48 48 48 47 48 49 50 51 53 54 55 57 57 58 59 60 61 62 63 63 64 65 66 67 67 67 68 68
38 39 40 42 43 43 44 45 45 46 47 47 48 48 49 49 50 51 51 50 50 50 51 53 54 56 57 58 59 60 61 62 64 65 66 66 67 68 68 69 69 70 70
39 40 42 43 44 45 45 46 47 48 48 49 49 50 51 51 52 53 53 53 52 52 53 54 55 57 58 59 60 61 62 63 64 66 67 68 68 69 69 69 70 70 71
40 42 43 44 45 46 46 47 48 49 50 50 51 51 52 53 53 54 55 55 55 55 56 56 57 58 60 61 62 63 64 65 66 67 68 69 69 70 71 72 72 73 74
42 43 44 45 46 47 48 48 49 50 51 52 52 53 53 54 54 55 56 57 58 58 57 58 60 61 62 63 64 65 66 67 68 69 70 71 72 73 74 75 75 76 76
43 44 45 46 47 48 48 49 51 52 52 52 53 53 54 55 56 57 58 59 60 61 61 61 63 65 66 67 68 69 70 72 73 74 75 76 76 77 77 77 77 77 77
44 45 46 47 47 48 50 51 52 52 53 53 54 54 55 56 57 58 59 60 62 64 64 64 66 68 70 71 73 74 76 77 77 78 79 79 80 80 80 79 79 78 78
44 45 46 47 48 50 51 52 53 53 53 54 54 55 56 57 58 60 62 63 65 66 67 67 68 71 73 76 77 78 79 79 80 80 81 82 82 82 81 80 79 78 78
45 46 47 48 50 51 52 53 53 53 54 54 55 56 58 59 61 63 65 66 67 68 70 72 72 75 77 78 79 80 80 80 81 81 82 81 80 79 77 76 75 74 74
46 47 48 50 51 52 53 53 53 54 55 56 57 59 61 62 64 66 67 68 70 72 74 75 76 77 78 79 81 80 80 80 79 79 77 75 73 71 69 68 66 65 63
47 48 49 51 52 52 53 54 54 55 56 58 59 62 63 65 66 68 70 71 73 75 76 77 78 79 79 80 79 78 77 75 73 72 69 65 63 61 59 57 55 53 51
48 49 50 51 52 53 54 55 56 57 59 60 62 64 66 67 68 70 72 74 76 77 79 80 80 80 79 77 75 73 72 69 65 61 59 55 53 51 49 46 44 43 41
49 50 51 52 52 54 55 56 58 60 62 64 65 67 68 70 72 73 74 75 77 78 80 81 80 78 75 72 70 68 65 62 57 53 50 46 44 42 41 39 37 36 35
50 50 51 52 53 55 57 59 61 63 65 66 68 69 71 72 74 76 76 77 78 78 79 78 76 73 69 67 65 63 59 54 49 45 43 39 37 36 35 34 33 31 30
49 51 52 53 55 57 59 62 64 66 67 68 69 71 73 74 76 77 78 79 78 76 75 73 70 68 65 62 60 56 51 46 41 37 36 34 32 31 30 30 29 28 27
50 51 53 55 57 60 62 64 66 68 69 70 71 73 74 76 77 78 79 78 76 73 71 68 66 63 60 56 53 49 45 40 35 32 31 30 29 27 25 26 26 24 24

GEFSMA_500_meanwind_114.txt.gz
Wind_Speed
28 29 29 30 30 31 31 32 32 32 32 32 32 33 33 33 33 34 34 34 35 36 36 36 37 37 38 38 38 39 39 39 40 40 41 41 41 42 42 43 43 44 45
30 30 31 31 31 32 32 33 33 33 33 33 33 34 34 34 35 35 35 35 35 36 36 37 37 37 38 38 39 39 40 40 41 41 42 42 43 43 44 44 45 45 45
32 32 32 32 32 33 33 33 33 34 34 34 34 35 35 35 36 36 36 36 36 36 37 37 38 38 38 39 39 40 40 41 41 42 43 43 44 44 45 45 46 46 46
33 33 33 33 33 33 33 34 34 34 35 35 35 36 36 36 37 37 37 37 37 37 38 38 39 39 39 40 40 41 41 42 42 43 44 44 45 46 46 47 47 48 48
33 33 34 34 34 34 34 35 35 35 36 36 37 37 37 37 38 38 38 39 39 39 39 40 40 41 41 41 42 42 43 43 44 45 46 46 47 47 48 48 49 49 50
34 34 34 35 35 35 36 36 36 36 37 38 38 38 38 38 39 39 40 40 41 41 41 42 42 43 43 43 44 44 45 46 46 47 47 48 48 49 50 50 51 51 52
35 35 36 36 36 36 37 37 37 38 38 38 39 39 39 40 40 41 42 42 43 43 43 43 44 44 44 45 45 46 46 47 48 48 49 50 50 51 51 52 52 53 54
35 36 36 36 36 37 38 38 38 38 39 39 39 40 40 41 42 43 43 44 44 45 45 44 45 45 45 46 46 47 48 49 49 50 51 51 52 52 53 54 54 55 55
36 36 36 36 37 38 39 39 39 40 40 41 41 42 42 41 41 42 43 44 45 45 45 45 46 46 47 48 48 49 49 50 51 51 52 52 53 54 54 55 55 56 57
36 36 36 37 38 39 39 39 40 41 41 42 43 43 43 43 43 42 43 44 44 45 46 47 48 48 49 50 50 51 51 51 52 53 54 54 55 55 56 56 57 57 58
36 37 37 38 38 39 40 41 42 42 43 43 43 43 44 44 45 44 43 44 45 46 46 47 48 49 50 51 51 52 53 53 54 55 55 56 57 57 58 58 59 60 60
37 37 38 38 39 39 40 42 42 43 44 44 44 45 45 45 46 46 45 45 45 46 47 48 49 50 50 51 52 53 54 55 55 56 57 58 59 60 60 61 62 62 63
37 38 38 39 39 40 42 43 44 44 44 45 45 46 46 46 47 47 48 47 47 46 47 48 49 50 51 52 53 54 56 57 58 59 60 61 62 63 63 64 65 66 67
38 38 38 39 40 42 43 44 44 45 45 45 46 46 47 48 49 49 49 49 48 47 47 48 50 52 53 54 55 56 58 59 61 62 63 64 65 66 67 68 69 70 71
37 38 39 41 42 43 43 44 45 45 46 47 47 47 48 49 50 50 50 50 50 49 48 50 52 53 55 57 58 60 61 62 63 65 66 67 69 70 72 73 74 75 75
38 39 41 42 43 43 44 45 46 46 47 48 48 48 49 50 50 51 51 51 52 52 52 53 55 57 59 60 62 63 64 65 67 68 70 71 73 74 75 76 77 77 78
39 40 42 43 43 44 45 46 47 47 48 48 49 50 51 51 51 51 52 53 55 56 57 57 59 61 63 64 65 66 68 69 70 72 73 74 76 77 77 77 78 78 79
40 41 42 43 44 45 46 47 47 48 49 49 50 51 51 52 52 53 55 56 58 60 61 61 62 64 66 67 69 70 71 72 74 74 75 76 76 77 76 76 77 77 76
40 41 43 44 45 46 46 47 48 49 49 50 51 52 52 53 55 56 58 59 61 63 64 65 65 67 69 70 71 72 73 74 75 75 76 76 76 75 75 75 74 73 71
41 43 44 45 45 46 47 48 49 50 51 51 52 53 54 56 57 59 61 62 64 65 67 68 69 70 71 72 74 74 74 74 74 75 75 74 72 71 69 68 66 64 62
42 44 44 45 46 47 48 49 50 51 52 52 53 55 57 59 60 62 63 65 66 68 70 71 72 72 72 73 74 74 74 73 72 71 69 67 66 64 62 61 59 57 54
43 44 44 45 47 48 49 51 52 52 53 54 55 58 60 61 63 64 66 67 69 71 72 73 74 74 73 74 74 73 72 70 67 65 64 61 61 58 56 55 52 49 47
43 44 45 47 48 49 50 52 53 54 54 56 58 60 62 64 65 66 68 69 71 72 74 75 75 74 74 73 72 70 68 66 63 61 60 56 54 52 50 48 45 42 38
44 45 46 48 49 50 52 52 53 55 56 59 61 63 64 65 67 69 70 71 72 72 74 75 75 74 72 70 69 67 65 62 60 58 56 52 47 44 42 40 38 34 32
45 46 47 48 50 51 52 53 55 57 59 61 63 65 67 68 70 72 72 72 72 72 74 74 73 70 68 67 66 64 62 60 56 52 50 46 41 38 35 34 31 29 28
45 46 47 49 50 52 53 55 58 59 61 63 65 67 68 70 71 72 73 73 73 73 73 71 68 67 66 64 62 61 58 55 52 47 43 40 36 33 29 28 27 26 24

GEFSMA_500_meanwind_120.txt.gz
Wind_Speed
28 28 29 30 30 30 31 31 31 32 32 32 33 33 33 34 34 34 35 35 36 36 36 37 37 37 38 38 38 39 39 39 40 40 41 41 41 42 42 42 43 43 43
29 30 31 31 31 32 32 32 32 33 33 33 33 34 34 35 35 35 36 36 36 37 37 37 38 38 38 39 39 40 40 40 41 41 41 42 42 42 42 43 43 44 44
30 31 31 31 32 32 33 33 34 34 34 34 35 35 35 36 36 36 36 36 37 37 38 38 39 39 40 40 41 41 42 42 43 43 43 44 44 44 44 44 44 45 45
32 32 32 32 33 33 34 34 34 34 35 35 36 36 36 36 37 37 37 37 38 38 39 40 41 41 41 42 42 42 43 43 44 44 44 45 45 46 46 46 46 46 46
33 33 33 34 34 34 34 35 35 35 36 36 37 37 37 38 38 38 38 39 39 40 41 42 42 42 43 43 43 43 44 45 45 45 46 46 46 46 47 47 47 47 48
34 34 34 35 35 35 35 35 35 36 36 37 38 38 38 38 39 39 39 40 41 41 42 43 43 43 43 43 44 44 45 45 46 46 46 46 47 47 47 48 48 49 49
35 35 35 35 35 35 36 36 36 37 37 38 38 38 39 39 40 40 40 41 43 43 43 43 43 43 43 44 44 45 45 45 46 46 47 47 47 48 48 49 50 50 51
36 36 36 36 36 36 37 37 37 37 38 38 38 39 39 40 40 41 42 43 43 43 43 44 44 44 45 45 45 46 46 46 47 47 47 48 48 49 49 50 50 51 51
36 37 36 37 37 37 37 37 37 38 38 39 39 39 39 40 40 41 42 43 44 44 44 45 45 45 46 46 46 46 46 46 47 47 48 49 49 50 50 51 51 52 52
37 37 37 37 37 37 37 37 38 38 39 39 39 40 41 41 41 41 42 43 44 44 45 45 46 46 47 47 47 47 47 47 48 48 49 49 50 51 52 52 53 54 54
38 38 38 38 38 38 38 38 38 38 39 40 40 41 41 42 42 43 43 43 44 45 45 46 46 47 48 48 48 48 48 49 49 49 50 51 52 53 53 54 55 56 56
38 38 38 38 38 38 38 38 38 39 40 41 41 41 42 43 43 44 44 44 44 45 46 47 48 48 49 48 49 49 50 50 51 52 53 54 55 56 57 58 58 59 60
37 38 38 38 38 38 38 39 39 40 41 41 42 43 43 44 45 45 45 45 45 45 47 48 49 49 49 49 50 51 52 53 55 56 57 58 59 60 61 62 63 64 65
38 38 38 38 38 38 39 39 40 41 41 42 43 44 44 45 46 46 46 47 46 47 47 48 49 50 50 51 52 54 55 57 58 60 61 62 63 64 65 67 68 69 70
38 37 37 37 37 38 39 40 41 41 42 43 44 45 45 46 47 47 48 49 49 48 47 48 50 51 53 54 56 57 59 60 61 63 64 65 66 68 70 71 72 73 73
37 37 37 36 37 38 40 41 41 42 43 44 45 46 47 47 48 49 49 50 51 51 50 51 52 54 56 58 60 61 62 63 64 65 67 68 70 72 73 74 75 76 77
36 36 36 37 38 39 40 41 41 42 43 45 46 47 47 48 49 50 50 51 52 53 54 54 56 57 60 61 63 64 65 66 67 69 70 72 73 75 75 76 77 77 77
36 36 36 37 38 39 40 41 42 43 45 46 46 47 49 50 51 51 52 53 55 56 57 57 59 61 63 64 65 66 67 69 70 72 73 74 75 76 76 76 75 75 74
35 36 36 37 38 39 40 41 43 44 45 46 47 49 50 51 52 53 54 56 57 59 60 62 63 64 65 66 67 68 70 71 72 73 75 75 75 74 74 73 73 72 71
35 35 36 38 39 40 41 42 43 44 45 47 48 50 52 53 54 55 57 58 60 61 63 65 66 66 67 68 69 70 70 71 72 73 73 73 72 71 71 70 69 68 67
35 36 37 38 39 41 42 43 44 45 46 48 50 51 53 54 56 57 59 60 62 64 65 67 67 67 68 69 71 71 71 71 70 70 70 69 68 67 66 66 65 64 62
35 36 37 38 40 41 42 43 44 46 47 49 51 53 54 55 57 59 61 63 65 66 68 68 69 69 70 71 71 71 71 70 68 68 67 65 64 63 62 61 60 57 54
36 36 37 39 40 41 43 44 45 47 48 50 52 53 55 56 59 61 62 64 66 68 70 70 70 71 71 71 71 70 69 68 67 65 64 60 60 58 57 56 54 51 47
36 37 38 39 40 42 43 45 46 48 50 51 53 54 56 58 60 62 64 66 67 68 69 70 71 71 70 70 69 68 67 65 63 61 60 57 54 52 52 51 48 44 40
36 37 38 39 41 42 44 46 47 49 50 52 53 55 58 60 62 64 66 67 67 68 69 70 70 69 68 68 68 67 64 62 59 57 55 53 50 48 46 44 41 37 34
36 37 38 40 41 43 45 46 48 50 51 52 54 57 59 61 63 65 67 67 68 68 69 68 67 67 66 66 65 64 61 58 56 52 50 49 46 43 39 36 34 31 28

GEFSMA_500_meanwind_126.txt.gz
Wind_Speed
24 24 26 27 27 28 29 30 30 31 32 32 33 33 34 35 35 36 36 36 37 37 37 38 38 39 39 39 40 40 41 41 41 42 42 42 42 42 42 42 42 42 43
25 26 27 28 29 29 30 31 31 32 33 33 34 35 35 36 36 37 37 37 38 38 38 39 39 39 39 40 40 41 41 42 42 42 43 43 43 43 43 43 43 43 44
27 28 28 29 30 30 31 32 32 33 34 34 35 36 36 36 37 38 38 38 39 39 39 39 39 39 40 41 41 42 42 42 43 43 43 43 43 43 43 44 44 44 44
28 29 29 30 31 32 32 33 33 34 35 35 36 36 37 37 38 38 39 39 39 39 39 40 40 40 41 41 42 42 42 42 43 43 43 43 43 44 44 44 44 44 44
30 30 31 31 32 33 33 34 35 35 36 36 37 37 37 38 39 39 39 39 39 40 40 40 40 41 41 41 42 42 42 43 43 43 43 43 43 44 45 45 45 45 45
31 31 32 33 33 34 34 35 35 36 37 37 38 38 38 39 39 39 40 40 40 40 40 41 42 42 42 42 42 42 42 42 42 42 43 43 44 44 45 45 45 45 45
32 33 33 33 34 34 35 36 36 37 37 38 38 38 39 39 39 40 41 41 41 41 41 42 42 41 42 42 42 42 42 43 43 43 44 44 45 45 45 45 45 45 45
34 34 34 34 35 35 36 37 37 38 38 38 39 39 39 39 40 41 41 42 42 41 42 42 42 42 43 43 43 43 44 44 44 45 45 45 45 45 45 45 45 46 46
35 35 35 36 36 36 37 37 38 38 38 39 39 39 40 40 40 41 41 42 42 42 42 43 43 43 43 44 44 44 45 45 46 46 46 46 45 46 46 46 47 47 48
36 36 36 36 36 37 38 38 38 39 39 39 40 41 41 41 41 41 41 42 42 43 43 44 44 44 44 45 45 46 46 47 47 47 47 47 47 47 48 49 49 50 50
37 37 37 37 37 38 39 39 39 39 39 40 40 41 41 41 42 42 42 42 43 43 44 44 44 45 46 46 47 47 48 48 48 49 49 49 50 51 51 52 53 53 54
37 37 37 38 38 39 39 39 38 39 39 40 41 41 41 42 42 43 42 43 43 44 44 45 46 47 48 48 49 49 49 50 50 51 52 52 53 54 55 56 57 57 58
38 38 38 38 38 39 39 38 38 39 39 40 41 41 41 42 43 43 44 44 44 44 45 47 48 49 49 50 51 51 52 52 53 54 55 56 57 58 59 60 61 62 64
38 38 38 39 39 38 38 38 38 39 40 40 40 41 42 43 44 44 45 45 45 45 46 48 49 50 51 52 52 53 54 55 56 57 58 60 61 62 64 65 67 67 68
38 38 38 38 38 38 38 38 39 39 40 40 40 42 43 44 45 45 45 46 47 47 48 49 51 52 53 54 55 56 57 58 59 61 62 64 65 67 68 69 69 69 70
38 38 38 38 38 38 38 38 39 40 40 40 41 43 44 45 45 45 47 48 49 50 50 51 52 54 55 56 57 58 60 61 63 65 67 68 69 69 69 69 68 69 70
37 37 37 37 37 37 38 38 39 40 40 41 43 43 44 44 45 47 48 49 50 52 52 53 55 56 57 58 60 61 63 65 67 68 69 70 69 69 68 68 69 70 70
36 37 37 37 37 37 38 38 39 40 41 42 43 43 44 45 46 48 49 51 52 53 55 56 57 58 59 61 62 64 66 68 69 70 70 69 69 69 69 70 70 70 69
36 36 37 37 37 37 38 38 39 41 41 42 43 44 45 46 47 49 51 52 54 56 58 58 59 60 61 64 65 66 67 69 70 70 70 70 70 70 70 70 69 69 68
36 36 36 36 36 37 38 39 40 41 41 42 43 44 45 47 49 50 52 54 56 58 59 60 61 62 64 65 67 67 68 69 70 71 70 71 70 70 69 68 67 66 64
35 35 35 36 36 37 38 39 40 40 41 42 43 45 47 48 50 52 54 56 57 59 60 62 63 64 65 67 67 69 69 69 69 69 69 69 68 67 67 65 63 60 57
34 35 35 35 36 37 38 39 40 41 41 43 44 46 48 50 52 53 55 57 58 60 62 63 64 66 67 67 68 69 69 69 67 66 66 64 65 63 62 60 58 54 52
34 34 34 35 36 37 38 39 40 41 42 43 45 47 49 51 53 54 55 57 60 62 63 65 66 67 67 67 68 68 68 67 66 65 64 62 61 59 58 56 53 50 48
33 33 34 35 36 37 38 39 40 41 43 45 46 48 50 52 53 55 56 58 60 62 64 65 66 66 66 67 67 67 67 66 65 65 64 60 57 55 53 50 48 46 44
33 34 34 35 36 37 38 40 41 42 44 45 47 49 51 52 54 56 57 59 61 63 64 65 65 65 66 66 67 67 67 66 64 62 60 58 54 50 47 46 45 42 39
33 33 34 35 36 38 39 40 42 43 45 46 48 50 51 53 55 57 59 61 62 63 63 63 63 64 65 66 66 67 67 65 62 58 56 53 50 46 41 41 40 37 33

GEFSMA_500_meanwind_132.txt.gz
Wind_Speed
20 21 22 22 23 24 25 26 26 27 28 28 29 30 31 31 32 33 33 34 34 35 35 36 37 37 38 38 38 38 38 39 39 39 40 40 40 41 41 41 41 40 40
21 22 23 23 24 25 26 26 27 27 28 29 30 31 32 32 33 33 34 34 35 35 36 37 37 38 38 39 38 39 39 39 39 40 40 40 40 40 40 40 40 40 41
23 23 24 24 25 26 27 27 28 28 29 30 31 32 32 33 34 34 35 35 36 36 36 37 37 38 39 39 38 39 39 39 39 39 39 40 40 40 40 40 40 40 40
24 24 25 25 26 27 27 28 29 29 30 31 32 33 33 34 35 35 35 36 36 37 37 37 38 39 39 39 39 39 39 39 39 39 39 39 39 39 39 39 39 40 40
25 26 26 27 27 28 29 29 30 30 31 32 33 33 34 35 35 35 36 36 37 37 38 38 39 39 39 39 39 39 39 39 39 39 39 39 39 39 39 39 40 40 40
26 27 27 28 29 29 30 31 31 32 32 33 33 34 35 35 35 36 36 37 38 38 38 39 39 40 40 40 40 39 39 39 39 39 40 40 40 40 40 40 40 40 41
28 28 29 29 30 31 31 32 32 33 33 34 34 35 35 36 36 36 37 38 38 38 39 39 40 40 40 40 40 40 40 40 40 40 40 41 41 41 41 41 41 42 42
29 29 30 31 31 32 32 33 33 33 34 34 35 36 36 36 36 37 38 38 38 39 40 40 41 41 41 41 41 41 41 41 41 42 42 42 42 43 43 43 43 44 45
31 31 32 32 33 33 33 34 34 34 34 35 35 36 36 36 37 38 38 39 39 40 41 41 41 41 42 41 42 42 42 42 43 43 43 44 44 44 45 45 46 47 48
32 33 33 33 34 34 34 34 35 35 35 35 36 36 37 37 37 38 38 39 40 41 41 42 42 42 42 42 43 43 43 44 44 45 45 46 46 46 47 48 49 50 51
34 34 34 34 34 35 35 35 36 36 36 36 36 37 37 38 38 39 39 40 41 42 42 43 43 43 43 44 44 44 45 45 46 47 47 48 48 49 50 51 52 53 54
35 35 35 35 35 35 36 36 36 36 36 37 37 37 37 38 39 39 40 40 41 42 43 44 44 44 45 45 45 46 46 47 48 49 49 50 51 52 53 54 55 57 58
35 36 35 35 35 36 36 37 36 36 36 37 37 37 38 39 40 40 41 42 43 43 44 44 44 45 46 47 48 48 48 49 50 51 52 53 55 56 56 57 59 60 61
37 37 36 36 36 36 36 37 36 36 37 37 37 38 39 40 40 41 42 43 44 44 44 45 45 47 48 49 50 50 52 53 54 55 56 57 58 58 59 61 62 64 65
37 37 36 36 36 36 36 37 36 36 37 37 38 39 39 40 41 41 43 44 45 45 45 46 47 49 51 51 52 54 55 56 57 57 58 59 60 61 63 64 66 67 67
37 37 37 36 36 36 37 37 37 37 37 38 38 39 40 41 41 42 43 44 45 46 47 48 49 51 52 54 55 56 57 58 58 59 60 61 63 64 65 67 67 67 67
38 37 37 36 36 36 37 36 37 37 38 38 39 40 41 41 42 43 44 45 46 47 48 49 51 53 54 55 56 57 58 59 60 61 62 64 65 66 67 67 66 66 66
38 37 36 36 36 36 37 37 37 38 38 39 39 40 41 41 42 44 45 46 47 48 50 51 53 54 55 57 58 59 60 61 62 63 64 65 66 67 67 66 66 66 65
37 36 36 36 36 37 37 37 37 38 39 39 39 40 41 42 43 44 45 46 48 50 52 53 54 56 57 59 60 61 62 63 64 65 65 65 66 66 65 65 66 65 65
36 36 36 36 36 36 37 37 37 38 38 38 39 40 41 42 43 44 46 47 49 51 53 54 56 57 59 61 62 63 63 64 64 64 64 65 65 65 65 65 65 64 63
36 36 35 36 36 36 37 37 37 37 38 38 39 40 41 42 43 45 47 49 51 53 54 56 57 59 61 62 63 63 64 64 63 64 64 64 64 65 65 64 64 62 59
35 35 35 35 35 36 36 36 36 37 37 38 39 40 41 43 44 46 48 50 52 54 56 57 59 60 62 63 63 63 64 63 62 62 62 62 64 64 63 63 61 58 55
34 34 34 35 36 36 36 36 36 36 37 38 40 41 42 43 45 47 49 51 53 55 57 59 60 61 62 62 62 62 61 61 61 61 62 62 62 62 61 59 56 53 50
34 34 35 35 35 35 35 35 36 37 38 39 40 41 43 44 46 48 50 52 54 56 58 59 60 61 61 61 61 60 60 60 61 62 62 62 61 60 57 55 51 49 46
33 34 34 34 35 35 35 35 36 37 37 39 40 42 43 44 47 49 50 52 55 57 58 58 58 59 59 59 60 60 60 61 62 62 62 61 58 55 53 50 48 44 41
32 33 33 33 34 34 34 35 35 36 38 39 40 42 43 45 47 49 51 53 55 56 56 56 57 58 58 58 59 61 61 61 61 60 59 56 53 50 47 46 43 39 36

GEFSMA_500_meanwind_138.txt.gz
Wind_Speed
20 19 19 20 20 20 20 21 22 23 24 24 25 26 27 28 29 30 31 32 33 34 34 35 35 35 36 36 37 37 38 38 38 38 39 39 39 39 39 39 38 38 38
20 20 20 20 20 21 21 22 23 24 24 25 26 27 28 29 30 31 32 33 34 34 35 35 35 36 37 38 38 38 38 38 39 39 39 39 39 39 39 39 39 38 38
20 20 20 20 21 22 23 23 24 24 25 26 27 28 29 30 31 32 33 34 34 35 35 36 36 37 38 38 38 38 39 39 39 39 40 40 39 39 39 39 39 39 39
21 21 21 21 22 23 24 24 25 25 26 27 28 29 30 31 32 33 33 34 35 35 36 36 37 38 38 38 38 39 39 40 40 40 40 40 40 40 40 40 40 40 39
22 22 22 22 23 24 25 25 26 26 27 28 29 30 31 32 33 34 34 35 35 36 36 37 38 38 38 39 39 40 40 40 40 41 41 41 41 41 41 41 41 41 40
23 23 24 24 25 25 26 27 27 28 29 30 30 31 32 33 34 35 35 36 36 37 37 37 38 38 39 39 40 40 41 41 41 42 42 42 42 42 42 42 42 42 41
25 25 26 26 26 27 27 27 28 29 30 31 32 32 33 34 35 35 36 36 37 37 38 38 39 39 40 40 41 41 42 42 43 43 43 43 44 44 44 44 44 44 44
26 26 27 27 28 28 28 29 30 30 31 32 33 33 34 34 35 36 36 37 38 38 38 39 40 40 41 41 42 43 43 43 44 44 44 45 45 45 46 46 46 46 46
28 28 28 29 29 29 30 30 31 31 32 33 34 34 35 35 36 36 37 37 38 38 39 40 41 41 41 42 43 44 44 44 45 45 46 47 48 48 48 48 49 49 49
30 30 30 30 30 31 31 32 32 33 33 34 34 35 36 36 37 37 37 37 38 39 40 41 41 42 43 44 44 45 46 46 47 48 49 50 50 51 51 51 52 52 52
31 31 31 31 31 31 32 33 33 33 34 35 35 36 36 37 38 38 37 38 39 40 41 41 42 43 44 45 46 47 47 48 49 50 52 52 53 53 53 54 54 55 55
32 32 32 32 32 32 33 34 34 34 35 35 36 36 37 38 38 38 39 39 40 41 41 42 43 44 45 46 47 48 49 50 52 53 54 55 55 55 56 56 57 57 57
34 34 33 33 34 34 34 34 34 34 35 36 36 37 38 38 39 40 40 41 41 41 42 43 44 45 46 47 48 49 51 52 54 55 56 57 57 58 58 58 59 59 60
35 35 35 35 34 34 34 35 35 35 36 36 37 37 38 39 40 41 41 42 42 42 42 43 45 46 48 49 50 51 53 55 56 58 59 59 60 60 61 61 62 62 63
36 36 36 35 35 35 35 35 35 35 36 37 37 38 39 39 40 41 42 43 43 43 43 44 46 47 49 50 52 54 56 57 59 61 61 62 62 63 63 63 64 64 65
38 37 37 36 36 35 35 35 35 36 37 37 38 38 39 40 41 42 43 43 44 45 45 45 47 49 51 52 54 56 58 59 62 63 63 63 63 63 64 64 64 64 64
38 37 37 36 36 36 35 35 36 37 37 38 38 39 40 41 41 42 43 44 45 46 46 47 49 51 52 54 56 58 60 62 63 63 63 63 63 63 64 64 64 63 63
38 38 37 37 37 36 36 36 37 37 38 38 39 39 40 41 42 43 43 44 45 46 47 48 50 52 54 56 58 60 61 62 62 63 63 63 63 63 63 63 63 62 62
38 37 37 36 36 36 37 37 37 38 38 38 39 39 40 41 42 43 44 45 46 47 48 50 51 53 56 58 59 60 61 61 62 62 62 62 62 62 62 63 62 61 61
38 37 37 36 37 37 37 37 37 38 38 38 38 39 40 41 42 43 44 45 46 47 50 51 53 55 57 58 59 60 60 61 60 60 61 61 62 62 62 61 60 59 59
38 38 37 37 37 37 37 37 37 38 38 38 38 40 41 41 42 43 44 45 46 49 51 53 55 56 58 58 59 59 60 59 59 60 60 61 61 60 60 59 59 58 56
37 37 36 36 36 36 37 37 37 37 37 38 39 40 41 41 42 43 44 45 48 50 52 54 55 57 58 58 59 59 59 59 59 60 60 60 60 59 59 58 57 56 54
36 36 36 35 35 35 35 36 37 37 37 38 39 39 40 41 42 43 45 46 48 51 53 55 56 57 57 58 59 58 58 59 60 60 60 59 59 58 57 57 55 53 51
35 35 35 34 34 34 35 36 36 37 37 38 38 38 40 41 42 44 45 47 49 51 53 54 56 57 58 58 58 58 58 59 61 62 61 59 57 56 55 55 53 51 48
35 34 34 34 34 34 35 35 36 36 36 37 37 38 39 41 42 43 46 48 50 52 53 54 55 57 58 58 58 58 59 60 60 61 60 58 56 55 54 53 50 47 44
33 33 33 33 34 34 34 34 35 35 36 36 37 38 39 41 42 44 46 48 50 51 52 54 55 57 57 57 58 59 60 61 61 59 58 57 55 53 51 49 46 43 41

GEFSMA_500_meanwind_144.txt.gz
Wind_Speed
24 23 22 21 21 20 19 20 20 20 20 20 21 22 23 23 24 25 26 27 28 29 30 31 32 33 34 34 35 35 35 35 35 36 36 36 37 37 38 38 38 38 37
25 24 23 22 21 20 20 21 21 21 20 21 22 22 23 24 25 26 27 28 29 30 31 32 33 33 34 35 35 36 36 36 36 37 37 37 38 38 38 38 38 38 38
25 24 23 23 22 21 21 21 21 21 21 22 22 23 24 25 27 27 28 29 30 31 32 33 34 34 35 36 36 36 37 37 37 38 38 39 39 40 40 40 39 39 39
26 25 24 23 23 22 22 22 22 22 22 22 23 24 25 26 27 28 29 30 31 32 33 34 35 36 36 37 37 37 38 38 39 39 39 40 41 41 41 41 41 41 41
26 25 24 24 23 23 23 23 22 23 23 23 24 25 26 27 28 29 30 31 32 33 34 35 36 36 37 38 38 39 39 39 40 40 41 42 42 42 42 42 42 43 43
27 25 24 24 24 23 23 23 23 23 23 24 25 26 27 28 29 30 31 32 33 34 35 36 36 37 38 39 40 40 40 41 41 42 43 43 44 44 44 44 44 45 45
27 26 25 25 24 24 23 24 24 24 25 25 26 27 28 29 30 31 32 33 34 35 36 36 37 38 39 40 41 41 42 42 43 43 44 44 45 45 45 46 46 47 48
28 28 27 26 25 25 24 25 25 26 26 27 28 29 29 30 31 31 33 34 35 35 36 37 38 39 40 41 42 43 43 43 44 45 46 46 47 47 47 48 49 50 51
30 29 28 27 26 26 26 26 27 27 28 29 29 30 30 30 31 32 33 34 35 36 37 38 39 40 41 42 43 43 44 44 46 47 47 48 49 50 51 52 53 53 54
30 30 29 28 27 27 27 28 29 29 29 29 30 31 31 32 32 33 34 35 36 37 38 39 40 41 42 43 44 45 45 46 47 48 49 51 52 52 53 55 56 56 57
31 30 30 29 29 29 29 29 29 30 30 30 31 32 32 32 34 34 34 35 36 37 39 40 41 42 43 44 45 46 47 48 49 50 51 53 54 55 56 57 58 59 60
32 31 31 30 29 29 30 30 30 30 31 32 32 32 33 33 34 35 36 36 37 38 40 41 42 43 44 45 46 47 48 50 51 52 54 55 56 57 59 59 60 61 62
33 32 32 31 30 30 31 31 31 31 32 32 33 33 34 34 35 36 37 37 38 39 40 42 43 44 45 46 47 48 50 51 53 55 56 57 58 59 60 60 62 63 63
34 34 33 32 31 31 31 31 31 32 33 33 33 34 34 35 36 36 38 38 39 40 41 42 44 45 46 47 48 50 52 54 55 56 57 58 59 60 61 63 64 63 62
36 35 34 34 33 32 32 32 32 33 33 34 34 34 35 36 36 37 38 39 41 41 41 43 44 45 46 48 50 51 53 55 56 57 58 59 61 62 63 64 63 63 62
37 36 36 35 34 33 33 33 33 34 34 34 35 35 35 36 37 38 39 40 41 42 42 43 45 46 47 49 51 53 55 56 57 58 59 61 62 63 64 63 62 62 61
38 37 37 35 35 34 34 34 34 35 35 35 35 36 36 37 37 38 40 41 42 43 43 44 45 47 48 50 52 54 55 57 59 60 61 62 63 63 62 62 62 61 61
39 38 38 37 36 35 35 35 35 35 36 36 36 36 36 37 38 39 40 41 42 43 44 44 46 48 49 51 53 55 57 58 60 61 62 63 63 62 61 61 61 61 60
39 39 39 38 36 36 36 36 35 36 36 36 36 36 37 37 38 40 41 42 43 44 44 45 46 48 50 52 54 56 58 60 61 62 63 63 62 61 61 61 61 60 59
41 40 39 38 37 36 36 36 36 36 36 36 36 37 37 38 39 40 41 42 43 43 45 46 47 49 51 54 55 57 59 60 61 62 61 61 60 60 60 60 59 58 57
42 41 40 38 37 36 36 36 35 35 35 36 36 37 37 38 39 40 40 41 42 43 45 46 47 50 52 55 56 58 59 59 60 60 59 59 59 59 58 58 58 56 55
42 42 41 39 37 36 36 36 36 35 35 36 36 36 37 38 39 39 40 41 42 44 45 47 48 51 53 55 56 57 58 59 59 58 57 57 57 57 57 57 56 55 54
42 41 39 38 37 37 36 36 36 36 36 36 36 36 37 37 38 39 40 41 42 44 45 47 50 52 53 54 56 57 57 58 57 56 55 55 56 56 56 55 54 53 53
40 38 37 37 37 36 36 36 36 36 35 35 35 36 36 36 38 39 39 41 42 44 46 48 50 52 53 54 55 56 56 56 55 54 54 54 55 55 54 54 53 52 50
38 37 37 37 36 35 35 35 35 35 34 35 35 35 35 36 37 38 39 41 42 44 46 48 50 52 53 55 55 55 54 54 53 53 53 54 54 54 53 52 52 50 47
37 37 37 36 35 35 34 34 34 34 34 34 34 34 35 36 37 38 39 40 41 43 46 49 51 52 53 54 53 53 53 52 52 52 53 53 53 53 52 51 50 47 45

GEFSMA_500_meanwind_150.txt.gz
Wind_Speed
29 27 25 24 23 22 21 20 20 19 19 20 20 21 21 21 21 22 23 24 25 27 28 29 30 31 32 33 34 35 35 36 37 37 38 39 39 40 40 40 40 40 40
30 28 26 25 24 23 22 21 20 20 20 20 21 21 22 22 22 23 24 25 26 27 28 29 30 32 33 34 35 35 36 37 38 39 40 40 40 41 41 41 41 41 41
31 29 27 26 24 23 22 22 21 21 21 21 22 22 23 23 24 24 25 26 27 28 29 30 32 33 34 35 35 36 37 38 39 40 41 41 42 42 42 42 42 43 43
31 29 28 26 25 24 23 22 22 22 22 22 22 23 24 24 25 25 26 27 28 29 30 31 33 34 35 35 36 38 39 40 41 42 42 43 43 44 44 44 44 44 44
32 30 29 28 26 25 24 23 23 23 23 23 23 24 25 25 25 26 26 28 29 30 31 32 33 35 36 37 38 39 40 41 42 43 44 44 45 45 46 46 46 46 46
32 31 30 29 27 26 25 24 24 24 24 24 24 25 26 26 26 27 27 29 30 31 32 33 35 36 37 38 39 40 41 42 44 44 45 46 47 47 48 48 48 48 48
33 32 31 29 28 27 26 26 25 25 25 25 25 26 27 27 27 28 29 30 31 32 33 34 35 36 37 39 40 41 43 44 45 46 47 48 48 49 49 49 50 50 51
34 33 31 30 29 28 27 27 26 26 26 26 26 27 27 27 28 29 30 31 32 34 35 35 36 37 38 39 41 42 44 45 46 47 48 49 50 51 51 51 52 52 53
36 34 32 31 30 29 28 27 27 27 27 27 27 27 28 28 29 30 31 32 33 34 35 36 37 38 39 41 42 44 45 46 47 49 50 51 52 52 52 53 54 55 55
37 35 33 32 32 31 30 29 28 28 28 28 27 28 29 30 30 31 32 33 34 35 36 37 39 39 40 42 43 45 47 47 48 50 51 52 53 54 54 55 56 57 57
37 36 34 33 33 32 30 30 29 29 29 29 29 29 30 31 32 32 32 33 34 36 37 38 39 40 41 43 45 46 48 48 50 51 53 53 54 55 57 58 59 59 60
37 36 35 34 33 32 31 30 30 30 30 29 29 30 30 31 32 33 33 34 35 36 38 39 40 41 42 44 46 47 48 49 51 53 54 55 56 57 59 60 60 61 62
37 36 36 34 34 33 32 32 31 30 30 30 30 30 31 32 33 34 34 35 36 37 38 40 41 42 43 45 46 48 49 50 52 54 55 56 57 59 60 61 62 62 62
38 38 37 36 35 34 34 33 32 31 31 31 31 32 32 33 34 35 35 36 37 38 39 40 42 43 44 46 47 48 50 51 53 55 55 56 58 60 61 62 62 62 62
40 39 38 37 36 35 34 33 32 32 32 32 32 33 33 34 35 36 37 37 38 38 39 40 42 43 45 46 48 49 51 52 54 56 56 58 60 61 62 62 62 61 60
41 40 39 38 36 35 35 34 33 33 33 33 33 33 34 34 36 37 38 38 39 39 39 41 43 44 46 47 49 50 51 53 55 56 57 59 61 61 62 62 61 59 58
41 40 39 38 37 36 35 35 34 34 33 33 34 34 34 35 36 37 38 38 39 40 40 41 43 45 46 48 49 50 52 54 56 57 58 60 61 61 61 61 59 58 58
42 40 40 39 38 36 36 35 35 35 34 34 34 34 34 36 37 38 38 39 39 40 41 42 44 45 47 48 49 51 53 55 56 57 59 60 60 61 60 59 58 58 57
42 41 40 39 38 37 36 36 36 35 34 34 34 34 35 37 37 38 38 38 40 41 42 43 44 46 47 48 49 51 54 56 56 58 59 59 60 60 59 58 58 57 57
44 42 41 40 38 37 37 37 36 35 35 35 35 35 36 37 37 37 38 39 40 41 42 43 44 46 47 49 49 52 54 55 56 57 58 59 59 59 59 58 58 57 57
45 43 41 41 40 39 38 37 36 36 36 36 35 35 36 37 37 38 38 39 40 41 42 43 45 46 47 49 50 53 53 54 55 57 58 59 59 59 58 58 57 57 57
46 45 43 42 41 40 38 37 37 37 36 36 35 36 37 37 37 38 39 40 41 42 43 44 45 46 48 49 51 52 53 54 55 57 57 58 58 58 57 57 57 57 57
47 45 45 44 42 41 39 38 37 36 37 36 36 36 36 36 37 38 39 40 41 41 42 43 45 46 48 49 51 52 53 55 56 57 57 57 58 57 56 56 56 57 57
48 46 45 44 43 41 40 39 39 38 37 35 35 36 36 36 37 38 39 40 41 41 42 43 45 46 48 50 51 52 53 55 56 57 57 57 57 56 56 56 57 57 56
47 46 45 44 43 42 40 40 39 37 36 35 35 36 36 37 38 38 39 40 40 41 42 42 44 46 48 49 50 52 53 55 55 56 57 57 56 55 56 57 57 56 54
47 46 45 44 43 42 41 39 38 37 37 36 36 36 36 36 37 38 39 40 40 40 41 43 44 46 47 49 50 52 53 54 54 55 57 56 55 55 55 56 56 54 52

GEFSMA_500_meanwind_156.txt.gz
Wind_Speed
38 36 34 33 31 29 28 26 25 24 23 22 20 20 19 19 18 19 20 20 21 22 22 23 24 25 26 27 29 30 32 33 34 35 36 37 37 38 39 40 41 42 42
39 38 36 34 32 30 29 28 26 25 24 23 21 20 20 20 20 20 20 21 22 23 24 24 25 26 28 29 30 31 33 34 35 36 37 38 39 40 41 42 42 43 44
40 39 38 36 34 32 30 29 27 26 25 24 22 21 21 21 21 21 21 22 23 24 25 26 26 28 29 30 31 32 34 35 36 37 38 39 40 41 42 43 44 45 45
41 40 39 37 35 33 31 30 28 27 26 24 23 23 22 22 22 22 23 24 24 25 26 27 28 29 30 31 32 34 35 36 37 39 40 41 42 43 44 45 46 46 47
42 40 39 38 36 34 32 31 29 28 27 26 24 23 23 22 23 23 24 25 26 27 27 28 29 30 31 32 34 35 36 37 39 40 42 43 44 45 46 47 47 48 48
43 42 40 38 36 35 33 32 30 29 28 26 25 25 24 24 24 25 25 26 27 27 28 29 30 31 33 34 35 36 37 39 40 41 43 44 45 46 47 48 49 49 50
44 42 40 39 37 35 34 33 31 30 28 27 26 26 25 25 25 26 26 27 28 28 29 30 31 33 34 35 36 37 38 40 41 43 44 46 46 47 48 49 50 51 52
45 43 41 39 38 36 35 33 32 30 29 28 27 27 26 26 26 27 27 28 28 29 29 31 32 34 35 36 37 38 39 41 42 44 45 47 47 48 49 51 52 53 54
45 44 42 41 39 37 36 34 33 32 30 30 29 28 28 27 28 28 28 29 29 30 31 32 34 35 36 37 38 39 41 42 43 45 46 47 48 49 51 52 54 55 55
46 45 44 42 40 38 36 35 35 33 32 31 30 29 29 29 29 29 29 30 30 31 32 33 35 36 37 38 39 41 42 43 44 46 47 48 49 51 52 54 56 56 56
47 46 44 43 41 39 38 36 35 34 33 32 31 31 30 30 30 30 31 31 32 32 33 34 36 37 38 39 40 41 43 44 45 47 48 49 51 52 54 56 57 57 58
48 47 45 44 42 40 39 38 36 35 34 34 33 32 31 31 31 32 32 32 32 33 34 35 36 37 38 40 41 42 43 45 46 47 49 50 52 54 55 57 57 58 58
48 47 45 44 43 41 40 39 38 37 36 35 34 33 33 32 33 33 33 33 33 34 35 36 37 38 39 40 41 43 44 45 47 48 50 52 53 55 56 57 58 58 58
48 47 46 45 44 43 41 40 39 38 37 36 35 34 34 33 33 34 34 34 34 34 35 37 38 39 40 41 42 43 45 46 48 49 51 53 54 56 57 57 58 58 59
49 48 47 46 45 44 41 40 39 38 37 36 36 35 34 34 34 35 34 34 35 35 36 37 38 39 41 41 42 44 45 47 49 50 52 53 55 56 57 57 58 59 59
48 48 47 46 45 44 42 40 40 39 38 37 36 35 35 35 35 35 35 35 35 36 37 38 39 40 40 42 43 45 46 47 49 51 52 54 55 56 57 58 58 59 58
48 48 47 47 45 44 43 41 40 39 38 37 37 36 36 36 35 35 35 35 36 37 37 38 39 40 41 42 44 45 47 48 50 51 53 55 55 56 57 58 58 58 58
48 47 47 46 45 44 43 41 40 40 39 38 37 36 36 36 35 35 35 35 36 37 37 38 39 40 41 43 45 46 47 49 50 52 54 55 55 56 57 58 58 58 58
50 47 46 46 45 44 43 41 40 40 39 38 37 37 36 36 35 35 35 36 37 37 38 39 40 40 42 43 45 46 47 49 51 53 54 55 55 57 58 58 58 58 58
51 50 48 46 45 44 43 42 41 40 40 39 38 37 37 36 36 36 36 37 37 38 38 39 40 41 42 43 45 46 48 50 52 54 54 55 56 57 58 58 58 58 58
52 51 49 47 45 45 43 42 42 41 40 39 37 37 36 36 36 36 37 37 37 37 38 39 39 40 42 44 45 47 49 51 52 53 54 55 56 57 57 57 57 58 58
52 51 50 47 46 45 43 42 41 41 40 38 37 37 37 37 36 36 37 36 36 37 38 38 39 41 42 44 46 47 49 51 52 53 54 55 56 57 58 57 57 58 57
52 51 50 48 45 44 43 42 42 41 40 38 37 37 36 36 36 36 36 36 36 37 38 39 40 41 43 45 46 48 50 51 52 52 54 55 57 57 57 57 57 57 57
53 51 49 48 46 44 43 41 41 41 39 38 37 36 36 35 35 35 35 35 36 37 38 38 40 42 44 45 46 48 50 51 51 53 54 55 56 57 57 57 57 57 55
53 52 49 47 46 45 44 42 42 41 40 38 37 36 35 35 34 35 35 35 36 36 37 39 41 43 44 45 46 47 49 50 51 52 54 55 55 57 57 57 57 56 53
51 51 50 48 47 45 44 43 42 41 40 39 38 37 35 35 35 34 34 35 35 36 38 40 42 42 43 44 46 47 49 49 50 52 53 55 55 56 56 56 55 53 50

GEFSMA_500_meanwind_162.txt.gz
Wind_Speed
45 44 42 41 39 37 36 34 32 31 30 28 27 26 25 24 24 23 23 22 22 22 22 23 24 24 25 26 28 29 30 31 33 34 35 36 37 38 40 41 42 43 44
47 45 44 42 41 39 37 35 34 32 31 30 28 27 26 25 25 24 23 23 23 23 24 24 25 26 27 28 29 30 31 32 34 35 37 38 39 40 41 42 43 44 45
48 47 45 43 42 40 38 37 35 33 32 30 29 28 27 26 25 25 24 24 24 24 25 26 26 27 28 29 30 31 32 34 35 37 38 39 40 41 42 43 45 46 46
49 47 46 44 43 42 40 38 36 35 33 31 30 29 28 28 27 26 25 25 25 25 26 26 27 28 29 30 31 32 34 35 37 38 39 40 41 42 44 45 46 47 48
50 49 47 45 44 43 41 39 37 36 34 32 31 30 29 28 27 27 26 26 26 26 27 27 28 29 30 31 33 34 36 37 38 39 40 41 42 43 45 46 47 49 49
52 51 48 46 45 44 42 40 39 37 35 33 32 31 30 29 28 28 27 27 27 27 28 28 29 30 31 33 34 35 37 38 39 40 41 42 43 45 46 48 49 50 51
52 51 49 47 46 44 43 41 40 39 37 35 33 32 31 30 29 29 28 28 28 28 29 29 30 31 33 34 35 36 38 39 40 41 42 44 45 46 48 49 50 52 53
51 50 50 48 46 45 43 41 40 39 38 37 35 33 32 31 31 30 30 29 29 29 30 31 32 33 34 35 36 38 39 40 41 42 44 45 46 48 49 51 52 53 54
52 50 50 49 47 46 44 42 40 39 38 37 36 34 33 32 32 31 31 31 31 31 31 31 33 34 35 36 37 39 40 41 42 43 44 46 47 49 51 52 54 55 56
52 51 51 49 48 47 45 43 41 39 39 38 37 36 34 33 33 32 32 32 32 32 32 32 34 35 36 37 38 39 40 42 43 44 45 47 48 50 52 53 55 56 58
53 52 51 50 49 48 46 45 43 41 39 39 38 37 35 34 34 33 33 33 33 33 33 34 35 36 36 38 39 40 41 43 44 45 46 48 49 51 53 55 56 58 59
54 53 51 50 49 48 47 46 45 42 40 39 38 37 36 35 34 34 34 34 34 34 34 35 36 37 38 39 40 41 42 43 44 46 47 49 50 52 54 55 57 59 60
54 52 51 50 49 48 48 46 45 44 41 39 38 37 36 35 35 35 35 35 35 35 35 36 37 38 38 39 40 41 43 44 45 47 48 50 51 53 54 56 58 60 61
52 52 51 50 49 47 47 46 45 43 42 41 40 38 37 36 35 35 35 35 35 35 36 37 37 38 39 40 41 42 44 45 46 47 49 50 52 53 55 57 59 60 61
50 51 51 49 50 48 47 46 44 43 43 42 40 38 37 36 35 36 35 35 36 36 36 37 37 38 39 40 41 43 44 45 46 47 49 50 52 54 56 58 60 61 61
49 50 50 51 50 48 47 46 45 43 42 41 40 38 37 37 36 36 36 36 36 37 37 37 38 39 40 41 42 43 44 45 47 48 49 51 53 55 57 59 60 61 61
48 48 49 49 48 47 47 46 44 43 42 41 39 38 37 37 37 36 36 37 37 37 37 37 38 39 40 41 41 43 44 45 47 48 50 52 54 56 58 59 60 61 61
50 49 48 47 46 45 45 44 43 42 41 40 39 38 38 38 37 36 37 37 36 36 37 38 38 38 39 40 42 43 44 45 46 48 51 52 54 57 58 59 60 61 62
49 50 49 47 45 44 44 44 43 42 41 39 39 38 38 37 37 36 36 36 36 36 37 37 38 38 40 41 42 43 44 45 47 49 51 53 55 57 58 59 61 62 62
49 49 49 48 46 44 44 43 43 42 41 40 39 38 38 37 37 36 36 36 36 36 37 37 37 38 40 41 42 42 44 46 47 50 52 54 56 57 58 60 61 62 61
48 47 48 49 47 45 44 43 42 42 41 39 39 38 38 37 37 36 35 35 36 36 36 37 38 38 39 40 41 42 44 46 48 50 52 54 56 57 58 60 61 62 61
50 46 47 47 47 46 44 43 42 41 39 39 39 38 37 36 35 34 34 35 36 36 36 37 37 38 39 39 41 43 45 46 48 50 52 54 55 57 59 61 62 62 62
50 47 45 46 46 46 45 43 42 40 38 38 38 37 36 34 34 34 35 36 36 35 36 37 37 38 39 40 42 44 46 47 49 51 52 53 55 58 60 62 62 62 61
50 47 45 44 44 44 44 43 42 40 38 38 38 37 36 35 34 34 34 35 35 35 35 36 36 38 39 40 42 44 45 47 50 51 52 53 55 58 61 61 61 61 59
50 48 45 43 42 43 43 42 42 40 37 36 36 36 35 35 34 34 34 33 33 34 34 34 36 38 39 41 42 44 46 48 49 50 51 53 55 58 60 60 60 58 56
49 48 45 42 41 42 42 41 40 40 38 37 36 35 34 34 34 33 33 32 32 33 33 34 36 37 39 40 42 43 45 47 48 49 50 53 56 58 58 58 57 54 51

GEFSMA_500_meanwind_168.txt.gz
Wind_Speed
49 48 46 44 43 42 40 39 38 37 36 34 32 31 30 29 28 27 26 26 25 25 25 25 25 25 25 26 27 28 28 29 30 31 32 33 34 35 36 37 39 41 42
50 49 48 46 45 43 42 41 39 38 37 36 34 32 31 30 29 28 27 27 26 26 26 26 26 26 27 27 28 29 30 31 32 33 34 35 36 36 37 39 40 42 44
53 50 49 49 47 45 44 42 41 39 38 37 35 34 33 31 30 29 28 28 27 27 27 27 27 27 27 28 29 30 31 32 33 34 35 36 37 38 39 40 42 44 45
55 52 51 50 49 48 46 44 42 41 39 38 36 35 34 33 31 30 29 29 28 28 28 28 28 28 28 29 30 31 32 33 34 36 37 37 38 40 41 42 43 45 46
56 55 53 50 50 50 47 46 44 42 41 39 38 37 35 34 33 31 31 30 30 29 29 29 29 29 30 31 32 33 34 34 35 37 37 38 40 41 42 43 45 46 48
57 56 54 51 51 50 49 48 46 44 42 41 40 38 36 35 34 33 32 32 31 30 30 30 30 31 31 32 33 34 35 36 37 38 39 40 41 42 43 45 46 48 49
59 58 56 54 53 51 50 50 48 46 44 43 41 39 38 36 35 34 33 33 32 31 31 31 31 32 32 33 34 35 36 37 38 39 40 41 42 43 44 46 47 49 50
60 59 57 56 54 51 51 51 50 48 46 44 42 40 39 38 36 35 34 34 33 33 32 32 33 33 33 34 35 36 37 38 40 40 41 42 43 44 45 47 48 50 51
61 60 58 56 55 52 51 52 51 49 48 45 43 41 40 39 37 36 35 34 34 34 33 33 33 34 35 35 36 37 38 39 40 41 41 42 43 45 46 47 49 51 52
62 60 58 57 55 53 52 52 51 50 49 47 45 43 41 39 38 37 36 35 34 34 34 34 35 35 35 36 37 38 39 39 40 41 42 43 44 45 47 48 50 52 53
63 61 59 57 56 54 53 53 53 51 49 47 45 43 41 40 39 37 36 36 35 35 34 35 35 36 36 37 38 38 39 40 41 41 42 44 45 46 47 49 51 52 53
61 60 58 56 55 54 54 54 53 51 48 47 46 44 42 40 38 37 37 36 36 35 35 35 35 36 36 37 38 39 40 40 41 42 43 44 45 46 48 50 52 53 54
58 59 58 56 54 54 54 54 53 51 48 46 46 45 43 41 39 38 37 37 36 36 36 36 36 36 37 37 38 39 40 41 42 42 43 44 46 47 49 51 52 53 55
58 56 57 55 54 54 54 54 53 51 49 46 45 44 43 42 40 39 37 36 36 36 35 35 36 37 37 37 38 39 40 40 41 42 43 45 46 48 50 52 53 54 57
57 53 55 55 53 51 52 53 51 50 49 47 44 43 42 41 40 39 38 37 36 35 35 35 36 36 36 37 38 38 39 40 41 42 43 45 47 48 51 52 54 56 58
55 55 54 52 50 50 50 49 49 49 47 45 44 43 41 40 39 38 38 37 35 35 35 35 36 37 36 37 37 38 39 40 41 42 44 46 47 49 50 53 55 57 59
54 53 53 50 49 49 48 48 48 48 47 44 44 43 41 40 39 37 37 36 35 34 34 35 36 36 36 36 37 38 39 40 41 43 44 46 47 49 51 54 56 58 59
53 53 48 47 48 48 47 46 45 46 46 44 42 41 41 40 39 38 37 35 35 34 35 35 35 35 35 36 37 38 39 40 41 43 45 46 47 49 52 54 57 58 59
53 53 48 46 46 48 47 46 44 45 44 43 41 39 39 39 38 38 37 35 35 34 35 35 34 34 35 35 36 38 39 40 42 43 45 46 48 51 53 55 56 58 60
52 52 49 46 46 48 48 46 45 44 44 43 42 39 38 37 37 36 36 35 35 34 35 34 34 34 34 35 36 37 38 40 42 44 45 47 49 51 54 55 57 59 61
51 51 49 46 44 45 45 45 45 44 43 42 41 39 37 36 36 35 34 34 33 34 34 33 33 33 34 35 36 37 38 40 42 43 45 48 50 52 54 55 57 60 61
48 49 49 46 43 43 44 44 43 41 41 41 40 38 37 36 36 34 33 32 32 33 32 31 32 33 33 34 36 37 38 40 41 43 46 48 51 52 53 55 57 59 60
47 49 49 46 44 43 43 43 42 41 40 39 39 39 37 35 35 33 32 32 32 32 31 31 32 32 33 34 35 36 38 40 41 44 46 48 50 51 53 55 58 58 58
45 47 47 46 44 44 42 42 41 41 40 39 39 39 37 35 34 33 31 31 30 30 31 31 32 32 33 34 35 36 38 39 41 44 46 48 49 51 53 55 56 56 55
45 47 47 46 45 43 42 41 41 40 39 38 37 38 37 36 33 32 31 31 30 30 30 30 31 31 32 33 34 36 37 39 42 44 45 46 48 51 53 54 54 54 52
46 47 47 46 46 43 42 41 40 39 38 38 37 36 34 34 33 31 30 30 29 29 29 29 30 31 32 32 33 35 37 39 41 42 43 45 48 50 51 51 52 51 50

GEFSMA_500_meanwind_174.txt.gz
Wind_Speed
49 49 49 48 46 46 45 43 42 41 39 38 37 35 34 34 32 31 31 29 28 28 27 26 26 26 26 26 27 27 27 28 29 30 31 32 33 34 35 36 37 38 39
52 52 51 50 49 48 47 46 44 43 42 40 39 37 36 35 34 33 32 31 30 29 28 28 27 27 27 28 28 28 28 30 31 31 32 34 35 36 37 38 39 40 41
54 54 54 53 52 51 50 48 47 46 44 43 41 39 38 37 36 34 34 33 32 31 30 29 29 29 29 29 29 29 30 31 32 33 34 35 36 37 38 39 40 42 43
56 56 56 55 55 54 52 50 49 48 46 45 43 41 40 38 37 36 35 34 33 33 32 31 30 30 31 30 31 31 31 32 33 34 35 36 37 38 39 40 42 43 44
58 58 58 57 57 56 54 52 51 50 48 46 45 43 42 40 39 37 36 35 34 34 33 32 32 32 31 31 31 32 32 33 34 35 36 37 38 39 40 41 43 44 45
60 61 60 59 60 59 57 54 52 51 50 49 47 44 43 42 41 39 37 36 35 35 34 33 33 33 32 32 33 32 33 34 35 36 37 38 39 40 41 42 44 45 46
61 62 62 61 62 61 59 56 53 53 52 51 49 46 45 44 42 40 38 37 36 35 35 34 33 33 33 33 34 34 34 35 36 37 38 39 40 41 42 44 45 46 47
62 61 62 62 63 62 60 58 56 54 53 51 49 48 47 46 44 42 40 38 37 37 36 35 35 34 34 34 34 35 36 36 37 38 39 40 41 42 44 45 45 47 48
62 62 62 63 63 63 62 61 58 55 54 53 51 50 48 45 44 43 41 40 39 38 37 37 36 35 35 35 35 36 37 38 38 39 40 41 42 43 44 45 46 47 48
62 62 62 64 63 63 64 62 59 56 55 54 53 51 49 45 45 43 42 41 39 39 38 38 37 36 35 35 36 37 37 38 39 40 40 42 43 44 45 46 47 48 50
61 61 61 61 61 61 62 62 60 58 56 55 54 52 51 48 45 44 42 42 41 40 39 38 37 36 36 36 37 37 38 39 40 40 41 42 43 44 45 46 48 49 50
59 59 59 59 60 60 61 62 61 60 58 56 54 52 51 50 47 45 42 42 42 40 39 38 37 37 36 37 38 38 38 39 40 41 41 42 43 44 45 47 48 50 51
56 57 55 57 60 61 61 61 60 60 58 56 53 52 52 50 48 46 44 43 41 40 39 38 38 37 37 37 37 38 38 39 40 40 41 42 43 44 46 47 49 50 51
52 53 53 55 58 60 60 60 58 59 57 55 53 52 52 50 47 46 45 43 41 41 40 38 37 37 36 37 37 38 38 39 40 41 41 42 43 45 46 48 49 51 52
51 51 52 52 55 56 56 58 58 58 56 55 53 52 51 50 47 46 45 44 42 41 39 38 38 36 36 37 37 38 39 40 40 40 41 43 44 45 47 48 50 52 53
48 50 50 51 53 54 53 56 57 57 56 55 54 52 51 50 48 46 45 42 41 39 38 38 37 37 37 38 38 38 39 40 40 41 42 43 44 45 47 48 50 52 54
45 46 47 48 50 51 51 53 55 55 54 54 54 51 50 50 48 46 45 43 41 39 37 37 37 37 37 38 38 37 38 39 40 41 42 43 44 45 47 49 51 52 54
44 43 43 45 47 48 49 50 51 52 52 51 51 51 50 49 48 46 44 43 41 39 38 37 37 37 37 38 37 37 37 38 39 41 42 43 44 45 47 49 51 53 55
42 42 41 42 44 45 46 49 49 49 48 47 48 48 49 48 47 47 46 43 40 39 38 37 36 36 37 37 36 36 37 38 39 40 41 42 43 45 47 49 51 53 55
41 41 41 41 43 43 45 46 48 48 46 46 46 46 46 45 45 46 44 43 41 38 37 36 35 35 35 35 35 35 36 37 38 39 40 42 43 44 47 49 51 53 54
40 40 40 41 42 44 45 45 46 45 45 44 44 43 43 42 43 43 42 40 39 37 36 36 35 35 34 33 34 34 35 36 37 38 40 41 43 45 47 49 50 51 52
38 39 40 41 42 44 44 44 45 44 43 43 43 43 42 40 40 41 40 38 38 37 36 36 35 34 32 32 32 33 34 36 37 37 39 41 42 45 47 48 49 50 52
36 37 39 39 40 42 43 43 42 41 41 41 42 43 41 40 38 37 37 36 37 37 37 36 34 33 32 32 32 33 34 35 36 37 39 41 43 44 45 46 48 50 52
35 36 37 38 40 41 42 44 44 42 42 41 40 39 39 39 37 35 35 35 35 36 35 34 33 32 32 33 33 33 33 35 36 37 38 40 42 43 44 45 47 50 51
34 34 34 37 39 40 42 42 44 43 41 40 39 38 37 37 35 34 35 34 34 33 33 32 31 31 32 33 33 32 33 34 36 37 39 40 40 41 43 45 47 49 50
34 33 33 35 38 40 41 41 41 41 41 40 39 37 35 34 33 34 34 33 33 31 30 29 30 31 32 33 32 32 33 35 36 37 37 38 38 40 42 45 47 47 48

GEFSMA_500_meanwind_180.txt.gz
Wind_Speed
50 50 50 50 49 47 46 46 45 45 44 43 43 42 41 40 39 38 37 36 35 34 33 32 31 31 30 29 29 28 28 28 28 28 29 29 30 30 31 32 33 34 35
53 53 52 52 51 50 49 49 48 48 48 46 45 45 44 43 42 41 40 39 37 36 35 34 33 33 32 31 30 30 29 29 29 29 30 30 31 32 33 34 35 35 36
55 55 54 54 54 53 52 51 51 51 51 50 48 48 46 45 44 43 42 41 40 38 37 37 35 34 33 33 32 31 31 31 31 31 31 32 32 33 34 35 36 37 38
57 57 57 56 56 55 54 54 54 54 54 52 51 50 48 47 46 45 44 43 42 41 39 38 37 36 35 34 34 34 33 32 33 33 33 33 34 35 36 37 38 38 39
60 59 59 59 58 58 57 56 56 55 56 54 53 52 51 49 48 46 46 45 43 43 42 40 39 37 37 36 35 35 34 34 34 34 34 34 35 36 37 38 39 40 41
62 62 62 61 60 59 59 59 58 58 58 56 55 55 54 52 50 49 48 46 44 44 43 41 40 39 38 38 37 36 36 35 35 35 35 36 37 38 38 39 40 41 42
63 64 63 62 62 61 61 60 59 59 60 59 58 57 56 54 52 50 50 47 45 45 43 43 42 40 40 39 38 38 37 36 36 37 36 37 38 39 39 40 41 42 43
64 65 64 64 63 63 62 61 61 61 61 61 60 58 58 56 54 53 51 49 48 47 45 44 43 42 41 40 39 38 37 37 37 38 38 38 39 40 40 41 42 43 44
64 65 64 64 64 64 63 63 62 62 61 61 61 60 59 58 56 54 52 50 50 48 46 45 44 43 42 41 40 40 39 38 39 39 39 39 40 41 41 42 43 44 45
63 64 64 65 64 64 63 63 63 62 61 61 61 61 61 58 57 55 54 52 51 50 48 47 46 45 43 42 41 41 40 39 39 39 40 40 40 40 41 42 43 44 46
61 61 62 64 64 63 63 64 64 62 61 61 62 61 61 59 57 56 54 53 52 50 50 49 47 46 44 43 42 41 40 39 40 40 40 40 40 41 41 42 43 45 46
58 59 60 61 61 62 63 63 63 62 61 61 62 61 61 60 58 56 54 53 52 51 50 49 48 47 45 44 43 41 41 40 40 40 39 40 40 40 42 43 44 45 46
54 55 56 57 58 59 61 61 61 61 60 60 61 60 59 60 58 56 54 52 53 53 51 49 48 47 45 44 43 41 41 39 39 39 40 40 40 41 42 44 45 46 47
50 51 53 54 55 56 58 59 59 59 59 58 58 59 58 58 57 55 54 53 54 52 51 48 47 46 44 43 42 41 40 39 39 39 40 40 41 42 43 45 46 46 48
47 48 49 50 51 52 55 57 57 57 57 57 57 58 57 58 56 55 54 54 54 53 51 47 46 44 43 42 41 40 39 38 38 39 39 40 41 42 44 44 45 47 48
45 45 45 47 48 50 52 54 54 54 55 54 55 55 56 56 54 54 53 54 53 51 50 47 47 44 43 41 40 40 39 38 38 38 39 40 41 42 43 44 46 47 49
44 44 43 44 46 47 50 50 50 50 50 51 52 52 53 53 52 52 52 52 51 51 49 47 46 45 43 41 41 40 39 38 37 38 39 40 40 41 43 44 46 48 50
41 42 41 41 43 45 47 48 48 49 48 48 49 49 50 50 49 49 49 49 49 49 48 47 46 45 43 41 41 39 37 37 37 37 38 38 39 41 42 44 46 48 49
40 40 40 40 41 42 45 46 46 47 46 46 46 48 49 49 48 47 47 47 47 46 45 45 45 44 43 41 39 38 37 37 37 37 37 37 39 41 42 44 46 47 48
39 39 39 38 38 39 42 43 44 44 43 43 45 47 47 46 46 45 45 44 44 43 43 44 44 43 42 39 37 36 37 37 37 36 36 37 39 40 42 44 46 46 47
37 37 38 37 37 38 40 40 41 41 42 42 43 45 44 43 44 43 43 42 41 40 42 42 42 41 39 37 36 36 36 35 36 35 36 37 38 40 42 43 44 45 46
35 35 36 36 35 37 38 38 39 40 40 41 42 44 43 42 43 42 41 40 39 38 40 40 40 40 37 35 35 34 33 33 34 34 36 36 38 40 41 42 42 44 46
32 32 34 36 35 35 36 36 37 38 39 39 41 42 42 43 42 41 40 39 39 38 37 37 38 37 36 36 35 33 32 32 32 34 35 36 38 39 40 41 42 43 44
31 31 33 34 34 33 35 36 37 37 37 37 39 40 40 41 41 39 38 38 38 36 36 36 36 35 36 35 34 33 32 33 33 33 34 36 37 38 38 39 40 42 43
30 31 32 33 34 34 34 35 36 35 36 37 37 38 38 39 38 37 37 36 36 36 36 35 35 34 33 32 32 32 32 33 32 33 34 34 35 36 37 38 39 40 42
27 30 31 32 34 34 33 33 34 34 34 35 36 37 37 37 37 36 35 34 34 34 35 35 33 32 30 30 30 30 31 31 32 32 33 33 34 35 36 36 37 40 41

GEFSMA_500_meanwind_186.txt.gz
Wind_Speed
47 47 47 47 47 47 47 47 46 46 45 45 45 44 43 42 41 42 41 40 39 38 37 37 37 36 36 35 35 35 34 34 33 33 33 33 33 33 34 34 34 34 35
50 50 50 50 50 49 49 49 49 49 48 47 47 47 46 45 44 44 43 42 41 40 40 38 39 39 38 38 38 37 36 36 36 35 35 35 35 35 35 35 36 36 36
51 52 52 52 53 52 52 52 52 52 51 50 50 50 48 47 46 46 45 45 44 43 42 41 40 40 40 39 40 39 38 38 38 37 37 37 36 36 36 36 37 37 38
53 54 54 54 54 54 54 54 54 54 53 52 52 52 51 50 49 49 48 47 46 45 44 43 43 43 42 41 41 40 40 39 39 39 38 38 38 37 37 37 37 38 39
56 56 56 56 57 56 56 56 56 56 55 55 54 54 53 52 51 51 51 50 48 47 46 45 44 44 44 42 42 41 41 40 41 40 40 40 39 39 38 39 39 39 40
57 58 58 58 58 58 58 58 58 58 58 57 57 56 56 55 54 53 53 53 51 50 49 48 46 46 45 44 43 42 42 42 42 42 42 41 41 40 40 40 40 40 41
58 59 59 59 60 61 61 61 61 61 61 60 59 58 58 57 57 55 55 54 53 52 51 50 49 48 47 47 45 44 44 43 43 44 43 43 41 40 41 41 41 42 43
58 59 61 62 62 63 63 63 63 63 62 61 60 60 59 59 59 57 56 56 55 54 52 51 51 50 49 48 46 46 45 45 45 45 44 44 43 41 42 42 42 43 43
59 60 62 63 63 64 64 64 64 63 62 62 61 61 61 60 60 58 57 57 56 55 54 53 52 50 48 47 46 46 46 46 46 45 45 45 44 43 42 42 43 43 44
60 61 62 63 64 65 64 63 63 63 63 63 62 61 62 61 60 58 57 57 57 56 55 53 52 50 49 48 47 47 47 46 45 45 46 45 44 44 44 43 44 44 44
61 61 62 63 63 64 64 63 63 63 63 63 63 62 61 61 60 59 57 56 56 56 55 54 52 50 50 49 48 49 48 46 45 45 45 45 44 44 44 44 44 44 43
62 61 62 62 62 62 62 62 62 61 60 61 61 61 61 60 58 57 57 56 56 56 56 54 52 49 49 49 48 48 47 46 46 45 45 45 45 44 45 44 44 44 43
61 61 61 61 61 61 61 61 60 59 58 58 57 58 58 59 57 57 57 56 55 55 56 54 51 49 48 48 48 48 48 47 47 46 45 45 45 45 44 43 44 43 43
58 59 59 58 58 58 58 58 57 56 56 56 55 55 55 56 56 56 56 54 53 53 53 52 51 50 48 47 47 47 46 46 46 46 46 45 45 43 43 42 43 43 43
57 56 55 54 54 55 55 54 54 54 54 53 53 53 53 53 54 54 53 53 53 53 52 51 50 49 48 46 45 45 45 45 45 45 46 45 44 42 42 41 41 41 43
54 52 51 50 49 49 50 50 50 51 50 50 50 50 51 50 51 51 50 50 50 50 51 50 49 47 46 45 45 45 44 44 44 45 45 44 43 42 42 40 40 41 42
51 49 47 46 45 45 46 47 47 48 47 46 47 46 46 48 49 49 49 49 48 48 49 47 48 46 44 43 44 44 44 43 43 43 43 42 40 41 41 39 39 40 42
48 47 45 44 43 43 43 43 44 45 46 45 44 43 43 45 47 47 47 47 46 45 45 45 45 44 43 42 43 42 42 42 41 40 40 39 39 39 39 38 38 39 41
45 44 43 42 41 41 41 41 41 42 43 43 42 41 41 43 44 45 45 46 45 42 41 43 43 42 41 41 41 41 41 39 39 37 36 37 36 37 37 37 38 38 40
43 42 41 40 40 40 39 39 38 38 39 40 40 39 39 40 41 42 43 44 43 41 39 40 40 40 39 39 39 38 39 37 36 35 35 35 35 35 35 37 37 38 40
40 39 39 38 38 38 38 37 36 36 37 37 37 38 37 38 39 40 40 41 41 40 39 39 38 37 37 36 36 36 35 35 35 34 34 35 35 35 34 36 37 37 38
38 37 37 36 36 36 36 35 34 34 36 35 34 36 36 37 37 37 38 38 38 36 35 36 36 36 35 34 34 35 33 33 33 32 34 33 33 34 34 34 34 34 36
35 35 37 36 34 33 33 32 32 32 33 33 33 33 34 35 34 35 36 36 35 33 33 33 33 33 33 33 33 33 32 31 31 31 32 32 32 31 31 32 33 34 35
33 34 34 33 32 31 31 30 29 30 30 30 31 32 33 33 34 34 34 34 33 31 31 31 31 30 30 30 31 30 29 30 30 30 30 30 30 30 30 30 31 33 34
31 32 31 30 29 28 28 29 28 28 28 28 29 31 32 32 31 31 32 31 30 29 29 29 28 27 27 28 29 27 27 28 28 28 28 29 29 28 29 29 30 32 33
29 29 28 26 25 25 25 27 28 26 26 26 27 29 30 30 30 29 29 28 27 27 27 26 26 26 27 27 27 25 26 26 26 26 26 27 26 27 27 28 30 32 33

GEFSMA_500_meanwind_192.txt.gz
Wind_Speed
43 43 44 44 44 44 45 45 45 45 45 45 45 45 45 44 44 43 43 43 42 42 41 40 40 39 39 38 38 38 37 37 37 36 36 36 36 36 36 36 35 35 36
45 45 46 46 46 47 47 48 48 48 49 48 48 48 48 48 47 47 46 46 45 45 43 43 43 42 41 41 41 40 39 39 39 39 38 38 37 37 37 37 37 37 37
46 47 47 47 48 49 49 50 50 50 50 50 50 50 50 50 50 50 49 48 48 47 46 46 46 44 43 43 42 42 42 41 40 40 40 39 39 39 38 38 38 38 39
47 48 48 49 49 50 51 52 52 53 53 53 53 53 53 53 52 52 51 50 50 49 48 48 47 46 46 45 44 43 42 42 42 42 41 41 41 41 40 40 39 39 40
48 49 50 50 51 52 53 54 54 54 55 55 55 55 54 55 54 54 53 52 52 51 50 49 49 48 47 47 46 45 44 44 44 43 43 42 42 42 41 41 41 41 41
49 50 51 51 52 53 54 55 55 56 57 57 56 56 56 56 56 56 56 54 54 53 52 52 50 50 49 49 48 47 46 45 45 45 44 43 43 43 43 43 43 42 42
50 51 52 53 54 55 56 57 57 57 58 59 59 59 59 59 59 58 57 56 55 55 54 54 53 52 52 51 51 50 48 47 47 46 45 44 44 44 45 45 44 44 43
52 52 54 55 56 56 57 58 59 59 59 60 61 61 61 60 59 59 58 58 57 57 56 56 56 55 55 53 52 51 50 49 48 47 46 45 45 46 45 45 45 45 44
54 55 56 57 58 59 59 60 61 61 61 61 62 63 63 62 61 61 61 60 59 59 58 57 58 58 57 56 54 53 52 50 49 48 47 46 47 46 46 45 46 46 45
56 57 58 59 60 61 61 61 62 62 62 62 62 63 64 64 64 62 62 62 61 61 60 59 60 59 58 57 56 55 53 52 50 49 49 47 48 46 45 45 44 45 45
58 59 60 60 61 62 62 62 63 63 63 63 63 63 63 64 65 65 64 63 62 61 60 59 60 60 58 57 57 56 54 52 51 50 49 49 48 46 46 45 44 44 44
60 61 61 61 62 63 63 63 63 64 64 64 64 64 64 64 64 64 64 63 61 59 58 57 58 58 57 57 56 56 55 54 52 50 50 50 49 48 48 46 45 45 46
61 62 62 62 62 63 63 63 64 64 64 63 62 62 62 61 61 61 62 60 59 58 56 55 55 56 56 55 56 56 55 54 52 50 50 49 49 48 47 45 45 45 45
62 63 63 62 62 62 62 62 62 62 61 61 59 59 58 57 58 58 58 58 57 56 55 53 53 53 54 54 54 54 54 53 51 49 49 49 48 47 46 45 45 45 45
62 62 62 61 61 61 61 60 60 59 58 56 55 55 55 54 54 55 55 55 55 54 52 51 51 50 51 51 51 50 49 49 49 48 48 48 48 48 47 45 45 45 45
61 61 60 59 59 59 59 58 56 55 55 54 53 52 51 51 51 51 51 51 51 50 49 48 49 48 48 48 48 47 47 47 46 46 46 46 46 47 46 45 46 44 44
59 59 58 57 57 57 56 54 53 53 52 51 50 49 47 47 47 47 47 46 46 46 46 45 45 45 46 44 43 43 44 45 44 44 44 44 43 43 43 43 43 43 43
57 57 56 55 54 53 52 51 50 49 49 47 46 45 44 44 43 43 42 43 42 43 42 41 42 41 42 41 40 40 41 42 42 41 41 41 40 40 40 39 39 41 41
55 54 53 52 51 50 50 48 47 46 45 44 43 43 42 42 41 40 39 38 39 39 39 39 39 39 38 38 39 38 39 39 40 39 39 39 39 39 37 36 37 37 37
52 51 49 49 48 47 46 45 44 42 41 41 40 40 40 40 38 37 35 35 35 35 36 37 37 35 36 36 37 36 35 37 38 37 36 36 36 35 34 33 34 34 35
49 48 47 45 44 44 43 42 41 40 39 38 37 37 37 36 35 34 34 33 33 33 34 35 34 33 33 34 34 34 35 35 35 35 34 34 32 32 31 31 32 33 34
46 45 43 43 42 41 40 40 40 39 37 36 35 34 34 34 34 33 33 33 32 32 32 32 32 32 31 31 33 33 33 34 33 33 32 31 31 31 32 32 32 34 33
43 41 40 39 38 37 37 37 37 35 34 32 32 30 30 31 31 31 31 31 31 30 30 31 31 31 31 30 30 30 32 31 29 28 29 29 29 29 30 31 33 33 32
39 38 37 36 35 34 34 33 33 32 30 30 30 28 27 28 29 29 30 29 29 29 30 29 28 28 29 28 27 28 29 28 27 27 27 27 27 28 28 29 30 29 29
36 35 33 33 32 31 30 29 29 28 27 26 26 25 24 25 27 27 28 27 27 27 27 27 28 27 27 28 28 28 27 26 26 25 25 25 26 27 28 27 27 28 28
33 32 31 30 28 26 26 25 25 25 25 24 24 24 23 24 25 26 26 25 25 24 24 25 26 27 27 27 26 26 26 25 24 23 23 23 25 26 25 25 25 26 26

GEFSMA_500_meanwind_198.txt.gz
Wind_Speed
37 38 38 38 39 39 39 40 40 40 41 41 41 42 42 42 43 43 43 44 44 44 43 43 43 43 43 42 42 42 41 41 41 41 41 40 40 40 39 38 37 37 37
38 39 39 39 40 40 41 41 42 43 43 43 44 45 46 46 46 46 46 47 47 47 47 46 45 45 45 45 45 44 44 43 43 43 42 42 41 41 41 40 40 39 39
39 40 40 41 41 42 43 43 44 45 46 46 47 47 48 48 48 49 49 49 49 49 48 48 48 47 47 46 46 46 46 45 44 43 43 43 42 43 42 42 42 41 41
40 41 42 42 43 44 45 46 46 47 48 49 49 49 50 50 50 50 51 51 51 51 50 50 50 49 49 48 48 48 48 47 45 45 45 45 44 44 44 43 42 42 42
42 43 44 45 46 47 47 48 49 49 50 51 51 51 51 52 52 52 53 53 53 53 53 53 53 52 51 51 50 50 49 49 47 47 47 46 45 46 45 44 43 43 43
43 44 46 47 48 49 50 50 51 51 52 52 53 53 54 54 55 55 56 56 56 56 56 55 55 55 54 53 52 51 51 51 49 49 49 49 48 47 45 44 44 44 44
45 46 47 48 49 51 51 52 52 53 54 55 56 56 56 57 58 58 58 58 59 59 58 58 58 57 56 55 54 53 52 52 52 51 51 50 50 48 47 46 47 46 46
46 47 48 49 51 52 53 54 55 56 56 57 59 59 59 59 59 60 60 61 61 60 60 60 60 59 58 57 56 55 54 54 53 53 52 52 51 51 51 50 49 49 49
48 49 50 52 52 53 54 56 57 58 58 59 61 62 62 62 61 59 60 60 61 61 61 61 61 60 59 58 58 57 57 57 55 54 54 55 53 53 53 53 51 51 49
51 52 52 53 54 55 56 58 59 60 62 62 63 63 64 64 63 61 60 60 60 61 61 61 61 61 61 60 60 60 59 58 57 56 56 56 54 54 55 53 52 52 51
53 54 55 55 56 57 59 60 62 63 64 65 65 65 65 64 64 65 62 60 59 60 61 61 61 61 62 61 61 61 60 60 58 58 58 57 57 57 56 53 53 54 52
55 56 57 58 60 61 62 63 63 64 65 65 66 66 66 65 64 65 64 62 60 59 59 60 60 61 61 61 61 61 61 60 59 58 59 59 58 57 56 55 54 54 53
57 58 59 61 62 62 64 64 65 65 65 65 66 66 66 65 64 64 64 62 59 58 58 57 58 59 59 58 59 59 59 59 58 57 59 60 58 57 55 55 55 54 53
58 60 61 62 63 64 64 65 65 65 65 65 65 65 65 63 63 62 62 61 59 57 56 55 55 56 56 56 56 56 57 56 56 55 56 56 56 56 55 55 55 54 53
60 62 62 63 63 64 65 65 65 65 65 64 63 63 62 60 60 59 59 58 57 55 52 50 51 52 53 53 53 53 54 53 53 52 53 53 53 53 52 52 53 53 52
61 62 63 64 64 65 65 65 64 64 64 62 61 60 58 57 56 56 54 53 51 49 46 43 45 47 49 49 49 49 48 49 49 49 50 49 49 49 48 48 50 50 48
62 63 63 64 65 65 64 63 63 62 61 59 58 56 55 54 52 50 49 48 46 45 42 39 40 42 43 43 43 43 43 44 43 43 44 45 45 45 45 46 46 46 46
62 63 64 64 64 63 62 62 61 59 57 56 55 53 51 50 49 47 46 45 44 42 40 37 37 37 37 37 37 37 38 38 38 38 39 39 40 40 41 42 43 43 43
62 63 63 62 61 60 60 59 57 55 53 52 51 50 48 47 46 45 44 42 41 39 37 35 33 34 34 34 34 33 33 34 33 33 33 33 34 35 36 37 38 39 39
61 61 60 58 58 57 56 55 53 51 50 49 47 46 45 44 43 41 40 38 37 35 33 31 30 29 29 31 31 31 29 30 30 30 30 30 31 31 32 33 35 35 36
58 57 55 55 55 54 53 52 50 48 46 45 43 42 41 40 39 36 34 33 33 32 30 28 27 27 27 28 28 28 27 27 28 28 28 28 28 28 29 30 31 31 31
54 53 52 52 51 50 50 49 47 44 42 39 38 37 37 36 33 31 30 30 29 29 28 26 25 25 25 27 27 26 25 25 26 26 26 26 26 26 27 28 29 29 29
51 49 49 48 47 46 46 44 42 40 37 35 34 34 33 31 30 28 28 27 26 26 26 25 24 23 23 25 25 24 24 24 24 24 24 24 24 24 24 25 26 27 26
48 47 46 44 44 43 41 39 37 34 32 31 31 31 30 28 27 27 25 24 24 24 24 23 22 21 22 23 23 23 23 23 24 23 22 21 22 23 23 23 24 25 25
45 43 42 41 39 37 36 35 33 31 30 29 29 28 27 25 25 25 23 23 22 22 23 23 22 21 21 22 22 23 22 21 22 21 21 20 20 20 20 22 24 24 24
43 42 40 38 36 33 32 32 31 28 27 26 26 25 24 24 24 23 22 22 22 21 22 23 21 20 20 20 20 20 21 20 20 20 20 19 19 18 18 20 21 23 23

GEFSMA_500_meanwind_204.txt.gz
Wind_Speed
31 31 32 33 34 35 35 35 36 37 37 37 38 38 38 39 40 40 40 40 41 41 41 41 42 42 43 43 43 43 43 43 44 43 43 42 43 42 42 42 41 42 41
32 32 34 35 35 36 36 37 37 38 39 39 40 40 41 42 43 43 43 44 44 44 44 44 44 45 45 45 45 44 44 45 46 46 45 45 45 44 44 44 43 43 42
33 34 35 36 36 37 38 39 39 40 41 42 42 43 44 44 45 45 46 47 47 47 47 47 47 47 47 47 47 46 46 47 47 48 48 48 47 46 46 46 45 44 43
35 36 37 38 38 38 39 40 41 42 42 43 44 44 45 46 47 48 49 49 50 50 50 50 50 50 50 50 50 50 50 50 50 50 50 51 50 49 49 48 47 46 45
37 38 39 39 40 40 41 42 43 44 44 45 46 46 47 48 49 50 51 51 52 53 53 53 53 53 53 53 53 53 53 53 53 53 53 53 53 52 52 50 49 49 48
39 40 40 41 42 43 44 45 46 47 48 48 49 49 50 50 51 53 54 55 55 56 56 57 56 56 56 56 57 57 57 56 56 56 55 55 55 54 54 53 51 51 51
41 42 42 43 44 45 46 47 48 49 50 51 51 52 52 53 54 55 56 58 59 60 60 61 61 60 60 60 60 60 59 58 58 58 58 57 56 55 55 55 54 53 53
42 43 44 45 45 47 47 49 49 50 52 53 54 55 56 56 57 57 58 60 61 61 62 63 64 64 64 63 63 62 61 61 61 60 59 59 58 57 57 57 56 56 54
45 45 46 47 48 48 49 50 51 53 54 56 57 58 59 59 59 58 60 61 62 63 63 64 65 65 66 66 65 64 64 63 62 62 61 61 60 59 59 58 58 57 56
46 47 48 49 49 50 51 53 55 56 57 58 59 60 61 61 62 61 61 62 62 63 63 64 65 66 66 67 66 66 66 65 63 63 62 61 61 61 61 59 60 59 59
47 48 50 51 52 53 54 55 57 58 59 59 60 61 62 62 63 64 63 62 63 63 64 64 65 65 66 67 66 66 66 65 64 63 63 62 62 62 62 61 61 60 61
49 50 52 53 54 56 57 58 59 59 60 60 61 62 63 64 65 65 65 64 63 62 63 63 64 65 65 65 65 65 64 64 63 62 63 62 62 63 62 62 61 61 61
51 53 54 56 57 58 59 60 60 60 60 61 62 63 64 65 66 66 66 64 64 63 62 62 63 62 62 62 61 61 61 60 59 59 59 59 60 61 60 61 61 60 59
54 55 56 58 59 60 60 61 61 61 62 62 63 63 64 65 65 65 65 64 63 61 60 60 59 59 59 57 57 57 56 55 54 54 55 56 56 57 57 58 58 58 56
55 56 58 59 60 60 61 61 61 62 63 63 63 63 64 64 63 62 61 62 62 60 57 55 55 54 53 52 52 51 51 50 49 49 49 50 51 52 52 53 54 54 54
57 58 59 59 60 61 61 61 62 62 62 62 62 62 62 60 59 58 58 58 59 58 54 50 49 48 48 47 46 46 46 44 43 43 43 44 45 46 47 47 49 50 51
58 59 59 60 60 61 61 61 61 61 61 61 60 59 57 56 56 56 56 55 54 52 50 46 45 44 44 42 42 42 40 39 38 38 39 39 39 39 41 42 43 46 47
59 59 59 59 60 60 60 60 59 59 59 58 57 56 55 55 55 54 54 52 50 48 46 43 41 40 39 38 38 37 35 34 34 34 35 35 35 35 36 37 38 40 40
58 58 59 59 58 58 58 58 58 57 56 55 55 54 53 53 52 51 49 47 46 45 43 41 38 36 34 34 33 32 31 30 30 29 29 30 30 30 30 32 33 34 33
57 57 57 57 57 56 56 56 55 54 54 53 52 52 51 50 48 46 44 43 41 40 39 38 34 33 32 31 29 28 27 27 26 25 24 25 26 26 26 27 29 28 28
56 55 55 55 54 53 53 53 52 52 51 50 49 48 46 45 43 42 41 39 38 36 35 33 32 30 29 27 26 26 25 23 23 21 21 22 23 23 23 24 23 24 24
55 54 54 52 51 51 51 50 49 49 48 47 46 44 42 41 39 38 37 36 35 33 32 31 29 28 25 23 23 23 23 22 19 17 18 20 20 20 20 20 20 21 23
53 52 51 50 49 49 48 47 46 45 44 43 42 40 38 37 35 34 33 33 31 30 28 27 25 24 22 20 21 20 20 19 17 16 18 18 19 19 19 19 20 21 21
51 50 48 48 46 45 45 44 44 42 40 39 38 36 35 33 32 31 30 29 28 27 25 24 22 21 19 19 19 18 18 17 16 16 17 18 18 18 18 18 18 18 19
48 46 45 44 43 42 42 41 41 39 38 36 35 33 31 30 29 29 27 26 26 25 23 22 21 20 18 17 17 17 17 15 15 15 15 16 17 18 17 17 18 18 18
44 42 41 41 41 40 40 39 38 37 35 33 31 29 29 28 27 26 25 23 23 22 21 20 19 18 16 15 15 16 15 14 14 13 14 15 15 16 16 16 16 16 17

GEFSMA_500_meanwind_210.txt.gz
Wind_Speed
29 30 30 31 31 31 32 32 32 33 33 34 35 36 37 37 38 38 39 39 39 40 41 41 41 42 42 42 42 43 43 43 43 43 43 43 43 43 44 43 43 43 42
30 30 30 31 32 32 33 34 34 35 35 36 36 37 39 40 40 40 40 41 41 42 42 43 43 43 44 44 45 45 45 45 45 45 45 45 45 45 45 45 45 45 44
30 31 31 32 32 33 34 35 36 37 37 38 39 40 41 41 42 42 43 43 43 44 44 45 45 46 46 46 46 46 47 47 47 48 48 48 48 47 47 48 47 47 46
32 33 33 33 34 35 36 37 38 39 40 41 42 42 43 43 44 44 45 46 46 47 46 48 48 48 49 49 49 49 49 49 49 50 50 51 50 50 50 50 50 50 49
33 34 34 35 36 37 38 40 40 42 43 44 44 45 45 46 47 47 47 47 48 49 49 50 51 51 52 53 53 53 53 53 53 53 53 53 53 54 53 53 53 52 52
35 36 37 38 39 40 41 42 43 45 45 46 46 47 47 48 49 49 49 50 50 50 51 52 53 54 54 55 56 56 57 57 57 57 57 57 57 57 57 57 56 56 55
37 38 39 40 41 42 43 44 45 46 47 48 48 48 48 50 51 51 52 52 52 53 53 54 55 56 56 57 58 58 59 59 60 60 61 61 61 60 60 60 59 59 59
39 40 41 42 43 44 45 46 47 48 48 50 50 51 51 51 52 52 53 54 55 56 56 57 58 59 60 61 61 62 62 62 63 63 64 64 64 64 64 63 63 63 62
41 43 44 44 45 46 47 48 49 50 51 52 53 55 55 55 54 54 55 56 57 58 59 60 61 62 63 63 64 64 65 65 66 66 67 67 67 67 66 66 66 65 65
43 44 45 46 47 48 49 50 51 52 53 54 56 57 57 58 58 57 56 56 58 59 59 61 62 62 62 63 63 65 66 67 67 67 68 68 68 68 69 69 68 68 67
44 45 46 47 48 50 51 51 53 54 55 56 56 57 58 58 60 60 59 57 58 60 61 61 61 61 62 62 63 64 65 65 66 66 67 67 67 67 68 68 69 67 67
45 46 47 48 50 51 52 53 55 56 56 57 57 57 58 59 60 61 61 60 60 60 60 59 59 60 60 61 62 62 63 63 63 64 64 64 65 64 65 65 65 65 64
46 47 48 50 51 53 54 55 56 57 58 58 58 58 59 60 60 61 62 61 60 58 57 56 56 57 58 59 59 60 60 60 60 60 60 60 60 59 58 57 58 60 60
47 49 50 52 53 54 55 57 58 58 58 58 59 59 59 60 60 60 61 61 59 56 54 53 54 55 56 57 57 57 56 56 56 55 54 54 53 52 51 51 51 52 54
49 51 52 53 55 56 57 58 59 59 59 59 59 59 59 59 59 59 59 58 57 55 52 51 51 52 53 52 53 53 52 52 51 49 48 48 46 45 45 45 46 47 49
51 52 54 55 56 57 57 58 59 59 58 58 58 58 58 58 58 57 55 54 54 54 52 49 49 49 50 50 49 49 48 47 46 44 43 41 40 39 39 41 42 43 44
53 54 55 56 57 57 57 58 58 57 56 56 56 56 57 57 56 54 53 52 52 52 51 49 48 48 48 47 45 45 44 43 40 39 38 37 36 36 36 36 37 37 38
54 55 56 56 57 57 56 56 56 55 55 54 55 55 55 55 54 52 52 51 51 51 50 48 46 45 44 43 41 41 40 39 37 36 34 33 32 32 32 31 29 29 30
56 56 56 55 56 55 55 54 54 54 54 54 54 54 53 52 52 51 51 50 48 47 46 46 43 42 41 39 38 37 36 35 34 31 30 29 28 27 26 25 23 23 23
55 55 54 54 54 53 53 53 53 53 53 53 52 52 51 51 51 50 49 47 46 44 43 42 40 38 37 36 36 34 31 30 29 26 25 25 24 22 21 19 18 17 17
54 54 53 53 52 52 53 53 52 52 51 51 51 50 50 50 49 48 46 44 42 40 39 38 36 35 34 34 33 30 27 26 25 24 23 22 20 18 17 16 15 14 13
53 54 53 52 52 52 52 51 51 50 50 50 49 49 48 48 46 44 42 40 38 37 36 34 33 32 32 31 29 27 26 23 21 20 19 16 15 14 13 13 11 11 11
53 53 52 51 50 51 50 50 50 49 49 48 48 48 47 45 43 40 38 36 35 35 34 33 31 31 29 28 26 23 22 19 17 16 15 13 12 11 11 9 10 10 10
52 51 49 49 50 50 49 49 49 48 48 47 46 45 43 40 38 37 35 33 32 32 32 31 30 28 25 23 22 21 19 17 15 15 13 11 10 10 10 9 9 10 11
50 49 48 49 49 48 48 47 47 46 45 44 43 41 38 36 34 33 32 30 30 29 28 27 26 24 22 21 21 19 17 15 13 12 10 9 9 8 8 8 9 10 11
48 47 47 47 47 46 46 45 45 44 42 41 39 37 34 32 31 30 28 28 27 25 24 23 22 21 20 19 18 16 14 12 11 9 8 7 7 8 7 7 8 9 10

GEFSMA_500_meanwind_216.txt.gz
Wind_Speed
29 29 29 29 28 28 28 29 30 31 32 32 33 34 35 36 36 37 38 39 40 40 41 42 42 43 43 44 44 44 44 44 44 44 44 44 45 45 45 45 45 45 45
30 29 29 29 29 30 30 31 32 32 33 34 35 36 37 37 38 39 40 41 42 42 43 44 45 45 46 46 46 46 46 47 47 47 47 47 48 48 48 48 48 48 48
29 29 29 30 30 31 32 32 33 34 35 36 37 38 38 39 40 41 42 42 44 44 45 46 47 47 48 48 48 48 48 49 49 50 50 50 50 50 51 51 51 51 51
30 29 30 31 32 33 33 34 35 36 37 37 38 39 40 41 42 43 44 45 46 47 48 49 49 50 50 50 50 50 51 51 52 52 52 53 54 54 54 54 54 54 54
31 31 32 32 33 34 35 36 37 38 39 39 40 40 42 43 44 46 46 47 48 49 50 50 51 51 52 52 53 53 54 55 55 55 55 56 56 57 57 58 58 58 58
32 33 34 34 35 36 37 38 38 39 40 41 42 42 43 45 46 47 48 49 50 51 51 51 52 53 54 55 56 56 57 58 58 58 58 59 59 60 60 61 61 61 61
33 34 35 36 37 37 38 39 40 41 42 43 44 45 45 46 47 49 50 51 51 52 54 54 55 55 56 57 57 58 59 59 61 61 61 62 62 63 63 64 65 65 65
35 35 36 37 38 39 40 41 42 43 44 46 47 48 47 48 49 50 51 52 52 54 55 56 56 57 57 58 58 59 60 61 63 63 64 65 66 67 67 67 67 68 68
36 37 37 39 40 41 42 43 44 45 46 47 49 51 51 50 50 51 52 53 54 55 56 56 56 57 57 58 58 59 61 62 64 65 66 66 67 68 68 69 69 69 69
38 38 39 40 41 42 43 44 46 47 49 50 51 53 54 54 54 53 52 53 54 54 55 55 56 57 57 58 59 60 60 62 62 63 64 65 66 66 67 67 67 67 68
39 40 41 41 42 44 45 46 48 49 51 52 54 55 55 55 56 56 54 53 53 54 55 56 57 57 58 58 58 59 59 59 60 61 62 63 63 64 64 64 65 65 65
40 41 42 43 44 45 46 48 49 51 53 54 55 55 56 56 56 56 56 55 54 54 55 56 57 58 58 58 58 57 57 58 58 59 59 59 60 59 59 59 60 60 60
42 43 44 45 46 47 48 49 51 53 54 54 54 55 55 56 56 57 57 55 55 54 55 56 57 57 57 56 56 56 56 56 55 55 55 54 53 53 54 54 54 55 55
43 44 45 46 47 49 50 51 52 53 54 54 54 55 56 56 56 56 55 55 55 54 54 54 55 54 54 54 54 54 54 53 53 52 51 50 49 49 49 48 48 48 50
43 45 46 47 48 50 52 53 54 54 53 53 54 54 55 54 54 54 53 54 55 54 53 52 51 51 51 52 52 52 51 50 50 49 48 47 46 44 43 42 42 43 44
45 46 47 49 50 52 53 53 53 53 52 52 52 52 52 51 51 52 52 52 53 53 52 50 50 50 50 51 51 50 48 47 46 45 43 41 40 38 37 37 38 38 39
46 47 49 50 51 52 53 53 53 52 52 52 52 51 51 51 50 51 51 52 52 53 52 49 48 48 48 48 46 45 44 42 41 39 38 36 35 35 34 34 34 33 33
48 49 50 51 52 52 52 52 52 52 52 51 51 50 51 50 50 51 51 51 51 51 50 48 46 46 45 44 43 41 40 39 37 36 35 33 32 32 31 30 29 28 27
49 50 51 52 52 52 52 52 52 51 51 50 50 50 50 50 50 50 50 51 50 49 48 47 45 43 41 40 39 37 37 36 34 32 31 31 30 29 27 26 24 23 23
49 50 51 52 52 52 52 52 51 51 50 50 50 50 50 50 50 51 50 50 49 48 46 45 42 39 37 37 36 35 34 33 30 29 28 27 26 25 24 22 22 21 20
49 50 51 51 52 52 52 52 51 50 49 49 49 49 49 49 50 50 50 48 47 46 44 42 38 36 36 35 33 32 31 29 27 26 25 24 23 22 22 20 19 18 16
49 50 51 51 52 53 52 51 50 49 49 49 48 47 48 48 49 48 47 46 45 44 42 39 36 35 34 33 31 30 28 26 24 24 24 22 21 20 19 17 15 15 14
50 51 52 52 53 53 51 50 50 49 48 48 47 46 47 47 47 46 44 43 42 42 39 37 35 33 32 32 31 28 26 23 22 22 21 20 19 17 16 14 13 13 13
51 51 51 52 52 51 50 49 48 48 47 46 46 46 46 46 46 44 42 41 40 38 36 36 34 32 31 30 29 26 24 22 21 20 20 18 17 15 13 12 13 13 12
50 50 51 51 50 49 47 47 46 46 45 45 45 46 45 44 43 42 40 38 36 35 34 33 32 30 29 28 26 23 22 20 19 18 17 16 14 12 12 12 12 12 12
49 49 49 49 48 46 45 45 44 44 44 44 44 44 43 42 41 40 38 35 33 32 32 31 29 28 26 24 22 20 19 18 17 16 14 13 12 11 10 10 10 10 10

GEFSMA_500_meanwind_222.txt.gz
Wind_Speed
26 26 26 26 26 26 26 27 28 29 29 29 30 31 32 33 34 35 36 36 37 37 38 38 39 40 40 41 42 43 44 44 45 45 45 46 45 45 45 46 46 46 47
27 27 27 27 27 27 28 28 29 29 30 31 32 33 34 35 35 36 37 38 38 39 40 41 41 42 43 44 45 46 46 47 47 47 47 48 48 48 49 49 49 49 50
28 28 28 28 28 29 29 29 30 31 31 32 33 34 35 36 37 38 38 39 40 41 42 43 44 45 46 47 47 47 47 48 48 49 50 50 51 52 52 52 53 53 53
28 28 28 29 30 30 30 31 32 33 33 34 35 36 37 38 39 40 40 41 42 43 45 46 47 47 48 48 48 48 49 49 50 51 52 53 53 54 55 55 56 56 57
29 29 30 30 31 31 32 33 34 35 35 36 37 37 39 40 40 41 42 43 44 46 47 48 49 50 49 49 49 50 51 51 52 52 53 54 55 56 57 58 59 59 60
30 30 31 31 32 33 34 34 36 37 37 38 39 39 40 42 42 43 44 45 46 48 49 49 49 49 49 49 50 51 51 52 52 53 54 55 55 57 59 60 60 61 62
31 31 32 33 33 34 35 36 37 38 39 40 41 41 42 43 44 45 46 47 48 49 49 49 50 49 49 50 51 52 53 54 55 55 55 56 56 57 59 59 60 61 61
32 33 33 34 35 36 37 38 39 39 40 42 43 44 44 44 45 46 48 49 49 50 50 50 50 50 51 52 53 55 56 56 56 56 56 57 58 58 59 59 59 61 62
34 34 35 36 37 37 38 39 40 41 41 43 44 46 47 47 47 47 48 48 49 50 51 51 51 52 53 55 56 57 57 57 57 58 59 60 60 59 60 60 59 60 61
35 36 37 38 38 39 39 40 41 42 43 44 46 47 49 50 50 49 48 48 49 50 51 52 53 54 56 57 58 58 58 58 58 59 59 59 59 59 58 59 59 59 59
37 38 38 39 39 40 40 41 42 44 45 46 47 49 50 51 51 50 48 48 49 51 52 54 55 56 57 58 58 58 58 58 58 58 58 58 57 56 56 57 56 55 54
39 39 40 40 41 41 42 43 44 45 47 48 49 50 51 51 50 51 50 50 51 52 53 54 55 55 56 56 56 56 57 57 57 56 56 54 53 53 53 53 52 51 51
40 41 41 42 42 43 44 45 46 47 48 49 50 50 51 51 51 51 52 52 53 53 53 53 53 54 54 54 55 55 55 55 54 53 52 50 49 49 49 48 48 48 48
41 42 42 43 44 45 46 47 47 48 49 49 50 50 51 51 51 52 53 54 54 53 51 51 52 52 53 53 54 53 53 52 52 50 49 46 45 45 45 45 45 45 44
42 43 43 44 44 46 47 47 48 49 49 50 51 51 51 51 51 52 53 54 54 53 50 50 51 51 51 52 51 51 50 51 50 48 45 43 43 42 42 43 42 41 40
44 44 44 44 45 46 47 48 48 49 49 50 52 52 51 51 52 52 53 53 53 53 51 49 50 51 50 49 49 49 49 49 48 45 42 40 40 40 40 40 38 37 36
44 44 44 45 46 46 47 48 48 49 50 51 52 51 51 51 51 51 52 52 52 52 51 49 50 49 49 48 48 48 48 47 45 42 39 37 38 37 37 36 35 34 32
45 45 45 46 46 47 48 48 49 50 51 51 51 51 51 51 51 51 51 51 50 50 50 49 48 47 48 47 47 46 45 43 41 39 37 37 36 35 34 33 33 31 30
45 45 46 46 47 48 48 49 50 51 51 51 51 51 50 50 50 50 50 50 49 49 50 49 47 46 46 46 45 44 42 40 39 37 36 35 34 33 31 32 31 29 27
46 46 46 47 48 49 49 50 51 51 51 52 51 50 49 49 49 49 48 48 48 48 48 47 46 45 45 44 43 41 38 37 36 35 35 33 32 31 30 31 29 28 26
46 46 47 48 49 49 50 50 51 51 51 51 50 49 49 48 48 47 47 46 47 47 46 45 44 43 43 41 40 39 36 35 34 33 33 31 30 30 30 30 29 27 25
47 47 48 49 49 50 50 51 51 51 51 50 49 48 48 47 47 46 46 46 46 46 45 44 43 42 41 40 38 37 36 34 31 31 30 30 29 29 28 28 27 26 24
48 48 49 49 49 50 51 51 52 51 50 49 48 47 47 46 46 45 44 45 45 45 45 45 43 40 39 38 36 35 34 33 31 30 30 29 28 27 26 26 25 23 21
48 48 49 49 50 50 51 51 52 50 48 48 47 46 45 45 44 44 44 44 44 43 43 43 41 38 36 35 34 33 32 31 29 29 28 26 24 23 22 23 22 19 17
48 49 49 50 50 51 51 51 50 48 47 46 46 45 45 44 44 44 44 43 42 41 41 39 37 35 34 34 33 32 31 29 27 25 25 24 22 21 20 19 19 17 15
48 49 50 50 50 50 51 50 48 46 45 44 44 44 44 43 43 43 43 43 41 40 38 36 34 33 33 32 32 31 29 27 25 24 23 22 21 20 18 16 16 15 13

GEFSMA_500_meanwind_228.txt.gz
Wind_Speed
24 24 24 24 24 24 24 25 25 26 26 27 27 28 29 30 31 32 32 33 33 34 35 35 36 37 37 38 38 39 39 40 41 42 42 43 44 44 45 46 46 46 47
25 25 25 25 25 25 25 26 26 27 28 29 29 30 31 31 32 33 34 34 35 36 37 37 38 39 40 40 41 41 42 43 43 44 44 45 46 47 47 47 48 49 49
25 26 26 26 26 26 27 27 28 29 29 30 31 31 32 33 34 35 36 36 37 38 39 40 40 41 41 42 43 44 44 45 45 46 47 47 48 49 49 50 51 51 51
27 27 27 27 28 28 28 29 29 30 30 31 32 33 34 35 36 36 37 38 39 40 41 41 42 42 43 44 45 46 46 47 48 48 49 49 50 51 52 52 53 53 54
28 28 29 29 29 30 30 30 31 31 32 32 33 34 35 36 37 38 39 40 41 42 42 43 44 45 46 47 47 48 48 49 50 50 51 51 52 53 54 53 53 54 55
30 30 30 30 30 30 31 31 32 33 34 34 35 36 37 38 39 40 41 42 42 43 44 45 46 47 47 48 48 48 49 50 51 51 52 53 53 54 54 54 55 55 55
30 31 31 31 31 31 32 33 33 34 35 36 37 37 38 39 40 41 42 43 44 45 46 47 47 48 48 48 49 49 50 50 51 52 53 54 54 55 55 55 55 55 55
31 32 32 32 32 33 33 34 35 36 37 38 39 39 40 41 41 42 44 45 46 47 47 48 48 48 48 49 50 51 51 52 53 53 54 55 55 55 55 56 56 56 56
33 33 33 34 34 34 35 36 37 38 38 39 40 41 42 43 43 44 45 46 47 47 48 49 50 50 50 51 52 53 54 54 55 55 56 56 56 55 55 55 56 56 55
34 34 35 35 35 36 37 38 39 39 40 40 41 43 44 45 46 46 45 47 48 48 49 50 51 51 52 52 53 54 54 54 54 55 55 55 55 54 54 54 54 54 54
36 36 36 36 37 38 39 40 40 40 41 42 43 44 46 47 47 48 47 47 48 49 50 51 52 52 53 53 54 53 53 53 53 54 54 53 52 52 52 52 52 51 51
37 37 37 38 39 40 40 41 41 42 43 44 45 46 47 48 48 48 48 48 48 49 50 51 52 52 53 53 53 52 53 53 53 53 53 51 50 50 50 50 50 49 48
38 38 39 40 40 41 41 42 43 44 45 46 47 48 48 48 49 49 50 49 49 48 49 50 50 51 52 52 52 52 52 52 51 51 50 49 48 47 47 47 47 46 45
39 39 40 41 41 42 42 43 44 45 47 47 47 47 47 48 49 50 50 50 50 48 47 48 49 50 51 51 51 50 50 49 49 49 49 47 46 46 46 45 45 43 41
40 40 41 42 42 43 44 45 46 47 47 47 47 47 47 48 50 50 51 51 50 48 47 48 49 49 49 49 49 48 48 48 48 48 48 47 46 44 43 43 42 41 40
41 42 42 43 44 45 46 46 46 46 46 46 47 47 48 49 50 50 50 50 50 49 48 48 48 47 48 47 46 47 47 48 47 48 46 45 44 43 42 41 40 38 36
42 43 44 44 45 46 46 47 46 46 46 46 47 48 49 50 51 50 49 49 49 49 48 47 47 47 47 47 46 47 47 47 47 47 46 44 42 41 40 38 36 34 33
44 44 45 46 46 46 47 47 46 46 46 47 48 49 50 51 50 49 49 49 49 49 48 47 47 46 46 46 47 47 46 46 46 44 43 42 40 38 36 34 32 31 30
45 46 46 46 46 47 47 47 46 47 47 48 49 50 51 51 50 49 50 49 49 48 47 47 46 46 46 46 46 45 45 45 44 43 42 40 37 35 33 31 29 29 29
46 46 46 46 47 47 47 47 48 48 49 49 50 51 51 50 49 50 50 48 47 47 47 47 46 46 45 46 45 44 43 43 42 40 38 35 33 32 31 29 28 28 29
46 46 46 47 47 47 47 47 48 48 49 50 51 51 51 50 50 49 48 47 47 47 47 47 46 45 45 45 44 43 42 40 39 36 34 33 31 30 30 29 28 28 28
46 46 46 46 47 47 47 48 48 49 50 51 51 51 50 49 48 47 46 47 47 46 46 45 45 44 44 44 43 42 41 38 36 34 34 31 30 29 28 27 27 26 26
46 46 46 46 47 47 47 48 48 49 50 51 51 50 48 47 46 45 45 46 46 46 45 44 43 43 43 42 41 40 38 36 34 33 31 29 28 27 25 24 23 23 22
46 46 46 46 47 47 48 49 50 50 51 51 49 48 46 45 44 44 43 44 44 44 43 43 43 42 41 40 39 37 34 33 32 31 30 28 27 24 23 22 21 21 21
46 46 46 46 47 48 49 50 50 50 50 48 47 46 44 43 43 43 43 42 42 42 41 42 41 40 39 39 37 35 33 32 31 29 27 27 25 23 22 22 21 21 20
45 46 46 47 48 48 49 49 49 48 47 46 45 44 43 43 42 42 42 41 40 41 40 39 38 38 38 36 34 33 32 31 30 27 25 26 25 23 22 21 21 20 18

GEFSMA_500_meanwind_234.txt.gz
Wind_Speed
24 24 24 24 24 23 23 23 24 25 25 26 26 27 27 28 29 30 30 31 32 32 32 33 34 35 36 36 37 37 38 39 40 40 40 41 42 43 44 45 45 45 45
25 25 25 24 24 24 24 24 25 25 26 26 27 28 29 30 30 31 31 32 33 33 33 34 36 37 38 38 39 40 41 41 42 42 43 43 44 45 46 46 47 47 48
26 26 25 25 25 25 26 26 26 27 27 28 29 30 31 31 32 32 33 33 34 35 35 36 37 38 39 40 41 42 43 44 44 45 46 46 47 48 48 49 49 50 50
27 26 26 26 26 26 26 27 28 28 29 30 31 32 32 33 33 33 34 34 35 36 37 39 39 40 41 42 43 44 45 46 47 47 48 48 49 49 50 50 51 51 52
28 28 27 28 28 27 28 28 29 30 31 32 32 33 33 34 34 35 36 36 37 38 39 40 41 42 43 44 45 46 46 47 47 48 48 49 49 50 51 51 51 51 52
29 29 29 29 28 29 29 30 31 32 32 33 33 33 34 35 36 37 38 39 39 40 41 42 42 43 45 46 46 46 47 47 48 49 49 49 50 51 51 52 52 53 53
30 30 30 30 30 31 31 32 33 33 33 33 34 34 35 36 37 38 39 40 41 42 42 43 43 44 45 46 46 46 47 48 49 49 50 51 51 52 52 53 54 55 54
30 30 31 31 32 33 33 33 34 34 34 35 36 36 37 37 38 39 40 41 42 42 43 44 45 46 46 46 47 47 48 49 50 51 52 53 54 53 53 54 54 54 54
30 31 32 32 33 34 34 35 35 35 36 36 38 39 39 40 39 39 40 41 42 43 44 45 47 47 47 48 48 49 50 51 52 53 53 53 54 54 53 53 53 52 51
32 32 33 34 34 35 35 36 36 37 37 38 39 41 41 41 41 40 41 42 43 44 46 47 48 48 49 49 50 52 52 52 52 52 52 52 52 53 53 52 51 50 49
34 34 34 35 35 36 37 37 37 38 39 40 41 42 42 42 43 44 43 43 44 46 48 49 49 50 50 51 52 52 53 53 53 53 52 51 51 51 51 51 50 50 48
35 36 36 36 36 37 37 38 38 39 40 41 42 42 43 44 45 45 46 46 46 47 49 50 51 51 51 52 53 53 53 52 52 52 51 50 50 50 49 48 48 48 48
37 37 37 37 38 38 38 39 40 40 41 42 42 43 44 45 46 47 48 48 49 49 50 51 51 51 52 53 53 52 51 51 50 50 49 49 49 48 47 46 47 47 47
38 38 38 38 38 38 39 40 40 41 42 43 44 44 45 47 47 48 49 50 50 50 50 50 51 52 53 52 51 50 50 49 49 48 48 48 48 47 47 46 47 47 45
39 39 39 39 40 40 40 41 41 42 43 44 45 45 46 47 48 49 50 51 52 51 49 50 51 52 51 50 49 49 48 47 48 48 47 47 47 47 46 46 46 45 43
40 40 40 41 41 41 42 42 43 44 45 45 45 46 47 48 49 50 51 52 53 52 51 50 50 50 49 48 48 48 47 47 47 47 47 46 46 46 45 45 44 42 40
41 41 41 42 42 42 43 43 44 45 45 45 46 46 47 48 50 51 52 53 53 52 51 49 49 48 47 47 47 47 46 46 46 47 45 45 44 45 45 43 41 38 37
42 42 42 42 43 43 44 44 45 45 45 46 46 47 48 50 51 52 53 52 52 50 50 48 47 47 46 46 47 46 45 46 46 45 44 44 44 44 43 41 37 36 35
43 43 43 43 43 43 44 44 45 45 46 46 47 48 50 51 52 52 52 51 49 49 48 48 47 46 46 46 46 45 46 46 45 44 44 43 42 42 41 38 36 34 34
44 44 44 44 43 44 44 44 45 46 46 47 48 49 50 51 51 51 50 48 48 47 47 47 47 46 46 46 45 44 44 43 43 43 43 42 41 40 39 36 35 33 32
44 44 44 44 44 43 44 46 46 46 46 47 48 50 50 50 50 49 48 46 47 47 47 46 46 45 45 44 44 43 42 42 42 42 40 40 39 38 36 34 33 32 31
44 44 44 44 44 44 45 46 46 46 47 47 48 49 49 48 48 47 46 46 46 46 46 45 45 44 44 44 43 42 42 41 40 39 38 38 37 36 34 32 31 30 29
44 44 44 45 45 45 46 47 47 47 47 48 48 48 48 47 47 45 45 45 45 45 44 44 44 43 43 43 43 42 41 41 40 38 38 37 36 35 33 32 29 28 27
44 44 44 45 45 45 46 47 47 47 47 47 48 48 46 46 45 45 44 43 43 43 43 44 43 43 43 43 42 41 41 40 39 38 37 35 33 32 32 30 27 26 26
45 45 45 45 45 45 46 47 47 46 46 46 46 46 45 45 44 44 43 42 42 42 43 42 43 43 42 41 40 40 39 38 37 35 33 32 30 29 28 27 25 24 23
45 45 45 45 45 45 45 46 46 45 45 45 45 44 44 43 42 42 41 41 41 41 41 41 42 42 41 39 38 37 36 35 34 31 30 29 28 27 25 23 22 22 21